<?xml version="1.0" encoding="UTF-8" standalone="no" ?>
<gpx xmlns="http://www.topografix.com/GPX/1/1" xmlns:xsi="http://www.w3.org/2001/XMLSchema-instance" xsi:schemaLocation="http://www.topografix.com/GPX/1/1 http://www.topografix.com/GPX/1/1/gpx.xsd" version="1.1" creator="VisuGPX - https://www.visugpx.com">
  <metadata>
    <name>Rando cabriere 2</name>
  </metadata>
  <trk>
    <name><![CDATA[Rando cabriere 2_1]]></name>
    <trkseg>
      <trkpt lat="43.57746" lon="3.36267">
        <ele>181.2</ele>
        <time>2017-10-01T07:02:35Z</time>
      </trkpt>
      <trkpt lat="43.57746" lon="3.36266">
        <ele>179</ele>
        <time>2017-10-01T07:02:36Z</time>
      </trkpt>
      <trkpt lat="43.5774" lon="3.3626">
        <ele>178.7</ele>
        <time>2017-10-01T07:02:42Z</time>
      </trkpt>
      <trkpt lat="43.57735" lon="3.36254">
        <ele>171.3</ele>
        <time>2017-10-01T07:02:48Z</time>
      </trkpt>
      <trkpt lat="43.57735" lon="3.3626">
        <ele>170.2</ele>
        <time>2017-10-01T07:03:14Z</time>
      </trkpt>
      <trkpt lat="43.57732" lon="3.36262">
        <ele>170.2</ele>
        <time>2017-10-01T07:03:21Z</time>
      </trkpt>
      <trkpt lat="43.5773" lon="3.3626">
        <ele>170.5</ele>
        <time>2017-10-01T07:04:25Z</time>
      </trkpt>
      <trkpt lat="43.57728" lon="3.3626">
        <ele>170.2</ele>
        <time>2017-10-01T07:05:06Z</time>
      </trkpt>
      <trkpt lat="43.57731" lon="3.36258">
        <ele>170.1</ele>
        <time>2017-10-01T07:05:13Z</time>
      </trkpt>
      <trkpt lat="43.57734" lon="3.36259">
        <ele>170.2</ele>
        <time>2017-10-01T07:05:30Z</time>
      </trkpt>
      <trkpt lat="43.57732" lon="3.3626">
        <ele>170.2</ele>
        <time>2017-10-01T07:05:15Z</time>
      </trkpt>
      <trkpt lat="43.5773" lon="3.36256">
        <ele>170.6</ele>
        <time>2017-10-01T07:05:32Z</time>
      </trkpt>
      <trkpt lat="43.57734" lon="3.36265">
        <ele>171.2</ele>
        <time>2017-10-01T07:07:01Z</time>
      </trkpt>
      <trkpt lat="43.57735" lon="3.3626">
        <ele>171.3</ele>
        <time>2017-10-01T07:07:08Z</time>
      </trkpt>
      <trkpt lat="43.57732" lon="3.36265">
        <ele>170.9</ele>
        <time>2017-10-01T07:07:35Z</time>
      </trkpt>
      <trkpt lat="43.57733" lon="3.36267">
        <ele>170.9</ele>
        <time>2017-10-01T07:07:42Z</time>
      </trkpt>
      <trkpt lat="43.57735" lon="3.36261">
        <ele>170.9</ele>
        <time>2017-10-01T07:07:49Z</time>
      </trkpt>
      <trkpt lat="43.57733" lon="3.36268">
        <ele>170.6</ele>
        <time>2017-10-01T07:07:56Z</time>
      </trkpt>
      <trkpt lat="43.57732" lon="3.36268">
        <ele>169.6</ele>
        <time>2017-10-01T07:08:10Z</time>
      </trkpt>
      <trkpt lat="43.57732" lon="3.36263">
        <ele>169.4</ele>
        <time>2017-10-01T07:08:17Z</time>
      </trkpt>
      <trkpt lat="43.5773" lon="3.36263">
        <ele>170.8</ele>
        <time>2017-10-01T07:14:39Z</time>
      </trkpt>
      <trkpt lat="43.57737" lon="3.3626">
        <ele>170.5</ele>
        <time>2017-10-01T07:16:30Z</time>
      </trkpt>
      <trkpt lat="43.57737" lon="3.36258">
        <ele>170.4</ele>
        <time>2017-10-01T07:16:37Z</time>
      </trkpt>
      <trkpt lat="43.57729" lon="3.36264">
        <ele>170.6</ele>
        <time>2017-10-01T07:16:51Z</time>
      </trkpt>
      <trkpt lat="43.57732" lon="3.36258">
        <ele>170.6</ele>
        <time>2017-10-01T07:16:58Z</time>
      </trkpt>
      <trkpt lat="43.57732" lon="3.3626">
        <ele>170.6</ele>
        <time>2017-10-01T07:17:05Z</time>
      </trkpt>
      <trkpt lat="43.57732" lon="3.36263">
        <ele>170.3</ele>
        <time>2017-10-01T07:17:12Z</time>
      </trkpt>
      <trkpt lat="43.57734" lon="3.36263">
        <ele>170.1</ele>
        <time>2017-10-01T07:17:19Z</time>
      </trkpt>
      <trkpt lat="43.57732" lon="3.36269">
        <ele>169.7</ele>
        <time>2017-10-01T07:17:26Z</time>
      </trkpt>
      <trkpt lat="43.57734" lon="3.36263">
        <ele>169.4</ele>
        <time>2017-10-01T07:17:33Z</time>
      </trkpt>
      <trkpt lat="43.57731" lon="3.36271">
        <ele>169.4</ele>
        <time>2017-10-01T07:17:40Z</time>
      </trkpt>
      <trkpt lat="43.57732" lon="3.3627">
        <ele>169.3</ele>
        <time>2017-10-01T07:17:47Z</time>
      </trkpt>
      <trkpt lat="43.57737" lon="3.36279">
        <ele>169.4</ele>
        <time>2017-10-01T07:17:53Z</time>
      </trkpt>
      <trkpt lat="43.57739" lon="3.36291">
        <ele>169.4</ele>
        <time>2017-10-01T07:17:58Z</time>
      </trkpt>
      <trkpt lat="43.57742" lon="3.36301">
        <ele>169.4</ele>
        <time>2017-10-01T07:17:59Z</time>
      </trkpt>
      <trkpt lat="43.5775" lon="3.36299">
        <ele>170</ele>
        <time>2017-10-01T07:18:04Z</time>
      </trkpt>
      <trkpt lat="43.5776" lon="3.36294">
        <ele>171.1</ele>
        <time>2017-10-01T07:18:08Z</time>
      </trkpt>
      <trkpt lat="43.57768" lon="3.36293">
        <ele>171.6</ele>
        <time>2017-10-01T07:18:10Z</time>
      </trkpt>
      <trkpt lat="43.57777" lon="3.36297">
        <ele>172.3</ele>
        <time>2017-10-01T07:18:13Z</time>
      </trkpt>
      <trkpt lat="43.57786" lon="3.36306">
        <ele>172.6</ele>
        <time>2017-10-01T07:18:16Z</time>
      </trkpt>
      <trkpt lat="43.57794" lon="3.36312">
        <ele>172.4</ele>
        <time>2017-10-01T07:18:19Z</time>
      </trkpt>
      <trkpt lat="43.57804" lon="3.36319">
        <ele>171.6</ele>
        <time>2017-10-01T07:18:21Z</time>
      </trkpt>
      <trkpt lat="43.57813" lon="3.36324">
        <ele>170.8</ele>
        <time>2017-10-01T07:18:23Z</time>
      </trkpt>
      <trkpt lat="43.57821" lon="3.3633">
        <ele>169.4</ele>
        <time>2017-10-01T07:18:25Z</time>
      </trkpt>
      <trkpt lat="43.57829" lon="3.36335">
        <ele>168.3</ele>
        <time>2017-10-01T07:18:27Z</time>
      </trkpt>
      <trkpt lat="43.57838" lon="3.36341">
        <ele>167.4</ele>
        <time>2017-10-01T07:18:29Z</time>
      </trkpt>
      <trkpt lat="43.57844" lon="3.36348">
        <ele>166.8</ele>
        <time>2017-10-01T07:18:31Z</time>
      </trkpt>
      <trkpt lat="43.57851" lon="3.36355">
        <ele>166.7</ele>
        <time>2017-10-01T07:18:33Z</time>
      </trkpt>
      <trkpt lat="43.57858" lon="3.36366">
        <ele>166</ele>
        <time>2017-10-01T07:18:36Z</time>
      </trkpt>
      <trkpt lat="43.57863" lon="3.36373">
        <ele>165.9</ele>
        <time>2017-10-01T07:18:38Z</time>
      </trkpt>
      <trkpt lat="43.5787" lon="3.36376">
        <ele>165.7</ele>
        <time>2017-10-01T07:18:40Z</time>
      </trkpt>
      <trkpt lat="43.57878" lon="3.36385">
        <ele>165.4</ele>
        <time>2017-10-01T07:18:44Z</time>
      </trkpt>
      <trkpt lat="43.5788" lon="3.36394">
        <ele>164.5</ele>
        <time>2017-10-01T07:18:46Z</time>
      </trkpt>
      <trkpt lat="43.57882" lon="3.36406">
        <ele>163.9</ele>
        <time>2017-10-01T07:18:48Z</time>
      </trkpt>
      <trkpt lat="43.57885" lon="3.36421">
        <ele>163.4</ele>
        <time>2017-10-01T07:18:50Z</time>
      </trkpt>
      <trkpt lat="43.57886" lon="3.36436">
        <ele>162.7</ele>
        <time>2017-10-01T07:18:52Z</time>
      </trkpt>
      <trkpt lat="43.5789" lon="3.36452">
        <ele>162</ele>
        <time>2017-10-01T07:18:54Z</time>
      </trkpt>
      <trkpt lat="43.57898" lon="3.36467">
        <ele>160.7</ele>
        <time>2017-10-01T07:18:56Z</time>
      </trkpt>
      <trkpt lat="43.57907" lon="3.36482">
        <ele>159.2</ele>
        <time>2017-10-01T07:18:58Z</time>
      </trkpt>
      <trkpt lat="43.57914" lon="3.36494">
        <ele>157.2</ele>
        <time>2017-10-01T07:19:00Z</time>
      </trkpt>
      <trkpt lat="43.57917" lon="3.36503">
        <ele>157.1</ele>
        <time>2017-10-01T07:19:02Z</time>
      </trkpt>
      <trkpt lat="43.57918" lon="3.36514">
        <ele>156.9</ele>
        <time>2017-10-01T07:19:05Z</time>
      </trkpt>
      <trkpt lat="43.57911" lon="3.3652">
        <ele>156.8</ele>
        <time>2017-10-01T07:19:09Z</time>
      </trkpt>
      <trkpt lat="43.57903" lon="3.36521">
        <ele>157.1</ele>
        <time>2017-10-01T07:19:12Z</time>
      </trkpt>
      <trkpt lat="43.57895" lon="3.36522">
        <ele>157.8</ele>
        <time>2017-10-01T07:19:16Z</time>
      </trkpt>
      <trkpt lat="43.57886" lon="3.36523">
        <ele>159</ele>
        <time>2017-10-01T07:19:21Z</time>
      </trkpt>
      <trkpt lat="43.57876" lon="3.36524">
        <ele>160.2</ele>
        <time>2017-10-01T07:19:25Z</time>
      </trkpt>
      <trkpt lat="43.57867" lon="3.36525">
        <ele>161</ele>
        <time>2017-10-01T07:19:28Z</time>
      </trkpt>
      <trkpt lat="43.57858" lon="3.36528">
        <ele>162.2</ele>
        <time>2017-10-01T07:19:33Z</time>
      </trkpt>
      <trkpt lat="43.57851" lon="3.36532">
        <ele>163</ele>
        <time>2017-10-01T07:19:36Z</time>
      </trkpt>
      <trkpt lat="43.57842" lon="3.36539">
        <ele>163.5</ele>
        <time>2017-10-01T07:19:39Z</time>
      </trkpt>
      <trkpt lat="43.57836" lon="3.36546">
        <ele>164</ele>
        <time>2017-10-01T07:19:42Z</time>
      </trkpt>
      <trkpt lat="43.57832" lon="3.36557">
        <ele>164.6</ele>
        <time>2017-10-01T07:19:46Z</time>
      </trkpt>
      <trkpt lat="43.57829" lon="3.36568">
        <ele>165.1</ele>
        <time>2017-10-01T07:19:49Z</time>
      </trkpt>
      <trkpt lat="43.57828" lon="3.36577">
        <ele>165.7</ele>
        <time>2017-10-01T07:19:52Z</time>
      </trkpt>
      <trkpt lat="43.57825" lon="3.36586">
        <ele>166.4</ele>
        <time>2017-10-01T07:19:55Z</time>
      </trkpt>
      <trkpt lat="43.57823" lon="3.366">
        <ele>166.8</ele>
        <time>2017-10-01T07:19:58Z</time>
      </trkpt>
      <trkpt lat="43.5782" lon="3.36614">
        <ele>167</ele>
        <time>2017-10-01T07:20:01Z</time>
      </trkpt>
      <trkpt lat="43.57816" lon="3.36626">
        <ele>166.9</ele>
        <time>2017-10-01T07:20:04Z</time>
      </trkpt>
      <trkpt lat="43.57813" lon="3.36637">
        <ele>166.8</ele>
        <time>2017-10-01T07:20:07Z</time>
      </trkpt>
      <trkpt lat="43.57807" lon="3.36648">
        <ele>166.6</ele>
        <time>2017-10-01T07:20:10Z</time>
      </trkpt>
      <trkpt lat="43.578" lon="3.36659">
        <ele>166.4</ele>
        <time>2017-10-01T07:20:13Z</time>
      </trkpt>
      <trkpt lat="43.57794" lon="3.36668">
        <ele>166.1</ele>
        <time>2017-10-01T07:20:16Z</time>
      </trkpt>
      <trkpt lat="43.57787" lon="3.36677">
        <ele>165.8</ele>
        <time>2017-10-01T07:20:19Z</time>
      </trkpt>
      <trkpt lat="43.57781" lon="3.36688">
        <ele>165.6</ele>
        <time>2017-10-01T07:20:22Z</time>
      </trkpt>
      <trkpt lat="43.57777" lon="3.36697">
        <ele>165.5</ele>
        <time>2017-10-01T07:20:24Z</time>
      </trkpt>
      <trkpt lat="43.57775" lon="3.3671">
        <ele>165.5</ele>
        <time>2017-10-01T07:20:28Z</time>
      </trkpt>
      <trkpt lat="43.57774" lon="3.36719">
        <ele>165.5</ele>
        <time>2017-10-01T07:20:30Z</time>
      </trkpt>
      <trkpt lat="43.57775" lon="3.3673">
        <ele>165.6</ele>
        <time>2017-10-01T07:20:32Z</time>
      </trkpt>
      <trkpt lat="43.57778" lon="3.36743">
        <ele>165.8</ele>
        <time>2017-10-01T07:20:35Z</time>
      </trkpt>
      <trkpt lat="43.57781" lon="3.36756">
        <ele>166.1</ele>
        <time>2017-10-01T07:20:38Z</time>
      </trkpt>
      <trkpt lat="43.57784" lon="3.3677">
        <ele>166.3</ele>
        <time>2017-10-01T07:20:41Z</time>
      </trkpt>
      <trkpt lat="43.57786" lon="3.36782">
        <ele>166.6</ele>
        <time>2017-10-01T07:20:44Z</time>
      </trkpt>
      <trkpt lat="43.57789" lon="3.36794">
        <ele>166.9</ele>
        <time>2017-10-01T07:20:47Z</time>
      </trkpt>
      <trkpt lat="43.57791" lon="3.36806">
        <ele>167.2</ele>
        <time>2017-10-01T07:20:50Z</time>
      </trkpt>
      <trkpt lat="43.57794" lon="3.36818">
        <ele>167.5</ele>
        <time>2017-10-01T07:20:53Z</time>
      </trkpt>
      <trkpt lat="43.57798" lon="3.36829">
        <ele>167.9</ele>
        <time>2017-10-01T07:20:56Z</time>
      </trkpt>
      <trkpt lat="43.57801" lon="3.3684">
        <ele>168.2</ele>
        <time>2017-10-01T07:20:59Z</time>
      </trkpt>
      <trkpt lat="43.57802" lon="3.3685">
        <ele>168.7</ele>
        <time>2017-10-01T07:21:02Z</time>
      </trkpt>
      <trkpt lat="43.57804" lon="3.3686">
        <ele>169.1</ele>
        <time>2017-10-01T07:21:05Z</time>
      </trkpt>
      <trkpt lat="43.57805" lon="3.36872">
        <ele>169.6</ele>
        <time>2017-10-01T07:21:08Z</time>
      </trkpt>
      <trkpt lat="43.57806" lon="3.36886">
        <ele>170</ele>
        <time>2017-10-01T07:21:11Z</time>
      </trkpt>
      <trkpt lat="43.57807" lon="3.36899">
        <ele>172.2</ele>
        <time>2017-10-01T07:21:13Z</time>
      </trkpt>
      <trkpt lat="43.57808" lon="3.36912">
        <ele>173.1</ele>
        <time>2017-10-01T07:21:15Z</time>
      </trkpt>
      <trkpt lat="43.57809" lon="3.36927">
        <ele>173.1</ele>
        <time>2017-10-01T07:21:17Z</time>
      </trkpt>
      <trkpt lat="43.57809" lon="3.3694">
        <ele>173.1</ele>
        <time>2017-10-01T07:21:19Z</time>
      </trkpt>
      <trkpt lat="43.57811" lon="3.3695">
        <ele>173.3</ele>
        <time>2017-10-01T07:21:21Z</time>
      </trkpt>
      <trkpt lat="43.57813" lon="3.36961">
        <ele>173.3</ele>
        <time>2017-10-01T07:21:23Z</time>
      </trkpt>
      <trkpt lat="43.57816" lon="3.3697">
        <ele>173.3</ele>
        <time>2017-10-01T07:21:25Z</time>
      </trkpt>
      <trkpt lat="43.57819" lon="3.36984">
        <ele>173.3</ele>
        <time>2017-10-01T07:21:28Z</time>
      </trkpt>
      <trkpt lat="43.57822" lon="3.36997">
        <ele>173.2</ele>
        <time>2017-10-01T07:21:31Z</time>
      </trkpt>
      <trkpt lat="43.57823" lon="3.3701">
        <ele>173.1</ele>
        <time>2017-10-01T07:21:34Z</time>
      </trkpt>
      <trkpt lat="43.57825" lon="3.37022">
        <ele>173.1</ele>
        <time>2017-10-01T07:21:37Z</time>
      </trkpt>
      <trkpt lat="43.57829" lon="3.37032">
        <ele>173.2</ele>
        <time>2017-10-01T07:21:40Z</time>
      </trkpt>
      <trkpt lat="43.57836" lon="3.37042">
        <ele>173.2</ele>
        <time>2017-10-01T07:21:43Z</time>
      </trkpt>
      <trkpt lat="43.57843" lon="3.37047">
        <ele>173.2</ele>
        <time>2017-10-01T07:21:46Z</time>
      </trkpt>
      <trkpt lat="43.57851" lon="3.37051">
        <ele>173.4</ele>
        <time>2017-10-01T07:21:50Z</time>
      </trkpt>
      <trkpt lat="43.57858" lon="3.37057">
        <ele>173.5</ele>
        <time>2017-10-01T07:21:53Z</time>
      </trkpt>
      <trkpt lat="43.57864" lon="3.37064">
        <ele>173.8</ele>
        <time>2017-10-01T07:21:56Z</time>
      </trkpt>
      <trkpt lat="43.57869" lon="3.37073">
        <ele>174.1</ele>
        <time>2017-10-01T07:21:59Z</time>
      </trkpt>
      <trkpt lat="43.57874" lon="3.37082">
        <ele>174.3</ele>
        <time>2017-10-01T07:22:02Z</time>
      </trkpt>
      <trkpt lat="43.57881" lon="3.37092">
        <ele>174.8</ele>
        <time>2017-10-01T07:22:06Z</time>
      </trkpt>
      <trkpt lat="43.57887" lon="3.37099">
        <ele>175.2</ele>
        <time>2017-10-01T07:22:09Z</time>
      </trkpt>
      <trkpt lat="43.57894" lon="3.37105">
        <ele>175.6</ele>
        <time>2017-10-01T07:22:12Z</time>
      </trkpt>
      <trkpt lat="43.57901" lon="3.37111">
        <ele>175.9</ele>
        <time>2017-10-01T07:22:15Z</time>
      </trkpt>
      <trkpt lat="43.57908" lon="3.37116">
        <ele>176.3</ele>
        <time>2017-10-01T07:22:18Z</time>
      </trkpt>
      <trkpt lat="43.57915" lon="3.37121">
        <ele>176.7</ele>
        <time>2017-10-01T07:22:21Z</time>
      </trkpt>
      <trkpt lat="43.57922" lon="3.37125">
        <ele>177</ele>
        <time>2017-10-01T07:22:24Z</time>
      </trkpt>
      <trkpt lat="43.57931" lon="3.3713">
        <ele>177.2</ele>
        <time>2017-10-01T07:22:28Z</time>
      </trkpt>
      <trkpt lat="43.57939" lon="3.37134">
        <ele>177.6</ele>
        <time>2017-10-01T07:22:32Z</time>
      </trkpt>
      <trkpt lat="43.57947" lon="3.37136">
        <ele>178</ele>
        <time>2017-10-01T07:22:35Z</time>
      </trkpt>
      <trkpt lat="43.57955" lon="3.37138">
        <ele>178.3</ele>
        <time>2017-10-01T07:22:38Z</time>
      </trkpt>
      <trkpt lat="43.57963" lon="3.37138">
        <ele>179</ele>
        <time>2017-10-01T07:22:42Z</time>
      </trkpt>
      <trkpt lat="43.57972" lon="3.37138">
        <ele>179.5</ele>
        <time>2017-10-01T07:22:45Z</time>
      </trkpt>
      <trkpt lat="43.57981" lon="3.37138">
        <ele>180</ele>
        <time>2017-10-01T07:22:48Z</time>
      </trkpt>
      <trkpt lat="43.57988" lon="3.37138">
        <ele>180.6</ele>
        <time>2017-10-01T07:22:51Z</time>
      </trkpt>
      <trkpt lat="43.57997" lon="3.37139">
        <ele>181.2</ele>
        <time>2017-10-01T07:22:54Z</time>
      </trkpt>
      <trkpt lat="43.58005" lon="3.37141">
        <ele>181.8</ele>
        <time>2017-10-01T07:22:57Z</time>
      </trkpt>
      <trkpt lat="43.58015" lon="3.37147">
        <ele>182.2</ele>
        <time>2017-10-01T07:23:00Z</time>
      </trkpt>
      <trkpt lat="43.58025" lon="3.37152">
        <ele>182.4</ele>
        <time>2017-10-01T07:23:03Z</time>
      </trkpt>
      <trkpt lat="43.58034" lon="3.37156">
        <ele>182.6</ele>
        <time>2017-10-01T07:23:06Z</time>
      </trkpt>
      <trkpt lat="43.58044" lon="3.37159">
        <ele>182.7</ele>
        <time>2017-10-01T07:23:09Z</time>
      </trkpt>
      <trkpt lat="43.58053" lon="3.37161">
        <ele>182.8</ele>
        <time>2017-10-01T07:23:12Z</time>
      </trkpt>
      <trkpt lat="43.58062" lon="3.37163">
        <ele>182.9</ele>
        <time>2017-10-01T07:23:15Z</time>
      </trkpt>
      <trkpt lat="43.5807" lon="3.37165">
        <ele>183</ele>
        <time>2017-10-01T07:23:18Z</time>
      </trkpt>
      <trkpt lat="43.58079" lon="3.37171">
        <ele>183.3</ele>
        <time>2017-10-01T07:23:22Z</time>
      </trkpt>
      <trkpt lat="43.58085" lon="3.3718">
        <ele>183.7</ele>
        <time>2017-10-01T07:23:25Z</time>
      </trkpt>
      <trkpt lat="43.5809" lon="3.37189">
        <ele>184</ele>
        <time>2017-10-01T07:23:28Z</time>
      </trkpt>
      <trkpt lat="43.58095" lon="3.37199">
        <ele>184.4</ele>
        <time>2017-10-01T07:23:31Z</time>
      </trkpt>
      <trkpt lat="43.581" lon="3.37207">
        <ele>184.7</ele>
        <time>2017-10-01T07:23:34Z</time>
      </trkpt>
      <trkpt lat="43.58106" lon="3.37213">
        <ele>185.2</ele>
        <time>2017-10-01T07:23:37Z</time>
      </trkpt>
      <trkpt lat="43.58113" lon="3.37219">
        <ele>185.9</ele>
        <time>2017-10-01T07:23:41Z</time>
      </trkpt>
      <trkpt lat="43.58121" lon="3.37224">
        <ele>186.4</ele>
        <time>2017-10-01T07:23:44Z</time>
      </trkpt>
      <trkpt lat="43.58128" lon="3.37228">
        <ele>186.9</ele>
        <time>2017-10-01T07:23:47Z</time>
      </trkpt>
      <trkpt lat="43.58135" lon="3.37232">
        <ele>187.3</ele>
        <time>2017-10-01T07:23:50Z</time>
      </trkpt>
      <trkpt lat="43.58142" lon="3.37241">
        <ele>188.1</ele>
        <time>2017-10-01T07:23:54Z</time>
      </trkpt>
      <trkpt lat="43.58149" lon="3.37253">
        <ele>188.5</ele>
        <time>2017-10-01T07:23:57Z</time>
      </trkpt>
      <trkpt lat="43.58154" lon="3.37263">
        <ele>188.9</ele>
        <time>2017-10-01T07:24:00Z</time>
      </trkpt>
      <trkpt lat="43.58161" lon="3.37272">
        <ele>189.2</ele>
        <time>2017-10-01T07:24:03Z</time>
      </trkpt>
      <trkpt lat="43.58167" lon="3.37279">
        <ele>189.4</ele>
        <time>2017-10-01T07:24:06Z</time>
      </trkpt>
      <trkpt lat="43.58175" lon="3.37283">
        <ele>189.4</ele>
        <time>2017-10-01T07:24:08Z</time>
      </trkpt>
      <trkpt lat="43.58183" lon="3.37285">
        <ele>189.4</ele>
        <time>2017-10-01T07:24:10Z</time>
      </trkpt>
      <trkpt lat="43.5819" lon="3.37283">
        <ele>189.4</ele>
        <time>2017-10-01T07:24:12Z</time>
      </trkpt>
      <trkpt lat="43.58198" lon="3.37282">
        <ele>188.5</ele>
        <time>2017-10-01T07:24:14Z</time>
      </trkpt>
      <trkpt lat="43.58206" lon="3.37282">
        <ele>187.5</ele>
        <time>2017-10-01T07:24:16Z</time>
      </trkpt>
      <trkpt lat="43.58214" lon="3.37287">
        <ele>187.1</ele>
        <time>2017-10-01T07:24:18Z</time>
      </trkpt>
      <trkpt lat="43.58216" lon="3.37298">
        <ele>187.1</ele>
        <time>2017-10-01T07:24:20Z</time>
      </trkpt>
      <trkpt lat="43.5821" lon="3.37307">
        <ele>187.2</ele>
        <time>2017-10-01T07:24:23Z</time>
      </trkpt>
      <trkpt lat="43.58205" lon="3.37318">
        <ele>187.4</ele>
        <time>2017-10-01T07:24:26Z</time>
      </trkpt>
      <trkpt lat="43.582" lon="3.37328">
        <ele>187.5</ele>
        <time>2017-10-01T07:24:29Z</time>
      </trkpt>
      <trkpt lat="43.58197" lon="3.37337">
        <ele>187.5</ele>
        <time>2017-10-01T07:24:32Z</time>
      </trkpt>
      <trkpt lat="43.58196" lon="3.37351">
        <ele>187.5</ele>
        <time>2017-10-01T07:24:35Z</time>
      </trkpt>
      <trkpt lat="43.58196" lon="3.37363">
        <ele>188.1</ele>
        <time>2017-10-01T07:24:37Z</time>
      </trkpt>
      <trkpt lat="43.58197" lon="3.37379">
        <ele>188.6</ele>
        <time>2017-10-01T07:24:39Z</time>
      </trkpt>
      <trkpt lat="43.58199" lon="3.37391">
        <ele>189</ele>
        <time>2017-10-01T07:24:41Z</time>
      </trkpt>
      <trkpt lat="43.582" lon="3.37406">
        <ele>189.2</ele>
        <time>2017-10-01T07:24:43Z</time>
      </trkpt>
      <trkpt lat="43.582" lon="3.37419">
        <ele>189.1</ele>
        <time>2017-10-01T07:24:45Z</time>
      </trkpt>
      <trkpt lat="43.58199" lon="3.37435">
        <ele>189.5</ele>
        <time>2017-10-01T07:24:47Z</time>
      </trkpt>
      <trkpt lat="43.58199" lon="3.37444">
        <ele>189.9</ele>
        <time>2017-10-01T07:24:48Z</time>
      </trkpt>
      <trkpt lat="43.58203" lon="3.37463">
        <ele>190.4</ele>
        <time>2017-10-01T07:24:50Z</time>
      </trkpt>
      <trkpt lat="43.58206" lon="3.37472">
        <ele>190.4</ele>
        <time>2017-10-01T07:24:51Z</time>
      </trkpt>
      <trkpt lat="43.58209" lon="3.37482">
        <ele>190.2</ele>
        <time>2017-10-01T07:24:52Z</time>
      </trkpt>
      <trkpt lat="43.58211" lon="3.37491">
        <ele>190</ele>
        <time>2017-10-01T07:24:53Z</time>
      </trkpt>
      <trkpt lat="43.58216" lon="3.37507">
        <ele>189.6</ele>
        <time>2017-10-01T07:24:55Z</time>
      </trkpt>
      <trkpt lat="43.58223" lon="3.37521">
        <ele>189.2</ele>
        <time>2017-10-01T07:24:57Z</time>
      </trkpt>
      <trkpt lat="43.5823" lon="3.37534">
        <ele>188.9</ele>
        <time>2017-10-01T07:24:59Z</time>
      </trkpt>
      <trkpt lat="43.58234" lon="3.37547">
        <ele>188.7</ele>
        <time>2017-10-01T07:25:01Z</time>
      </trkpt>
      <trkpt lat="43.58238" lon="3.37558">
        <ele>188.6</ele>
        <time>2017-10-01T07:25:04Z</time>
      </trkpt>
      <trkpt lat="43.58237" lon="3.37569">
        <ele>188.6</ele>
        <time>2017-10-01T07:25:08Z</time>
      </trkpt>
      <trkpt lat="43.58237" lon="3.37579">
        <ele>188.9</ele>
        <time>2017-10-01T07:25:12Z</time>
      </trkpt>
      <trkpt lat="43.58235" lon="3.3759">
        <ele>189.3</ele>
        <time>2017-10-01T07:25:16Z</time>
      </trkpt>
      <trkpt lat="43.58233" lon="3.376">
        <ele>189.9</ele>
        <time>2017-10-01T07:25:20Z</time>
      </trkpt>
      <trkpt lat="43.58231" lon="3.37612">
        <ele>190.7</ele>
        <time>2017-10-01T07:25:25Z</time>
      </trkpt>
      <trkpt lat="43.5823" lon="3.37623">
        <ele>191.6</ele>
        <time>2017-10-01T07:25:30Z</time>
      </trkpt>
      <trkpt lat="43.58227" lon="3.37633">
        <ele>192.3</ele>
        <time>2017-10-01T07:25:34Z</time>
      </trkpt>
      <trkpt lat="43.58224" lon="3.37644">
        <ele>193.1</ele>
        <time>2017-10-01T07:25:38Z</time>
      </trkpt>
      <trkpt lat="43.58221" lon="3.37654">
        <ele>193.9</ele>
        <time>2017-10-01T07:25:42Z</time>
      </trkpt>
      <trkpt lat="43.58215" lon="3.37665">
        <ele>194.7</ele>
        <time>2017-10-01T07:25:46Z</time>
      </trkpt>
      <trkpt lat="43.58209" lon="3.37672">
        <ele>195.6</ele>
        <time>2017-10-01T07:25:51Z</time>
      </trkpt>
      <trkpt lat="43.58207" lon="3.37668">
        <ele>196.6</ele>
        <time>2017-10-01T07:25:58Z</time>
      </trkpt>
      <trkpt lat="43.58202" lon="3.37658">
        <ele>197.5</ele>
        <time>2017-10-01T07:26:03Z</time>
      </trkpt>
      <trkpt lat="43.58196" lon="3.3765">
        <ele>198.1</ele>
        <time>2017-10-01T07:26:07Z</time>
      </trkpt>
      <trkpt lat="43.58189" lon="3.37645">
        <ele>198.7</ele>
        <time>2017-10-01T07:26:11Z</time>
      </trkpt>
      <trkpt lat="43.58181" lon="3.37642">
        <ele>199.2</ele>
        <time>2017-10-01T07:26:15Z</time>
      </trkpt>
      <trkpt lat="43.58173" lon="3.37638">
        <ele>199.7</ele>
        <time>2017-10-01T07:26:19Z</time>
      </trkpt>
      <trkpt lat="43.58167" lon="3.37631">
        <ele>200</ele>
        <time>2017-10-01T07:26:22Z</time>
      </trkpt>
      <trkpt lat="43.58161" lon="3.37622">
        <ele>200.4</ele>
        <time>2017-10-01T07:26:26Z</time>
      </trkpt>
      <trkpt lat="43.58156" lon="3.37613">
        <ele>200.9</ele>
        <time>2017-10-01T07:26:30Z</time>
      </trkpt>
      <trkpt lat="43.5815" lon="3.37604">
        <ele>201.5</ele>
        <time>2017-10-01T07:26:34Z</time>
      </trkpt>
      <trkpt lat="43.58144" lon="3.37598">
        <ele>202.4</ele>
        <time>2017-10-01T07:26:39Z</time>
      </trkpt>
      <trkpt lat="43.58136" lon="3.37594">
        <ele>203.2</ele>
        <time>2017-10-01T07:26:44Z</time>
      </trkpt>
      <trkpt lat="43.58128" lon="3.37595">
        <ele>204</ele>
        <time>2017-10-01T07:26:49Z</time>
      </trkpt>
      <trkpt lat="43.58124" lon="3.37602">
        <ele>205.1</ele>
        <time>2017-10-01T07:26:56Z</time>
      </trkpt>
      <trkpt lat="43.58127" lon="3.37614">
        <ele>206.2</ele>
        <time>2017-10-01T07:27:03Z</time>
      </trkpt>
      <trkpt lat="43.58126" lon="3.37626">
        <ele>207.1</ele>
        <time>2017-10-01T07:27:08Z</time>
      </trkpt>
      <trkpt lat="43.58124" lon="3.37637">
        <ele>207.9</ele>
        <time>2017-10-01T07:27:12Z</time>
      </trkpt>
      <trkpt lat="43.58123" lon="3.37649">
        <ele>208.7</ele>
        <time>2017-10-01T07:27:16Z</time>
      </trkpt>
      <trkpt lat="43.5812" lon="3.37661">
        <ele>209.6</ele>
        <time>2017-10-01T07:27:20Z</time>
      </trkpt>
      <trkpt lat="43.58118" lon="3.37674">
        <ele>210.4</ele>
        <time>2017-10-01T07:27:24Z</time>
      </trkpt>
      <trkpt lat="43.58117" lon="3.37687">
        <ele>211.3</ele>
        <time>2017-10-01T07:27:28Z</time>
      </trkpt>
      <trkpt lat="43.58116" lon="3.37699">
        <ele>212.2</ele>
        <time>2017-10-01T07:27:32Z</time>
      </trkpt>
      <trkpt lat="43.58117" lon="3.37711">
        <ele>213.1</ele>
        <time>2017-10-01T07:27:36Z</time>
      </trkpt>
      <trkpt lat="43.58122" lon="3.37721">
        <ele>214</ele>
        <time>2017-10-01T07:27:40Z</time>
      </trkpt>
      <trkpt lat="43.58128" lon="3.37727">
        <ele>214.9</ele>
        <time>2017-10-01T07:27:44Z</time>
      </trkpt>
      <trkpt lat="43.58137" lon="3.37739">
        <ele>216.3</ele>
        <time>2017-10-01T07:27:50Z</time>
      </trkpt>
      <trkpt lat="43.58141" lon="3.37748">
        <ele>217</ele>
        <time>2017-10-01T07:27:53Z</time>
      </trkpt>
      <trkpt lat="43.58147" lon="3.37756">
        <ele>217.6</ele>
        <time>2017-10-01T07:27:56Z</time>
      </trkpt>
      <trkpt lat="43.58152" lon="3.37766">
        <ele>218.3</ele>
        <time>2017-10-01T07:28:00Z</time>
      </trkpt>
      <trkpt lat="43.58155" lon="3.37775">
        <ele>218.8</ele>
        <time>2017-10-01T07:28:03Z</time>
      </trkpt>
      <trkpt lat="43.58159" lon="3.37784">
        <ele>219.3</ele>
        <time>2017-10-01T07:28:06Z</time>
      </trkpt>
      <trkpt lat="43.58162" lon="3.37794">
        <ele>219.7</ele>
        <time>2017-10-01T07:28:09Z</time>
      </trkpt>
      <trkpt lat="43.58167" lon="3.37801">
        <ele>220.1</ele>
        <time>2017-10-01T07:28:12Z</time>
      </trkpt>
      <trkpt lat="43.58175" lon="3.37808">
        <ele>220.4</ele>
        <time>2017-10-01T07:28:15Z</time>
      </trkpt>
      <trkpt lat="43.58183" lon="3.37814">
        <ele>220.8</ele>
        <time>2017-10-01T07:28:18Z</time>
      </trkpt>
      <trkpt lat="43.5819" lon="3.37819">
        <ele>221</ele>
        <time>2017-10-01T07:28:21Z</time>
      </trkpt>
      <trkpt lat="43.58197" lon="3.37823">
        <ele>221.2</ele>
        <time>2017-10-01T07:28:24Z</time>
      </trkpt>
      <trkpt lat="43.58202" lon="3.37831">
        <ele>221.5</ele>
        <time>2017-10-01T07:28:27Z</time>
      </trkpt>
      <trkpt lat="43.58207" lon="3.37839">
        <ele>221.7</ele>
        <time>2017-10-01T07:28:30Z</time>
      </trkpt>
      <trkpt lat="43.58212" lon="3.37847">
        <ele>221.8</ele>
        <time>2017-10-01T07:28:33Z</time>
      </trkpt>
      <trkpt lat="43.58216" lon="3.37857">
        <ele>221.8</ele>
        <time>2017-10-01T07:28:36Z</time>
      </trkpt>
      <trkpt lat="43.58222" lon="3.37863">
        <ele>221.8</ele>
        <time>2017-10-01T07:28:38Z</time>
      </trkpt>
      <trkpt lat="43.58229" lon="3.37868">
        <ele>221.8</ele>
        <time>2017-10-01T07:28:40Z</time>
      </trkpt>
      <trkpt lat="43.58236" lon="3.37872">
        <ele>221.4</ele>
        <time>2017-10-01T07:28:42Z</time>
      </trkpt>
      <trkpt lat="43.58244" lon="3.37877">
        <ele>220.6</ele>
        <time>2017-10-01T07:28:44Z</time>
      </trkpt>
      <trkpt lat="43.58253" lon="3.37882">
        <ele>220.3</ele>
        <time>2017-10-01T07:28:46Z</time>
      </trkpt>
      <trkpt lat="43.58263" lon="3.37891">
        <ele>219.7</ele>
        <time>2017-10-01T07:28:48Z</time>
      </trkpt>
      <trkpt lat="43.58273" lon="3.379">
        <ele>219.2</ele>
        <time>2017-10-01T07:28:50Z</time>
      </trkpt>
      <trkpt lat="43.58283" lon="3.37911">
        <ele>218.6</ele>
        <time>2017-10-01T07:28:52Z</time>
      </trkpt>
      <trkpt lat="43.58293" lon="3.37922">
        <ele>218.1</ele>
        <time>2017-10-01T07:28:54Z</time>
      </trkpt>
      <trkpt lat="43.58301" lon="3.37928">
        <ele>217.8</ele>
        <time>2017-10-01T07:28:56Z</time>
      </trkpt>
      <trkpt lat="43.58307" lon="3.37935">
        <ele>217.7</ele>
        <time>2017-10-01T07:28:58Z</time>
      </trkpt>
      <trkpt lat="43.58314" lon="3.37942">
        <ele>217.7</ele>
        <time>2017-10-01T07:29:01Z</time>
      </trkpt>
      <trkpt lat="43.58321" lon="3.37951">
        <ele>217.8</ele>
        <time>2017-10-01T07:29:04Z</time>
      </trkpt>
      <trkpt lat="43.58323" lon="3.37963">
        <ele>217.9</ele>
        <time>2017-10-01T07:29:07Z</time>
      </trkpt>
      <trkpt lat="43.58321" lon="3.37975">
        <ele>218</ele>
        <time>2017-10-01T07:29:10Z</time>
      </trkpt>
      <trkpt lat="43.5832" lon="3.37988">
        <ele>218.1</ele>
        <time>2017-10-01T07:29:13Z</time>
      </trkpt>
      <trkpt lat="43.58321" lon="3.37998">
        <ele>218.2</ele>
        <time>2017-10-01T07:29:16Z</time>
      </trkpt>
      <trkpt lat="43.58324" lon="3.38008">
        <ele>218.3</ele>
        <time>2017-10-01T07:29:19Z</time>
      </trkpt>
      <trkpt lat="43.58326" lon="3.38019">
        <ele>218.5</ele>
        <time>2017-10-01T07:29:22Z</time>
      </trkpt>
      <trkpt lat="43.58326" lon="3.38031">
        <ele>218.7</ele>
        <time>2017-10-01T07:29:26Z</time>
      </trkpt>
      <trkpt lat="43.5833" lon="3.38041">
        <ele>218.9</ele>
        <time>2017-10-01T07:29:30Z</time>
      </trkpt>
      <trkpt lat="43.58336" lon="3.38049">
        <ele>219.1</ele>
        <time>2017-10-01T07:29:33Z</time>
      </trkpt>
      <trkpt lat="43.58341" lon="3.3806">
        <ele>219.4</ele>
        <time>2017-10-01T07:29:37Z</time>
      </trkpt>
      <trkpt lat="43.58344" lon="3.38071">
        <ele>219.7</ele>
        <time>2017-10-01T07:29:40Z</time>
      </trkpt>
      <trkpt lat="43.58346" lon="3.38082">
        <ele>220</ele>
        <time>2017-10-01T07:29:43Z</time>
      </trkpt>
      <trkpt lat="43.58348" lon="3.38096">
        <ele>220.2</ele>
        <time>2017-10-01T07:29:46Z</time>
      </trkpt>
      <trkpt lat="43.58351" lon="3.38109">
        <ele>220.5</ele>
        <time>2017-10-01T07:29:49Z</time>
      </trkpt>
      <trkpt lat="43.58356" lon="3.38121">
        <ele>220.8</ele>
        <time>2017-10-01T07:29:52Z</time>
      </trkpt>
      <trkpt lat="43.58361" lon="3.38131">
        <ele>221.1</ele>
        <time>2017-10-01T07:29:55Z</time>
      </trkpt>
      <trkpt lat="43.58367" lon="3.3814">
        <ele>221.4</ele>
        <time>2017-10-01T07:29:59Z</time>
      </trkpt>
      <trkpt lat="43.58374" lon="3.38149">
        <ele>221.7</ele>
        <time>2017-10-01T07:30:01Z</time>
      </trkpt>
      <trkpt lat="43.5838" lon="3.38158">
        <ele>221.9</ele>
        <time>2017-10-01T07:30:04Z</time>
      </trkpt>
      <trkpt lat="43.58386" lon="3.38167">
        <ele>222.2</ele>
        <time>2017-10-01T07:30:07Z</time>
      </trkpt>
      <trkpt lat="43.58392" lon="3.38175">
        <ele>222.4</ele>
        <time>2017-10-01T07:30:10Z</time>
      </trkpt>
      <trkpt lat="43.58397" lon="3.38183">
        <ele>222.7</ele>
        <time>2017-10-01T07:30:13Z</time>
      </trkpt>
      <trkpt lat="43.58404" lon="3.3819">
        <ele>223</ele>
        <time>2017-10-01T07:30:16Z</time>
      </trkpt>
      <trkpt lat="43.58406" lon="3.38201">
        <ele>223.3</ele>
        <time>2017-10-01T07:30:19Z</time>
      </trkpt>
      <trkpt lat="43.58404" lon="3.38211">
        <ele>224.2</ele>
        <time>2017-10-01T07:30:25Z</time>
      </trkpt>
      <trkpt lat="43.58404" lon="3.38223">
        <ele>225.1</ele>
        <time>2017-10-01T07:30:30Z</time>
      </trkpt>
      <trkpt lat="43.58407" lon="3.38233">
        <ele>226.1</ele>
        <time>2017-10-01T07:30:34Z</time>
      </trkpt>
      <trkpt lat="43.58412" lon="3.38243">
        <ele>227.1</ele>
        <time>2017-10-01T07:30:38Z</time>
      </trkpt>
      <trkpt lat="43.58417" lon="3.38251">
        <ele>228.1</ele>
        <time>2017-10-01T07:30:42Z</time>
      </trkpt>
      <trkpt lat="43.5842" lon="3.38263">
        <ele>229</ele>
        <time>2017-10-01T07:30:46Z</time>
      </trkpt>
      <trkpt lat="43.58424" lon="3.38275">
        <ele>230.1</ele>
        <time>2017-10-01T07:30:51Z</time>
      </trkpt>
      <trkpt lat="43.58426" lon="3.38285">
        <ele>231</ele>
        <time>2017-10-01T07:30:55Z</time>
      </trkpt>
      <trkpt lat="43.58428" lon="3.38295">
        <ele>232</ele>
        <time>2017-10-01T07:31:00Z</time>
      </trkpt>
      <trkpt lat="43.58429" lon="3.38305">
        <ele>233.1</ele>
        <time>2017-10-01T07:31:05Z</time>
      </trkpt>
      <trkpt lat="43.58431" lon="3.38316">
        <ele>234.2</ele>
        <time>2017-10-01T07:31:10Z</time>
      </trkpt>
      <trkpt lat="43.58431" lon="3.38328">
        <ele>235.3</ele>
        <time>2017-10-01T07:31:15Z</time>
      </trkpt>
      <trkpt lat="43.58431" lon="3.38341">
        <ele>236.5</ele>
        <time>2017-10-01T07:31:20Z</time>
      </trkpt>
      <trkpt lat="43.58432" lon="3.38352">
        <ele>237.4</ele>
        <time>2017-10-01T07:31:24Z</time>
      </trkpt>
      <trkpt lat="43.58433" lon="3.38363">
        <ele>238.3</ele>
        <time>2017-10-01T07:31:28Z</time>
      </trkpt>
      <trkpt lat="43.58434" lon="3.38375">
        <ele>239.2</ele>
        <time>2017-10-01T07:31:32Z</time>
      </trkpt>
      <trkpt lat="43.58434" lon="3.38387">
        <ele>240.1</ele>
        <time>2017-10-01T07:31:36Z</time>
      </trkpt>
      <trkpt lat="43.58434" lon="3.38398">
        <ele>241.1</ele>
        <time>2017-10-01T07:31:40Z</time>
      </trkpt>
      <trkpt lat="43.58434" lon="3.38409">
        <ele>242</ele>
        <time>2017-10-01T07:31:44Z</time>
      </trkpt>
      <trkpt lat="43.58433" lon="3.3842">
        <ele>242.8</ele>
        <time>2017-10-01T07:31:48Z</time>
      </trkpt>
      <trkpt lat="43.58429" lon="3.38432">
        <ele>243.7</ele>
        <time>2017-10-01T07:31:53Z</time>
      </trkpt>
      <trkpt lat="43.58427" lon="3.38443">
        <ele>244.5</ele>
        <time>2017-10-01T07:31:58Z</time>
      </trkpt>
      <trkpt lat="43.58431" lon="3.38452">
        <ele>245.2</ele>
        <time>2017-10-01T07:32:02Z</time>
      </trkpt>
      <trkpt lat="43.58438" lon="3.38457">
        <ele>245.9</ele>
        <time>2017-10-01T07:32:06Z</time>
      </trkpt>
      <trkpt lat="43.58448" lon="3.38463">
        <ele>246.4</ele>
        <time>2017-10-01T07:32:09Z</time>
      </trkpt>
      <trkpt lat="43.58455" lon="3.38466">
        <ele>246.5</ele>
        <time>2017-10-01T07:32:11Z</time>
      </trkpt>
      <trkpt lat="43.58462" lon="3.38471">
        <ele>246.7</ele>
        <time>2017-10-01T07:32:13Z</time>
      </trkpt>
      <trkpt lat="43.58469" lon="3.38476">
        <ele>246.8</ele>
        <time>2017-10-01T07:32:15Z</time>
      </trkpt>
      <trkpt lat="43.58475" lon="3.38482">
        <ele>246.8</ele>
        <time>2017-10-01T07:32:17Z</time>
      </trkpt>
      <trkpt lat="43.5848" lon="3.38491">
        <ele>246.8</ele>
        <time>2017-10-01T07:32:19Z</time>
      </trkpt>
      <trkpt lat="43.58487" lon="3.38503">
        <ele>246.7</ele>
        <time>2017-10-01T07:32:21Z</time>
      </trkpt>
      <trkpt lat="43.58489" lon="3.38516">
        <ele>246.4</ele>
        <time>2017-10-01T07:32:23Z</time>
      </trkpt>
      <trkpt lat="43.58491" lon="3.38529">
        <ele>246</ele>
        <time>2017-10-01T07:32:25Z</time>
      </trkpt>
      <trkpt lat="43.58492" lon="3.3854">
        <ele>245.5</ele>
        <time>2017-10-01T07:32:27Z</time>
      </trkpt>
      <trkpt lat="43.58492" lon="3.38551">
        <ele>245.2</ele>
        <time>2017-10-01T07:32:29Z</time>
      </trkpt>
      <trkpt lat="43.58493" lon="3.38563">
        <ele>244.8</ele>
        <time>2017-10-01T07:32:31Z</time>
      </trkpt>
      <trkpt lat="43.58495" lon="3.38575">
        <ele>244.7</ele>
        <time>2017-10-01T07:32:33Z</time>
      </trkpt>
      <trkpt lat="43.58498" lon="3.38589">
        <ele>244.6</ele>
        <time>2017-10-01T07:32:36Z</time>
      </trkpt>
      <trkpt lat="43.585" lon="3.38602">
        <ele>244.6</ele>
        <time>2017-10-01T07:32:39Z</time>
      </trkpt>
      <trkpt lat="43.58502" lon="3.38614">
        <ele>244.5</ele>
        <time>2017-10-01T07:32:42Z</time>
      </trkpt>
      <trkpt lat="43.58502" lon="3.38626">
        <ele>244.5</ele>
        <time>2017-10-01T07:32:45Z</time>
      </trkpt>
      <trkpt lat="43.58503" lon="3.38638">
        <ele>244.5</ele>
        <time>2017-10-01T07:32:48Z</time>
      </trkpt>
      <trkpt lat="43.58503" lon="3.3865">
        <ele>244.6</ele>
        <time>2017-10-01T07:32:51Z</time>
      </trkpt>
      <trkpt lat="43.58506" lon="3.38662">
        <ele>244.7</ele>
        <time>2017-10-01T07:32:54Z</time>
      </trkpt>
      <trkpt lat="43.58508" lon="3.38673">
        <ele>244.9</ele>
        <time>2017-10-01T07:32:58Z</time>
      </trkpt>
      <trkpt lat="43.58509" lon="3.38686">
        <ele>245.1</ele>
        <time>2017-10-01T07:33:02Z</time>
      </trkpt>
      <trkpt lat="43.58511" lon="3.38696">
        <ele>245.2</ele>
        <time>2017-10-01T07:33:05Z</time>
      </trkpt>
      <trkpt lat="43.58514" lon="3.38705">
        <ele>245.4</ele>
        <time>2017-10-01T07:33:08Z</time>
      </trkpt>
      <trkpt lat="43.58516" lon="3.38716">
        <ele>245.7</ele>
        <time>2017-10-01T07:33:12Z</time>
      </trkpt>
      <trkpt lat="43.58516" lon="3.38726">
        <ele>246.1</ele>
        <time>2017-10-01T07:33:16Z</time>
      </trkpt>
      <trkpt lat="43.58515" lon="3.38738">
        <ele>246.7</ele>
        <time>2017-10-01T07:33:21Z</time>
      </trkpt>
      <trkpt lat="43.58515" lon="3.3875">
        <ele>247.4</ele>
        <time>2017-10-01T07:33:26Z</time>
      </trkpt>
      <trkpt lat="43.58515" lon="3.3876">
        <ele>248.1</ele>
        <time>2017-10-01T07:33:30Z</time>
      </trkpt>
      <trkpt lat="43.58515" lon="3.3877">
        <ele>248.8</ele>
        <time>2017-10-01T07:33:34Z</time>
      </trkpt>
      <trkpt lat="43.58515" lon="3.38783">
        <ele>249.6</ele>
        <time>2017-10-01T07:33:39Z</time>
      </trkpt>
      <trkpt lat="43.58513" lon="3.38793">
        <ele>250.3</ele>
        <time>2017-10-01T07:33:43Z</time>
      </trkpt>
      <trkpt lat="43.58511" lon="3.38806">
        <ele>250.8</ele>
        <time>2017-10-01T07:33:47Z</time>
      </trkpt>
      <trkpt lat="43.5851" lon="3.38816">
        <ele>251.4</ele>
        <time>2017-10-01T07:33:52Z</time>
      </trkpt>
      <trkpt lat="43.5851" lon="3.38826">
        <ele>251.8</ele>
        <time>2017-10-01T07:33:56Z</time>
      </trkpt>
      <trkpt lat="43.58509" lon="3.38838">
        <ele>252.3</ele>
        <time>2017-10-01T07:34:01Z</time>
      </trkpt>
      <trkpt lat="43.58508" lon="3.38849">
        <ele>252.7</ele>
        <time>2017-10-01T07:34:05Z</time>
      </trkpt>
      <trkpt lat="43.58506" lon="3.38859">
        <ele>253.2</ele>
        <time>2017-10-01T07:34:09Z</time>
      </trkpt>
      <trkpt lat="43.58504" lon="3.3887">
        <ele>253.8</ele>
        <time>2017-10-01T07:34:13Z</time>
      </trkpt>
      <trkpt lat="43.58503" lon="3.38881">
        <ele>254.3</ele>
        <time>2017-10-01T07:34:17Z</time>
      </trkpt>
      <trkpt lat="43.58497" lon="3.38893">
        <ele>254.7</ele>
        <time>2017-10-01T07:34:21Z</time>
      </trkpt>
      <trkpt lat="43.5849" lon="3.38901">
        <ele>254.9</ele>
        <time>2017-10-01T07:34:25Z</time>
      </trkpt>
      <trkpt lat="43.58482" lon="3.38907">
        <ele>255</ele>
        <time>2017-10-01T07:34:29Z</time>
      </trkpt>
      <trkpt lat="43.58475" lon="3.38915">
        <ele>255.1</ele>
        <time>2017-10-01T07:34:33Z</time>
      </trkpt>
      <trkpt lat="43.5847" lon="3.38923">
        <ele>255.4</ele>
        <time>2017-10-01T07:34:37Z</time>
      </trkpt>
      <trkpt lat="43.58465" lon="3.38935">
        <ele>255.7</ele>
        <time>2017-10-01T07:34:41Z</time>
      </trkpt>
      <trkpt lat="43.58463" lon="3.38944">
        <ele>256.1</ele>
        <time>2017-10-01T07:34:45Z</time>
      </trkpt>
      <trkpt lat="43.58461" lon="3.38956">
        <ele>256.5</ele>
        <time>2017-10-01T07:34:49Z</time>
      </trkpt>
      <trkpt lat="43.58457" lon="3.38965">
        <ele>257.1</ele>
        <time>2017-10-01T07:34:53Z</time>
      </trkpt>
      <trkpt lat="43.58454" lon="3.38976">
        <ele>257.6</ele>
        <time>2017-10-01T07:34:57Z</time>
      </trkpt>
      <trkpt lat="43.58451" lon="3.38986">
        <ele>258</ele>
        <time>2017-10-01T07:35:01Z</time>
      </trkpt>
      <trkpt lat="43.58449" lon="3.38996">
        <ele>258.4</ele>
        <time>2017-10-01T07:35:05Z</time>
      </trkpt>
      <trkpt lat="43.58449" lon="3.39006">
        <ele>258.8</ele>
        <time>2017-10-01T07:35:09Z</time>
      </trkpt>
      <trkpt lat="43.58447" lon="3.39018">
        <ele>259.6</ele>
        <time>2017-10-01T07:35:14Z</time>
      </trkpt>
      <trkpt lat="43.58444" lon="3.39029">
        <ele>260.3</ele>
        <time>2017-10-01T07:35:18Z</time>
      </trkpt>
      <trkpt lat="43.58441" lon="3.3904">
        <ele>260.9</ele>
        <time>2017-10-01T07:35:22Z</time>
      </trkpt>
      <trkpt lat="43.58437" lon="3.3905">
        <ele>261.4</ele>
        <time>2017-10-01T07:35:26Z</time>
      </trkpt>
      <trkpt lat="43.58434" lon="3.39061">
        <ele>262.2</ele>
        <time>2017-10-01T07:35:31Z</time>
      </trkpt>
      <trkpt lat="43.58429" lon="3.3907">
        <ele>262.9</ele>
        <time>2017-10-01T07:35:36Z</time>
      </trkpt>
      <trkpt lat="43.58424" lon="3.39078">
        <ele>263.5</ele>
        <time>2017-10-01T07:35:40Z</time>
      </trkpt>
      <trkpt lat="43.58419" lon="3.39089">
        <ele>264.1</ele>
        <time>2017-10-01T07:35:44Z</time>
      </trkpt>
      <trkpt lat="43.58419" lon="3.39101">
        <ele>264.6</ele>
        <time>2017-10-01T07:35:48Z</time>
      </trkpt>
      <trkpt lat="43.58419" lon="3.39111">
        <ele>265.2</ele>
        <time>2017-10-01T07:35:52Z</time>
      </trkpt>
      <trkpt lat="43.58417" lon="3.39121">
        <ele>265.7</ele>
        <time>2017-10-01T07:35:56Z</time>
      </trkpt>
      <trkpt lat="43.58413" lon="3.39132">
        <ele>266.1</ele>
        <time>2017-10-01T07:36:00Z</time>
      </trkpt>
      <trkpt lat="43.58407" lon="3.39142">
        <ele>266.6</ele>
        <time>2017-10-01T07:36:04Z</time>
      </trkpt>
      <trkpt lat="43.58404" lon="3.39152">
        <ele>267.2</ele>
        <time>2017-10-01T07:36:09Z</time>
      </trkpt>
      <trkpt lat="43.584" lon="3.39161">
        <ele>267.8</ele>
        <time>2017-10-01T07:36:12Z</time>
      </trkpt>
      <trkpt lat="43.58396" lon="3.3917">
        <ele>268.4</ele>
        <time>2017-10-01T07:36:16Z</time>
      </trkpt>
      <trkpt lat="43.58393" lon="3.39181">
        <ele>269</ele>
        <time>2017-10-01T07:36:20Z</time>
      </trkpt>
      <trkpt lat="43.58389" lon="3.3919">
        <ele>269.4</ele>
        <time>2017-10-01T07:36:23Z</time>
      </trkpt>
      <trkpt lat="43.58385" lon="3.39199">
        <ele>269.9</ele>
        <time>2017-10-01T07:36:26Z</time>
      </trkpt>
      <trkpt lat="43.58378" lon="3.39208">
        <ele>270.5</ele>
        <time>2017-10-01T07:36:30Z</time>
      </trkpt>
      <trkpt lat="43.58371" lon="3.39216">
        <ele>271.2</ele>
        <time>2017-10-01T07:36:34Z</time>
      </trkpt>
      <trkpt lat="43.58365" lon="3.39223">
        <ele>271.8</ele>
        <time>2017-10-01T07:36:38Z</time>
      </trkpt>
      <trkpt lat="43.58359" lon="3.39229">
        <ele>272.5</ele>
        <time>2017-10-01T07:36:42Z</time>
      </trkpt>
      <trkpt lat="43.58351" lon="3.39237">
        <ele>273.1</ele>
        <time>2017-10-01T07:36:46Z</time>
      </trkpt>
      <trkpt lat="43.58345" lon="3.39245">
        <ele>273.6</ele>
        <time>2017-10-01T07:36:50Z</time>
      </trkpt>
      <trkpt lat="43.58338" lon="3.39253">
        <ele>274.1</ele>
        <time>2017-10-01T07:36:54Z</time>
      </trkpt>
      <trkpt lat="43.58332" lon="3.39262">
        <ele>274.5</ele>
        <time>2017-10-01T07:36:58Z</time>
      </trkpt>
      <trkpt lat="43.58327" lon="3.39271">
        <ele>275.1</ele>
        <time>2017-10-01T07:37:02Z</time>
      </trkpt>
      <trkpt lat="43.5832" lon="3.39281">
        <ele>275.8</ele>
        <time>2017-10-01T07:37:06Z</time>
      </trkpt>
      <trkpt lat="43.58314" lon="3.3929">
        <ele>276.6</ele>
        <time>2017-10-01T07:37:10Z</time>
      </trkpt>
      <trkpt lat="43.58309" lon="3.393">
        <ele>277.4</ele>
        <time>2017-10-01T07:37:14Z</time>
      </trkpt>
      <trkpt lat="43.58306" lon="3.39312">
        <ele>278.2</ele>
        <time>2017-10-01T07:37:18Z</time>
      </trkpt>
      <trkpt lat="43.58304" lon="3.39322">
        <ele>278.9</ele>
        <time>2017-10-01T07:37:22Z</time>
      </trkpt>
      <trkpt lat="43.58303" lon="3.39335">
        <ele>280</ele>
        <time>2017-10-01T07:37:27Z</time>
      </trkpt>
      <trkpt lat="43.58296" lon="3.39346">
        <ele>280.9</ele>
        <time>2017-10-01T07:37:31Z</time>
      </trkpt>
      <trkpt lat="43.5829" lon="3.39355">
        <ele>281.7</ele>
        <time>2017-10-01T07:37:35Z</time>
      </trkpt>
      <trkpt lat="43.58285" lon="3.39366">
        <ele>282.4</ele>
        <time>2017-10-01T07:37:40Z</time>
      </trkpt>
      <trkpt lat="43.58288" lon="3.39375">
        <ele>283.2</ele>
        <time>2017-10-01T07:37:45Z</time>
      </trkpt>
      <trkpt lat="43.58296" lon="3.3938">
        <ele>283.9</ele>
        <time>2017-10-01T07:37:49Z</time>
      </trkpt>
      <trkpt lat="43.58303" lon="3.39386">
        <ele>284.5</ele>
        <time>2017-10-01T07:37:53Z</time>
      </trkpt>
      <trkpt lat="43.5831" lon="3.39391">
        <ele>285.1</ele>
        <time>2017-10-01T07:37:57Z</time>
      </trkpt>
      <trkpt lat="43.58317" lon="3.39399">
        <ele>285.7</ele>
        <time>2017-10-01T07:38:01Z</time>
      </trkpt>
      <trkpt lat="43.58321" lon="3.39407">
        <ele>286.2</ele>
        <time>2017-10-01T07:38:06Z</time>
      </trkpt>
      <trkpt lat="43.58328" lon="3.39414">
        <ele>286.9</ele>
        <time>2017-10-01T07:38:13Z</time>
      </trkpt>
      <trkpt lat="43.58334" lon="3.39418">
        <ele>287.2</ele>
        <time>2017-10-01T07:38:18Z</time>
      </trkpt>
      <trkpt lat="43.5834" lon="3.39424">
        <ele>287.5</ele>
        <time>2017-10-01T07:38:22Z</time>
      </trkpt>
      <trkpt lat="43.58347" lon="3.39429">
        <ele>287.6</ele>
        <time>2017-10-01T07:38:25Z</time>
      </trkpt>
      <trkpt lat="43.58351" lon="3.39437">
        <ele>287.7</ele>
        <time>2017-10-01T07:38:29Z</time>
      </trkpt>
      <trkpt lat="43.58357" lon="3.39447">
        <ele>287.7</ele>
        <time>2017-10-01T07:38:34Z</time>
      </trkpt>
      <trkpt lat="43.58361" lon="3.39458">
        <ele>288.1</ele>
        <time>2017-10-01T07:38:40Z</time>
      </trkpt>
      <trkpt lat="43.58363" lon="3.39468">
        <ele>289</ele>
        <time>2017-10-01T07:38:45Z</time>
      </trkpt>
      <trkpt lat="43.58364" lon="3.39479">
        <ele>290.1</ele>
        <time>2017-10-01T07:38:50Z</time>
      </trkpt>
      <trkpt lat="43.58366" lon="3.39489">
        <ele>291.1</ele>
        <time>2017-10-01T07:38:54Z</time>
      </trkpt>
      <trkpt lat="43.58367" lon="3.39501">
        <ele>292.4</ele>
        <time>2017-10-01T07:38:59Z</time>
      </trkpt>
      <trkpt lat="43.58371" lon="3.39511">
        <ele>293.1</ele>
        <time>2017-10-01T07:39:02Z</time>
      </trkpt>
      <trkpt lat="43.58375" lon="3.3952">
        <ele>293.7</ele>
        <time>2017-10-01T07:39:06Z</time>
      </trkpt>
      <trkpt lat="43.5838" lon="3.3953">
        <ele>294.6</ele>
        <time>2017-10-01T07:39:11Z</time>
      </trkpt>
      <trkpt lat="43.58384" lon="3.39542">
        <ele>295.6</ele>
        <time>2017-10-01T07:39:17Z</time>
      </trkpt>
      <trkpt lat="43.58388" lon="3.39551">
        <ele>296.2</ele>
        <time>2017-10-01T07:39:21Z</time>
      </trkpt>
      <trkpt lat="43.58392" lon="3.3956">
        <ele>296.9</ele>
        <time>2017-10-01T07:39:27Z</time>
      </trkpt>
      <trkpt lat="43.58394" lon="3.39571">
        <ele>297.6</ele>
        <time>2017-10-01T07:39:32Z</time>
      </trkpt>
      <trkpt lat="43.58393" lon="3.39583">
        <ele>298.2</ele>
        <time>2017-10-01T07:39:37Z</time>
      </trkpt>
      <trkpt lat="43.58389" lon="3.39592">
        <ele>298.9</ele>
        <time>2017-10-01T07:39:42Z</time>
      </trkpt>
      <trkpt lat="43.58382" lon="3.39598">
        <ele>299.8</ele>
        <time>2017-10-01T07:39:48Z</time>
      </trkpt>
      <trkpt lat="43.58375" lon="3.39605">
        <ele>300.5</ele>
        <time>2017-10-01T07:39:52Z</time>
      </trkpt>
      <trkpt lat="43.5837" lon="3.39614">
        <ele>301.4</ele>
        <time>2017-10-01T07:39:57Z</time>
      </trkpt>
      <trkpt lat="43.58368" lon="3.39625">
        <ele>302.3</ele>
        <time>2017-10-01T07:40:02Z</time>
      </trkpt>
      <trkpt lat="43.58367" lon="3.39634">
        <ele>302.9</ele>
        <time>2017-10-01T07:40:06Z</time>
      </trkpt>
      <trkpt lat="43.58367" lon="3.39645">
        <ele>303.7</ele>
        <time>2017-10-01T07:40:11Z</time>
      </trkpt>
      <trkpt lat="43.58368" lon="3.39656">
        <ele>304.2</ele>
        <time>2017-10-01T07:40:15Z</time>
      </trkpt>
      <trkpt lat="43.58371" lon="3.39668">
        <ele>304.7</ele>
        <time>2017-10-01T07:40:19Z</time>
      </trkpt>
      <trkpt lat="43.58372" lon="3.39677">
        <ele>305.2</ele>
        <time>2017-10-01T07:40:23Z</time>
      </trkpt>
      <trkpt lat="43.58373" lon="3.39688">
        <ele>305.7</ele>
        <time>2017-10-01T07:40:27Z</time>
      </trkpt>
      <trkpt lat="43.58374" lon="3.39699">
        <ele>306.3</ele>
        <time>2017-10-01T07:40:32Z</time>
      </trkpt>
      <trkpt lat="43.58374" lon="3.39709">
        <ele>306.9</ele>
        <time>2017-10-01T07:40:37Z</time>
      </trkpt>
      <trkpt lat="43.58373" lon="3.3972">
        <ele>307.7</ele>
        <time>2017-10-01T07:40:42Z</time>
      </trkpt>
      <trkpt lat="43.58373" lon="3.39733">
        <ele>308.4</ele>
        <time>2017-10-01T07:40:47Z</time>
      </trkpt>
      <trkpt lat="43.58375" lon="3.39745">
        <ele>309.3</ele>
        <time>2017-10-01T07:40:52Z</time>
      </trkpt>
      <trkpt lat="43.58379" lon="3.39754">
        <ele>310</ele>
        <time>2017-10-01T07:40:56Z</time>
      </trkpt>
      <trkpt lat="43.58384" lon="3.39762">
        <ele>310.7</ele>
        <time>2017-10-01T07:41:01Z</time>
      </trkpt>
      <trkpt lat="43.58389" lon="3.39768">
        <ele>311.4</ele>
        <time>2017-10-01T07:41:06Z</time>
      </trkpt>
      <trkpt lat="43.58396" lon="3.39773">
        <ele>311.8</ele>
        <time>2017-10-01T07:41:10Z</time>
      </trkpt>
      <trkpt lat="43.58404" lon="3.39779">
        <ele>312.5</ele>
        <time>2017-10-01T07:41:16Z</time>
      </trkpt>
      <trkpt lat="43.58411" lon="3.39784">
        <ele>312.8</ele>
        <time>2017-10-01T07:41:20Z</time>
      </trkpt>
      <trkpt lat="43.58417" lon="3.3979">
        <ele>313.4</ele>
        <time>2017-10-01T07:41:26Z</time>
      </trkpt>
      <trkpt lat="43.58424" lon="3.39795">
        <ele>313.9</ele>
        <time>2017-10-01T07:41:31Z</time>
      </trkpt>
      <trkpt lat="43.5843" lon="3.39801">
        <ele>314.6</ele>
        <time>2017-10-01T07:41:38Z</time>
      </trkpt>
      <trkpt lat="43.58436" lon="3.39802">
        <ele>315.3</ele>
        <time>2017-10-01T07:41:45Z</time>
      </trkpt>
      <trkpt lat="43.58445" lon="3.39803">
        <ele>315.6</ele>
        <time>2017-10-01T07:41:48Z</time>
      </trkpt>
      <trkpt lat="43.58452" lon="3.39808">
        <ele>316.3</ele>
        <time>2017-10-01T07:41:53Z</time>
      </trkpt>
      <trkpt lat="43.58461" lon="3.3981">
        <ele>317</ele>
        <time>2017-10-01T07:41:58Z</time>
      </trkpt>
      <trkpt lat="43.5847" lon="3.39814">
        <ele>317.6</ele>
        <time>2017-10-01T07:42:04Z</time>
      </trkpt>
      <trkpt lat="43.58477" lon="3.39816">
        <ele>318</ele>
        <time>2017-10-01T07:42:08Z</time>
      </trkpt>
      <trkpt lat="43.58485" lon="3.3982">
        <ele>318.5</ele>
        <time>2017-10-01T07:42:14Z</time>
      </trkpt>
      <trkpt lat="43.58493" lon="3.39825">
        <ele>319</ele>
        <time>2017-10-01T07:42:19Z</time>
      </trkpt>
      <trkpt lat="43.585" lon="3.39829">
        <ele>319.4</ele>
        <time>2017-10-01T07:42:24Z</time>
      </trkpt>
      <trkpt lat="43.58508" lon="3.39829">
        <ele>319.6</ele>
        <time>2017-10-01T07:42:27Z</time>
      </trkpt>
      <trkpt lat="43.58514" lon="3.39824">
        <ele>319.8</ele>
        <time>2017-10-01T07:42:32Z</time>
      </trkpt>
      <trkpt lat="43.58523" lon="3.39822">
        <ele>320.2</ele>
        <time>2017-10-01T07:42:36Z</time>
      </trkpt>
      <trkpt lat="43.5853" lon="3.3982">
        <ele>320.9</ele>
        <time>2017-10-01T07:42:41Z</time>
      </trkpt>
      <trkpt lat="43.58538" lon="3.39818">
        <ele>322.1</ele>
        <time>2017-10-01T07:42:47Z</time>
      </trkpt>
      <trkpt lat="43.58545" lon="3.39819">
        <ele>323</ele>
        <time>2017-10-01T07:42:51Z</time>
      </trkpt>
      <trkpt lat="43.58553" lon="3.39822">
        <ele>323.6</ele>
        <time>2017-10-01T07:42:54Z</time>
      </trkpt>
      <trkpt lat="43.58561" lon="3.3982">
        <ele>324.3</ele>
        <time>2017-10-01T07:42:59Z</time>
      </trkpt>
      <trkpt lat="43.58569" lon="3.3982">
        <ele>324.7</ele>
        <time>2017-10-01T07:43:03Z</time>
      </trkpt>
      <trkpt lat="43.58578" lon="3.39821">
        <ele>325.2</ele>
        <time>2017-10-01T07:43:07Z</time>
      </trkpt>
      <trkpt lat="43.58586" lon="3.39822">
        <ele>325.7</ele>
        <time>2017-10-01T07:43:12Z</time>
      </trkpt>
      <trkpt lat="43.58595" lon="3.39823">
        <ele>326.2</ele>
        <time>2017-10-01T07:43:16Z</time>
      </trkpt>
      <trkpt lat="43.58603" lon="3.39825">
        <ele>326.6</ele>
        <time>2017-10-01T07:43:21Z</time>
      </trkpt>
      <trkpt lat="43.5861" lon="3.39827">
        <ele>327</ele>
        <time>2017-10-01T07:43:25Z</time>
      </trkpt>
      <trkpt lat="43.5862" lon="3.3983">
        <ele>327.2</ele>
        <time>2017-10-01T07:43:29Z</time>
      </trkpt>
      <trkpt lat="43.58627" lon="3.3983">
        <ele>327.7</ele>
        <time>2017-10-01T07:43:34Z</time>
      </trkpt>
      <trkpt lat="43.58635" lon="3.39831">
        <ele>328.3</ele>
        <time>2017-10-01T07:43:39Z</time>
      </trkpt>
      <trkpt lat="43.58643" lon="3.39831">
        <ele>328.7</ele>
        <time>2017-10-01T07:43:44Z</time>
      </trkpt>
      <trkpt lat="43.58652" lon="3.39833">
        <ele>329.1</ele>
        <time>2017-10-01T07:43:49Z</time>
      </trkpt>
      <trkpt lat="43.58659" lon="3.39836">
        <ele>329.4</ele>
        <time>2017-10-01T07:43:52Z</time>
      </trkpt>
      <trkpt lat="43.58667" lon="3.39837">
        <ele>329.5</ele>
        <time>2017-10-01T07:43:56Z</time>
      </trkpt>
      <trkpt lat="43.58675" lon="3.39839">
        <ele>329.7</ele>
        <time>2017-10-01T07:44:03Z</time>
      </trkpt>
      <trkpt lat="43.58682" lon="3.39838">
        <ele>329.8</ele>
        <time>2017-10-01T07:44:07Z</time>
      </trkpt>
      <trkpt lat="43.58689" lon="3.39836">
        <ele>330.3</ele>
        <time>2017-10-01T07:44:14Z</time>
      </trkpt>
      <trkpt lat="43.58697" lon="3.39835">
        <ele>330.7</ele>
        <time>2017-10-01T07:44:18Z</time>
      </trkpt>
      <trkpt lat="43.58705" lon="3.39836">
        <ele>331</ele>
        <time>2017-10-01T07:44:22Z</time>
      </trkpt>
      <trkpt lat="43.58713" lon="3.39837">
        <ele>331.3</ele>
        <time>2017-10-01T07:44:27Z</time>
      </trkpt>
      <trkpt lat="43.5872" lon="3.39838">
        <ele>331.8</ele>
        <time>2017-10-01T07:44:33Z</time>
      </trkpt>
      <trkpt lat="43.58729" lon="3.39838">
        <ele>332.3</ele>
        <time>2017-10-01T07:44:38Z</time>
      </trkpt>
      <trkpt lat="43.58737" lon="3.39838">
        <ele>332.9</ele>
        <time>2017-10-01T07:44:44Z</time>
      </trkpt>
      <trkpt lat="43.58745" lon="3.39839">
        <ele>333.6</ele>
        <time>2017-10-01T07:44:49Z</time>
      </trkpt>
      <trkpt lat="43.58753" lon="3.39839">
        <ele>334</ele>
        <time>2017-10-01T07:44:54Z</time>
      </trkpt>
      <trkpt lat="43.58762" lon="3.39839">
        <ele>334.2</ele>
        <time>2017-10-01T07:44:59Z</time>
      </trkpt>
      <trkpt lat="43.58771" lon="3.39839">
        <ele>334.3</ele>
        <time>2017-10-01T07:45:04Z</time>
      </trkpt>
      <trkpt lat="43.5878" lon="3.39839">
        <ele>334.4</ele>
        <time>2017-10-01T07:45:09Z</time>
      </trkpt>
      <trkpt lat="43.58788" lon="3.39839">
        <ele>334.5</ele>
        <time>2017-10-01T07:45:14Z</time>
      </trkpt>
      <trkpt lat="43.58797" lon="3.39839">
        <ele>334.5</ele>
        <time>2017-10-01T07:45:18Z</time>
      </trkpt>
      <trkpt lat="43.58804" lon="3.39839">
        <ele>334.4</ele>
        <time>2017-10-01T07:45:22Z</time>
      </trkpt>
      <trkpt lat="43.58813" lon="3.39839">
        <ele>334.3</ele>
        <time>2017-10-01T07:45:27Z</time>
      </trkpt>
      <trkpt lat="43.5882" lon="3.39839">
        <ele>334.4</ele>
        <time>2017-10-01T07:45:32Z</time>
      </trkpt>
      <trkpt lat="43.58828" lon="3.39837">
        <ele>334.4</ele>
        <time>2017-10-01T07:45:36Z</time>
      </trkpt>
      <trkpt lat="43.58835" lon="3.39837">
        <ele>334.5</ele>
        <time>2017-10-01T07:45:40Z</time>
      </trkpt>
      <trkpt lat="43.58844" lon="3.39835">
        <ele>334.6</ele>
        <time>2017-10-01T07:45:44Z</time>
      </trkpt>
      <trkpt lat="43.58852" lon="3.39835">
        <ele>334.6</ele>
        <time>2017-10-01T07:45:48Z</time>
      </trkpt>
      <trkpt lat="43.58861" lon="3.39833">
        <ele>334.7</ele>
        <time>2017-10-01T07:45:52Z</time>
      </trkpt>
      <trkpt lat="43.5887" lon="3.3983">
        <ele>334.7</ele>
        <time>2017-10-01T07:45:56Z</time>
      </trkpt>
      <trkpt lat="43.58879" lon="3.39828">
        <ele>334.8</ele>
        <time>2017-10-01T07:46:00Z</time>
      </trkpt>
      <trkpt lat="43.58887" lon="3.39823">
        <ele>334.7</ele>
        <time>2017-10-01T07:46:04Z</time>
      </trkpt>
      <trkpt lat="43.58895" lon="3.3982">
        <ele>334.7</ele>
        <time>2017-10-01T07:46:08Z</time>
      </trkpt>
      <trkpt lat="43.58904" lon="3.39816">
        <ele>334.7</ele>
        <time>2017-10-01T07:46:12Z</time>
      </trkpt>
      <trkpt lat="43.58912" lon="3.39812">
        <ele>334.8</ele>
        <time>2017-10-01T07:46:16Z</time>
      </trkpt>
      <trkpt lat="43.58921" lon="3.39809">
        <ele>334.9</ele>
        <time>2017-10-01T07:46:20Z</time>
      </trkpt>
      <trkpt lat="43.58929" lon="3.39808">
        <ele>334.9</ele>
        <time>2017-10-01T07:46:23Z</time>
      </trkpt>
      <trkpt lat="43.58938" lon="3.39807">
        <ele>335</ele>
        <time>2017-10-01T07:46:27Z</time>
      </trkpt>
      <trkpt lat="43.58947" lon="3.39807">
        <ele>335</ele>
        <time>2017-10-01T07:46:31Z</time>
      </trkpt>
      <trkpt lat="43.58956" lon="3.39808">
        <ele>335.1</ele>
        <time>2017-10-01T07:46:35Z</time>
      </trkpt>
      <trkpt lat="43.58964" lon="3.39808">
        <ele>335.3</ele>
        <time>2017-10-01T07:46:39Z</time>
      </trkpt>
      <trkpt lat="43.58972" lon="3.39809">
        <ele>335.5</ele>
        <time>2017-10-01T07:46:43Z</time>
      </trkpt>
      <trkpt lat="43.5898" lon="3.39815">
        <ele>335.8</ele>
        <time>2017-10-01T07:46:47Z</time>
      </trkpt>
      <trkpt lat="43.58986" lon="3.39825">
        <ele>336</ele>
        <time>2017-10-01T07:46:52Z</time>
      </trkpt>
      <trkpt lat="43.58985" lon="3.39838">
        <ele>336.2</ele>
        <time>2017-10-01T07:46:56Z</time>
      </trkpt>
      <trkpt lat="43.58978" lon="3.39841">
        <ele>336</ele>
        <time>2017-10-01T07:47:00Z</time>
      </trkpt>
      <trkpt lat="43.5897" lon="3.39835">
        <ele>335.8</ele>
        <time>2017-10-01T07:47:03Z</time>
      </trkpt>
      <trkpt lat="43.58966" lon="3.39823">
        <ele>335.6</ele>
        <time>2017-10-01T07:47:07Z</time>
      </trkpt>
      <trkpt lat="43.58969" lon="3.39812">
        <ele>335.3</ele>
        <time>2017-10-01T07:47:11Z</time>
      </trkpt>
      <trkpt lat="43.58977" lon="3.3981">
        <ele>335.2</ele>
        <time>2017-10-01T07:47:14Z</time>
      </trkpt>
      <trkpt lat="43.58984" lon="3.39819">
        <ele>335.2</ele>
        <time>2017-10-01T07:47:20Z</time>
      </trkpt>
      <trkpt lat="43.58985" lon="3.39829">
        <ele>335.5</ele>
        <time>2017-10-01T07:47:24Z</time>
      </trkpt>
      <trkpt lat="43.58982" lon="3.39839">
        <ele>335.6</ele>
        <time>2017-10-01T07:47:27Z</time>
      </trkpt>
      <trkpt lat="43.58973" lon="3.39836">
        <ele>335.5</ele>
        <time>2017-10-01T07:47:33Z</time>
      </trkpt>
      <trkpt lat="43.5897" lon="3.39827">
        <ele>335.4</ele>
        <time>2017-10-01T07:47:36Z</time>
      </trkpt>
      <trkpt lat="43.58967" lon="3.39817">
        <ele>335.3</ele>
        <time>2017-10-01T07:47:40Z</time>
      </trkpt>
      <trkpt lat="43.58972" lon="3.39808">
        <ele>335</ele>
        <time>2017-10-01T07:47:44Z</time>
      </trkpt>
      <trkpt lat="43.5898" lon="3.39812">
        <ele>334.9</ele>
        <time>2017-10-01T07:47:49Z</time>
      </trkpt>
      <trkpt lat="43.58987" lon="3.39821">
        <ele>334.9</ele>
        <time>2017-10-01T07:47:53Z</time>
      </trkpt>
      <trkpt lat="43.5899" lon="3.39831">
        <ele>334.8</ele>
        <time>2017-10-01T07:47:57Z</time>
      </trkpt>
      <trkpt lat="43.58996" lon="3.39842">
        <ele>334.8</ele>
        <time>2017-10-01T07:48:02Z</time>
      </trkpt>
      <trkpt lat="43.59003" lon="3.39847">
        <ele>334.9</ele>
        <time>2017-10-01T07:48:06Z</time>
      </trkpt>
      <trkpt lat="43.59011" lon="3.39847">
        <ele>335.1</ele>
        <time>2017-10-01T07:48:10Z</time>
      </trkpt>
      <trkpt lat="43.59018" lon="3.39844">
        <ele>335.3</ele>
        <time>2017-10-01T07:48:14Z</time>
      </trkpt>
      <trkpt lat="43.59029" lon="3.39838">
        <ele>335.5</ele>
        <time>2017-10-01T07:48:20Z</time>
      </trkpt>
      <trkpt lat="43.59037" lon="3.39837">
        <ele>335.6</ele>
        <time>2017-10-01T07:48:23Z</time>
      </trkpt>
      <trkpt lat="43.59046" lon="3.39837">
        <ele>335.7</ele>
        <time>2017-10-01T07:48:28Z</time>
      </trkpt>
      <trkpt lat="43.59055" lon="3.39839">
        <ele>335.9</ele>
        <time>2017-10-01T07:48:31Z</time>
      </trkpt>
      <trkpt lat="43.59063" lon="3.39839">
        <ele>336.1</ele>
        <time>2017-10-01T07:48:35Z</time>
      </trkpt>
      <trkpt lat="43.59071" lon="3.39841">
        <ele>336.5</ele>
        <time>2017-10-01T07:48:39Z</time>
      </trkpt>
      <trkpt lat="43.5908" lon="3.39839">
        <ele>336.9</ele>
        <time>2017-10-01T07:48:43Z</time>
      </trkpt>
      <trkpt lat="43.59087" lon="3.39831">
        <ele>337.1</ele>
        <time>2017-10-01T07:48:47Z</time>
      </trkpt>
      <trkpt lat="43.59096" lon="3.39821">
        <ele>337.2</ele>
        <time>2017-10-01T07:48:53Z</time>
      </trkpt>
      <trkpt lat="43.59102" lon="3.39814">
        <ele>337.3</ele>
        <time>2017-10-01T07:48:56Z</time>
      </trkpt>
      <trkpt lat="43.59108" lon="3.39804">
        <ele>337.3</ele>
        <time>2017-10-01T07:49:00Z</time>
      </trkpt>
      <trkpt lat="43.59114" lon="3.39796">
        <ele>337.5</ele>
        <time>2017-10-01T07:49:04Z</time>
      </trkpt>
      <trkpt lat="43.59121" lon="3.39785">
        <ele>337.5</ele>
        <time>2017-10-01T07:49:08Z</time>
      </trkpt>
      <trkpt lat="43.59125" lon="3.39779">
        <ele>337.5</ele>
        <time>2017-10-01T07:49:11Z</time>
      </trkpt>
      <trkpt lat="43.5913" lon="3.3977">
        <ele>337.5</ele>
        <time>2017-10-01T07:49:14Z</time>
      </trkpt>
      <trkpt lat="43.59135" lon="3.3976">
        <ele>337.6</ele>
        <time>2017-10-01T07:49:18Z</time>
      </trkpt>
      <trkpt lat="43.59143" lon="3.3975">
        <ele>337.7</ele>
        <time>2017-10-01T07:49:22Z</time>
      </trkpt>
      <trkpt lat="43.59152" lon="3.39746">
        <ele>337.8</ele>
        <time>2017-10-01T07:49:26Z</time>
      </trkpt>
      <trkpt lat="43.59159" lon="3.39746">
        <ele>337.9</ele>
        <time>2017-10-01T07:49:29Z</time>
      </trkpt>
      <trkpt lat="43.59167" lon="3.39745">
        <ele>338.3</ele>
        <time>2017-10-01T07:49:34Z</time>
      </trkpt>
      <trkpt lat="43.59176" lon="3.39747">
        <ele>338.7</ele>
        <time>2017-10-01T07:49:38Z</time>
      </trkpt>
      <trkpt lat="43.59184" lon="3.3975">
        <ele>339</ele>
        <time>2017-10-01T07:49:41Z</time>
      </trkpt>
      <trkpt lat="43.59193" lon="3.39751">
        <ele>339.4</ele>
        <time>2017-10-01T07:49:45Z</time>
      </trkpt>
      <trkpt lat="43.59201" lon="3.39752">
        <ele>339.9</ele>
        <time>2017-10-01T07:49:49Z</time>
      </trkpt>
      <trkpt lat="43.59209" lon="3.39753">
        <ele>340.2</ele>
        <time>2017-10-01T07:49:52Z</time>
      </trkpt>
      <trkpt lat="43.59217" lon="3.39754">
        <ele>340.5</ele>
        <time>2017-10-01T07:49:55Z</time>
      </trkpt>
      <trkpt lat="43.59225" lon="3.39754">
        <ele>340.7</ele>
        <time>2017-10-01T07:49:58Z</time>
      </trkpt>
      <trkpt lat="43.59232" lon="3.39755">
        <ele>341</ele>
        <time>2017-10-01T07:50:01Z</time>
      </trkpt>
      <trkpt lat="43.5924" lon="3.39756">
        <ele>341.2</ele>
        <time>2017-10-01T07:50:04Z</time>
      </trkpt>
      <trkpt lat="43.59248" lon="3.39756">
        <ele>341.5</ele>
        <time>2017-10-01T07:50:07Z</time>
      </trkpt>
      <trkpt lat="43.59256" lon="3.39755">
        <ele>341.7</ele>
        <time>2017-10-01T07:50:10Z</time>
      </trkpt>
      <trkpt lat="43.59263" lon="3.39751">
        <ele>341.9</ele>
        <time>2017-10-01T07:50:13Z</time>
      </trkpt>
      <trkpt lat="43.5927" lon="3.39747">
        <ele>342</ele>
        <time>2017-10-01T07:50:16Z</time>
      </trkpt>
      <trkpt lat="43.59277" lon="3.39743">
        <ele>341.9</ele>
        <time>2017-10-01T07:50:19Z</time>
      </trkpt>
      <trkpt lat="43.59286" lon="3.39741">
        <ele>341.8</ele>
        <time>2017-10-01T07:50:22Z</time>
      </trkpt>
      <trkpt lat="43.59295" lon="3.39741">
        <ele>341.7</ele>
        <time>2017-10-01T07:50:25Z</time>
      </trkpt>
      <trkpt lat="43.59304" lon="3.39741">
        <ele>341.7</ele>
        <time>2017-10-01T07:50:28Z</time>
      </trkpt>
      <trkpt lat="43.59312" lon="3.3974">
        <ele>342.1</ele>
        <time>2017-10-01T07:50:30Z</time>
      </trkpt>
      <trkpt lat="43.59322" lon="3.39738">
        <ele>342.5</ele>
        <time>2017-10-01T07:50:32Z</time>
      </trkpt>
      <trkpt lat="43.59331" lon="3.39735">
        <ele>342.6</ele>
        <time>2017-10-01T07:50:34Z</time>
      </trkpt>
      <trkpt lat="43.59344" lon="3.39736">
        <ele>341.7</ele>
        <time>2017-10-01T07:50:36Z</time>
      </trkpt>
      <trkpt lat="43.59351" lon="3.39741">
        <ele>340.8</ele>
        <time>2017-10-01T07:50:38Z</time>
      </trkpt>
      <trkpt lat="43.59358" lon="3.39748">
        <ele>340.1</ele>
        <time>2017-10-01T07:50:40Z</time>
      </trkpt>
      <trkpt lat="43.59365" lon="3.39755">
        <ele>339.7</ele>
        <time>2017-10-01T07:50:42Z</time>
      </trkpt>
      <trkpt lat="43.59371" lon="3.39762">
        <ele>339.6</ele>
        <time>2017-10-01T07:50:44Z</time>
      </trkpt>
      <trkpt lat="43.59379" lon="3.39768">
        <ele>339.4</ele>
        <time>2017-10-01T07:50:46Z</time>
      </trkpt>
      <trkpt lat="43.59386" lon="3.39774">
        <ele>339.3</ele>
        <time>2017-10-01T07:50:48Z</time>
      </trkpt>
      <trkpt lat="43.59396" lon="3.39783">
        <ele>339</ele>
        <time>2017-10-01T07:50:50Z</time>
      </trkpt>
      <trkpt lat="43.59402" lon="3.39789">
        <ele>338.7</ele>
        <time>2017-10-01T07:50:51Z</time>
      </trkpt>
      <trkpt lat="43.59412" lon="3.39801">
        <ele>338.1</ele>
        <time>2017-10-01T07:50:53Z</time>
      </trkpt>
      <trkpt lat="43.59422" lon="3.39814">
        <ele>337.2</ele>
        <time>2017-10-01T07:50:55Z</time>
      </trkpt>
      <trkpt lat="43.5943" lon="3.39826">
        <ele>336.5</ele>
        <time>2017-10-01T07:50:57Z</time>
      </trkpt>
      <trkpt lat="43.59439" lon="3.39839">
        <ele>336</ele>
        <time>2017-10-01T07:50:59Z</time>
      </trkpt>
      <trkpt lat="43.59446" lon="3.39854">
        <ele>335.5</ele>
        <time>2017-10-01T07:51:01Z</time>
      </trkpt>
      <trkpt lat="43.59452" lon="3.39872">
        <ele>334.8</ele>
        <time>2017-10-01T07:51:03Z</time>
      </trkpt>
      <trkpt lat="43.59456" lon="3.3989">
        <ele>334.2</ele>
        <time>2017-10-01T07:51:05Z</time>
      </trkpt>
      <trkpt lat="43.59462" lon="3.39907">
        <ele>333.5</ele>
        <time>2017-10-01T07:51:07Z</time>
      </trkpt>
      <trkpt lat="43.5947" lon="3.3992">
        <ele>333</ele>
        <time>2017-10-01T07:51:09Z</time>
      </trkpt>
      <trkpt lat="43.59479" lon="3.39932">
        <ele>332.3</ele>
        <time>2017-10-01T07:51:11Z</time>
      </trkpt>
      <trkpt lat="43.59488" lon="3.39944">
        <ele>331.1</ele>
        <time>2017-10-01T07:51:13Z</time>
      </trkpt>
      <trkpt lat="43.59494" lon="3.39951">
        <ele>330.4</ele>
        <time>2017-10-01T07:51:14Z</time>
      </trkpt>
      <trkpt lat="43.59499" lon="3.39958">
        <ele>329.8</ele>
        <time>2017-10-01T07:51:15Z</time>
      </trkpt>
      <trkpt lat="43.59503" lon="3.39966">
        <ele>329.2</ele>
        <time>2017-10-01T07:51:16Z</time>
      </trkpt>
      <trkpt lat="43.59508" lon="3.39974">
        <ele>328.5</ele>
        <time>2017-10-01T07:51:17Z</time>
      </trkpt>
      <trkpt lat="43.59515" lon="3.39989">
        <ele>327.3</ele>
        <time>2017-10-01T07:51:19Z</time>
      </trkpt>
      <trkpt lat="43.5952" lon="3.4">
        <ele>326.6</ele>
        <time>2017-10-01T07:51:21Z</time>
      </trkpt>
      <trkpt lat="43.59526" lon="3.40012">
        <ele>326</ele>
        <time>2017-10-01T07:51:23Z</time>
      </trkpt>
      <trkpt lat="43.59532" lon="3.40025">
        <ele>325.4</ele>
        <time>2017-10-01T07:51:25Z</time>
      </trkpt>
      <trkpt lat="43.59537" lon="3.40039">
        <ele>324.8</ele>
        <time>2017-10-01T07:51:27Z</time>
      </trkpt>
      <trkpt lat="43.59543" lon="3.40052">
        <ele>324</ele>
        <time>2017-10-01T07:51:29Z</time>
      </trkpt>
      <trkpt lat="43.59551" lon="3.40062">
        <ele>323.2</ele>
        <time>2017-10-01T07:51:31Z</time>
      </trkpt>
      <trkpt lat="43.59559" lon="3.40077">
        <ele>322.2</ele>
        <time>2017-10-01T07:51:33Z</time>
      </trkpt>
      <trkpt lat="43.59562" lon="3.40095">
        <ele>321.2</ele>
        <time>2017-10-01T07:51:35Z</time>
      </trkpt>
      <trkpt lat="43.59563" lon="3.40112">
        <ele>320.4</ele>
        <time>2017-10-01T07:51:37Z</time>
      </trkpt>
      <trkpt lat="43.59559" lon="3.40123">
        <ele>319.9</ele>
        <time>2017-10-01T07:51:39Z</time>
      </trkpt>
      <trkpt lat="43.59551" lon="3.40132">
        <ele>318.7</ele>
        <time>2017-10-01T07:51:42Z</time>
      </trkpt>
      <trkpt lat="43.59547" lon="3.40143">
        <ele>318.6</ele>
        <time>2017-10-01T07:51:45Z</time>
      </trkpt>
      <trkpt lat="43.59543" lon="3.40152">
        <ele>318.4</ele>
        <time>2017-10-01T07:51:48Z</time>
      </trkpt>
      <trkpt lat="43.59538" lon="3.40162">
        <ele>318.2</ele>
        <time>2017-10-01T07:51:51Z</time>
      </trkpt>
      <trkpt lat="43.59533" lon="3.4017">
        <ele>318.1</ele>
        <time>2017-10-01T07:51:53Z</time>
      </trkpt>
      <trkpt lat="43.59527" lon="3.40179">
        <ele>316.3</ele>
        <time>2017-10-01T07:51:55Z</time>
      </trkpt>
      <trkpt lat="43.59522" lon="3.40191">
        <ele>314.6</ele>
        <time>2017-10-01T07:51:57Z</time>
      </trkpt>
      <trkpt lat="43.59517" lon="3.40204">
        <ele>313</ele>
        <time>2017-10-01T07:51:59Z</time>
      </trkpt>
      <trkpt lat="43.59511" lon="3.40212">
        <ele>312.8</ele>
        <time>2017-10-01T07:52:02Z</time>
      </trkpt>
      <trkpt lat="43.59505" lon="3.40217">
        <ele>312.6</ele>
        <time>2017-10-01T07:52:05Z</time>
      </trkpt>
      <trkpt lat="43.59496" lon="3.40225">
        <ele>312.4</ele>
        <time>2017-10-01T07:52:08Z</time>
      </trkpt>
      <trkpt lat="43.5949" lon="3.40232">
        <ele>311.4</ele>
        <time>2017-10-01T07:52:10Z</time>
      </trkpt>
      <trkpt lat="43.59482" lon="3.40237">
        <ele>311.2</ele>
        <time>2017-10-01T07:52:13Z</time>
      </trkpt>
      <trkpt lat="43.59476" lon="3.40242">
        <ele>310.8</ele>
        <time>2017-10-01T07:52:20Z</time>
      </trkpt>
      <trkpt lat="43.59468" lon="3.40246">
        <ele>309.8</ele>
        <time>2017-10-01T07:52:22Z</time>
      </trkpt>
      <trkpt lat="43.59458" lon="3.40251">
        <ele>308.1</ele>
        <time>2017-10-01T07:52:24Z</time>
      </trkpt>
      <trkpt lat="43.59448" lon="3.40256">
        <ele>306.3</ele>
        <time>2017-10-01T07:52:26Z</time>
      </trkpt>
      <trkpt lat="43.59436" lon="3.4026">
        <ele>304.8</ele>
        <time>2017-10-01T07:52:28Z</time>
      </trkpt>
      <trkpt lat="43.59424" lon="3.40259">
        <ele>303.3</ele>
        <time>2017-10-01T07:52:30Z</time>
      </trkpt>
      <trkpt lat="43.5941" lon="3.40263">
        <ele>302.1</ele>
        <time>2017-10-01T07:52:32Z</time>
      </trkpt>
      <trkpt lat="43.594" lon="3.40275">
        <ele>300.8</ele>
        <time>2017-10-01T07:52:34Z</time>
      </trkpt>
      <trkpt lat="43.59388" lon="3.40285">
        <ele>299.9</ele>
        <time>2017-10-01T07:52:36Z</time>
      </trkpt>
      <trkpt lat="43.59375" lon="3.40289">
        <ele>299.3</ele>
        <time>2017-10-01T07:52:38Z</time>
      </trkpt>
      <trkpt lat="43.59365" lon="3.40292">
        <ele>298.6</ele>
        <time>2017-10-01T07:52:40Z</time>
      </trkpt>
      <trkpt lat="43.59354" lon="3.40295">
        <ele>297.9</ele>
        <time>2017-10-01T07:52:42Z</time>
      </trkpt>
      <trkpt lat="43.59346" lon="3.40302">
        <ele>297.1</ele>
        <time>2017-10-01T07:52:44Z</time>
      </trkpt>
      <trkpt lat="43.59339" lon="3.40309">
        <ele>296.1</ele>
        <time>2017-10-01T07:52:46Z</time>
      </trkpt>
      <trkpt lat="43.59329" lon="3.40312">
        <ele>295.3</ele>
        <time>2017-10-01T07:52:48Z</time>
      </trkpt>
      <trkpt lat="43.59319" lon="3.40311">
        <ele>294.8</ele>
        <time>2017-10-01T07:52:50Z</time>
      </trkpt>
      <trkpt lat="43.59308" lon="3.40311">
        <ele>294.5</ele>
        <time>2017-10-01T07:52:52Z</time>
      </trkpt>
      <trkpt lat="43.59296" lon="3.40313">
        <ele>294.2</ele>
        <time>2017-10-01T07:52:54Z</time>
      </trkpt>
      <trkpt lat="43.59285" lon="3.40314">
        <ele>294</ele>
        <time>2017-10-01T07:52:56Z</time>
      </trkpt>
      <trkpt lat="43.59274" lon="3.40314">
        <ele>293.9</ele>
        <time>2017-10-01T07:52:58Z</time>
      </trkpt>
      <trkpt lat="43.59264" lon="3.40314">
        <ele>293.4</ele>
        <time>2017-10-01T07:53:00Z</time>
      </trkpt>
      <trkpt lat="43.59252" lon="3.40316">
        <ele>293.1</ele>
        <time>2017-10-01T07:53:02Z</time>
      </trkpt>
      <trkpt lat="43.59239" lon="3.40317">
        <ele>292.6</ele>
        <time>2017-10-01T07:53:04Z</time>
      </trkpt>
      <trkpt lat="43.59226" lon="3.40317">
        <ele>291.8</ele>
        <time>2017-10-01T07:53:06Z</time>
      </trkpt>
      <trkpt lat="43.59212" lon="3.4032">
        <ele>290.8</ele>
        <time>2017-10-01T07:53:08Z</time>
      </trkpt>
      <trkpt lat="43.59205" lon="3.40324">
        <ele>290.3</ele>
        <time>2017-10-01T07:53:09Z</time>
      </trkpt>
      <trkpt lat="43.59199" lon="3.4033">
        <ele>289.9</ele>
        <time>2017-10-01T07:53:10Z</time>
      </trkpt>
      <trkpt lat="43.59187" lon="3.40336">
        <ele>289</ele>
        <time>2017-10-01T07:53:12Z</time>
      </trkpt>
      <trkpt lat="43.59177" lon="3.40335">
        <ele>288.3</ele>
        <time>2017-10-01T07:53:14Z</time>
      </trkpt>
      <trkpt lat="43.59171" lon="3.40344">
        <ele>287.8</ele>
        <time>2017-10-01T07:53:17Z</time>
      </trkpt>
      <trkpt lat="43.59177" lon="3.40352">
        <ele>287.3</ele>
        <time>2017-10-01T07:53:19Z</time>
      </trkpt>
      <trkpt lat="43.59184" lon="3.40359">
        <ele>286.3</ele>
        <time>2017-10-01T07:53:21Z</time>
      </trkpt>
      <trkpt lat="43.59193" lon="3.40367">
        <ele>285.3</ele>
        <time>2017-10-01T07:53:23Z</time>
      </trkpt>
      <trkpt lat="43.59201" lon="3.40375">
        <ele>284.4</ele>
        <time>2017-10-01T07:53:25Z</time>
      </trkpt>
      <trkpt lat="43.5921" lon="3.40383">
        <ele>283.3</ele>
        <time>2017-10-01T07:53:27Z</time>
      </trkpt>
      <trkpt lat="43.59219" lon="3.40389">
        <ele>282.3</ele>
        <time>2017-10-01T07:53:29Z</time>
      </trkpt>
      <trkpt lat="43.59229" lon="3.40395">
        <ele>281.1</ele>
        <time>2017-10-01T07:53:31Z</time>
      </trkpt>
      <trkpt lat="43.59238" lon="3.40402">
        <ele>280</ele>
        <time>2017-10-01T07:53:33Z</time>
      </trkpt>
      <trkpt lat="43.59246" lon="3.40406">
        <ele>279.6</ele>
        <time>2017-10-01T07:53:35Z</time>
      </trkpt>
      <trkpt lat="43.59257" lon="3.40406">
        <ele>279.6</ele>
        <time>2017-10-01T07:53:38Z</time>
      </trkpt>
      <trkpt lat="43.59268" lon="3.40403">
        <ele>279.9</ele>
        <time>2017-10-01T07:53:41Z</time>
      </trkpt>
      <trkpt lat="43.59277" lon="3.40401">
        <ele>280.3</ele>
        <time>2017-10-01T07:53:43Z</time>
      </trkpt>
      <trkpt lat="43.59287" lon="3.40401">
        <ele>280.4</ele>
        <time>2017-10-01T07:53:45Z</time>
      </trkpt>
      <trkpt lat="43.59297" lon="3.40402">
        <ele>280.3</ele>
        <time>2017-10-01T07:53:47Z</time>
      </trkpt>
      <trkpt lat="43.59307" lon="3.40402">
        <ele>280.4</ele>
        <time>2017-10-01T07:53:49Z</time>
      </trkpt>
      <trkpt lat="43.59318" lon="3.40401">
        <ele>280.4</ele>
        <time>2017-10-01T07:53:51Z</time>
      </trkpt>
      <trkpt lat="43.59328" lon="3.40399">
        <ele>280.5</ele>
        <time>2017-10-01T07:53:53Z</time>
      </trkpt>
      <trkpt lat="43.59338" lon="3.40398">
        <ele>280.5</ele>
        <time>2017-10-01T07:53:55Z</time>
      </trkpt>
      <trkpt lat="43.5935" lon="3.40397">
        <ele>280.5</ele>
        <time>2017-10-01T07:53:57Z</time>
      </trkpt>
      <trkpt lat="43.5936" lon="3.40395">
        <ele>280.7</ele>
        <time>2017-10-01T07:53:59Z</time>
      </trkpt>
      <trkpt lat="43.5937" lon="3.40394">
        <ele>280.8</ele>
        <time>2017-10-01T07:54:01Z</time>
      </trkpt>
      <trkpt lat="43.59378" lon="3.40392">
        <ele>280.8</ele>
        <time>2017-10-01T07:54:03Z</time>
      </trkpt>
      <trkpt lat="43.59385" lon="3.40389">
        <ele>280.8</ele>
        <time>2017-10-01T07:54:05Z</time>
      </trkpt>
      <trkpt lat="43.59393" lon="3.40385">
        <ele>280.9</ele>
        <time>2017-10-01T07:54:08Z</time>
      </trkpt>
      <trkpt lat="43.59398" lon="3.40386">
        <ele>281.4</ele>
        <time>2017-10-01T07:54:15Z</time>
      </trkpt>
      <trkpt lat="43.59405" lon="3.40401">
        <ele>285.5</ele>
        <time>2017-10-01T07:56:04Z</time>
      </trkpt>
      <trkpt lat="43.59412" lon="3.40406">
        <ele>285.8</ele>
        <time>2017-10-01T07:56:08Z</time>
      </trkpt>
      <trkpt lat="43.5942" lon="3.40406">
        <ele>286.2</ele>
        <time>2017-10-01T07:56:13Z</time>
      </trkpt>
      <trkpt lat="43.59429" lon="3.40407">
        <ele>286.7</ele>
        <time>2017-10-01T07:56:18Z</time>
      </trkpt>
      <trkpt lat="43.59436" lon="3.40412">
        <ele>288</ele>
        <time>2017-10-01T07:56:20Z</time>
      </trkpt>
      <trkpt lat="43.5945" lon="3.40416">
        <ele>289.7</ele>
        <time>2017-10-01T07:56:22Z</time>
      </trkpt>
      <trkpt lat="43.59463" lon="3.40419">
        <ele>290.6</ele>
        <time>2017-10-01T07:56:24Z</time>
      </trkpt>
      <trkpt lat="43.5947" lon="3.40421">
        <ele>290.9</ele>
        <time>2017-10-01T07:56:25Z</time>
      </trkpt>
      <trkpt lat="43.59481" lon="3.40429">
        <ele>291.3</ele>
        <time>2017-10-01T07:56:27Z</time>
      </trkpt>
      <trkpt lat="43.59492" lon="3.40436">
        <ele>291.3</ele>
        <time>2017-10-01T07:56:29Z</time>
      </trkpt>
      <trkpt lat="43.595" lon="3.4044">
        <ele>291</ele>
        <time>2017-10-01T07:56:31Z</time>
      </trkpt>
      <trkpt lat="43.59508" lon="3.40444">
        <ele>290.4</ele>
        <time>2017-10-01T07:56:33Z</time>
      </trkpt>
      <trkpt lat="43.59518" lon="3.40452">
        <ele>289.2</ele>
        <time>2017-10-01T07:56:35Z</time>
      </trkpt>
      <trkpt lat="43.59529" lon="3.40457">
        <ele>288.1</ele>
        <time>2017-10-01T07:56:37Z</time>
      </trkpt>
      <trkpt lat="43.59538" lon="3.40465">
        <ele>286.8</ele>
        <time>2017-10-01T07:56:39Z</time>
      </trkpt>
      <trkpt lat="43.59544" lon="3.40471">
        <ele>285.9</ele>
        <time>2017-10-01T07:56:41Z</time>
      </trkpt>
      <trkpt lat="43.59547" lon="3.40481">
        <ele>285.5</ele>
        <time>2017-10-01T07:56:45Z</time>
      </trkpt>
      <trkpt lat="43.59548" lon="3.40496">
        <ele>283.3</ele>
        <time>2017-10-01T07:56:48Z</time>
      </trkpt>
      <trkpt lat="43.59547" lon="3.40508">
        <ele>282.4</ele>
        <time>2017-10-01T07:56:50Z</time>
      </trkpt>
      <trkpt lat="43.59548" lon="3.40518">
        <ele>282</ele>
        <time>2017-10-01T07:56:55Z</time>
      </trkpt>
      <trkpt lat="43.5955" lon="3.40529">
        <ele>281.6</ele>
        <time>2017-10-01T07:56:58Z</time>
      </trkpt>
      <trkpt lat="43.5955" lon="3.40541">
        <ele>281.2</ele>
        <time>2017-10-01T07:57:01Z</time>
      </trkpt>
      <trkpt lat="43.59553" lon="3.40554">
        <ele>280.8</ele>
        <time>2017-10-01T07:57:04Z</time>
      </trkpt>
      <trkpt lat="43.59557" lon="3.40568">
        <ele>276.7</ele>
        <time>2017-10-01T07:57:08Z</time>
      </trkpt>
      <trkpt lat="43.59564" lon="3.40575">
        <ele>274</ele>
        <time>2017-10-01T07:57:10Z</time>
      </trkpt>
      <trkpt lat="43.59572" lon="3.40582">
        <ele>271.8</ele>
        <time>2017-10-01T07:57:12Z</time>
      </trkpt>
      <trkpt lat="43.59578" lon="3.4059">
        <ele>271.5</ele>
        <time>2017-10-01T07:57:14Z</time>
      </trkpt>
      <trkpt lat="43.59585" lon="3.406">
        <ele>271.2</ele>
        <time>2017-10-01T07:57:17Z</time>
      </trkpt>
      <trkpt lat="43.5959" lon="3.40613">
        <ele>269.5</ele>
        <time>2017-10-01T07:57:20Z</time>
      </trkpt>
      <trkpt lat="43.59597" lon="3.40621">
        <ele>269.1</ele>
        <time>2017-10-01T07:57:23Z</time>
      </trkpt>
      <trkpt lat="43.59605" lon="3.40621">
        <ele>268.7</ele>
        <time>2017-10-01T07:57:26Z</time>
      </trkpt>
      <trkpt lat="43.59609" lon="3.40629">
        <ele>267.9</ele>
        <time>2017-10-01T07:57:30Z</time>
      </trkpt>
      <trkpt lat="43.59616" lon="3.40635">
        <ele>263.6</ele>
        <time>2017-10-01T07:57:32Z</time>
      </trkpt>
      <trkpt lat="43.59626" lon="3.40637">
        <ele>260.2</ele>
        <time>2017-10-01T07:57:34Z</time>
      </trkpt>
      <trkpt lat="43.59636" lon="3.4064">
        <ele>258.6</ele>
        <time>2017-10-01T07:57:36Z</time>
      </trkpt>
      <trkpt lat="43.59645" lon="3.40632">
        <ele>258.1</ele>
        <time>2017-10-01T07:57:39Z</time>
      </trkpt>
      <trkpt lat="43.59648" lon="3.40624">
        <ele>257.7</ele>
        <time>2017-10-01T07:57:41Z</time>
      </trkpt>
      <trkpt lat="43.59659" lon="3.40622">
        <ele>251.4</ele>
        <time>2017-10-01T07:57:44Z</time>
      </trkpt>
      <trkpt lat="43.59666" lon="3.40622">
        <ele>249.5</ele>
        <time>2017-10-01T07:57:46Z</time>
      </trkpt>
      <trkpt lat="43.59675" lon="3.40616">
        <ele>247.3</ele>
        <time>2017-10-01T07:57:49Z</time>
      </trkpt>
      <trkpt lat="43.59682" lon="3.40622">
        <ele>244.3</ele>
        <time>2017-10-01T07:57:53Z</time>
      </trkpt>
      <trkpt lat="43.5969" lon="3.40623">
        <ele>243.5</ele>
        <time>2017-10-01T07:57:57Z</time>
      </trkpt>
      <trkpt lat="43.59698" lon="3.4062">
        <ele>242.8</ele>
        <time>2017-10-01T07:58:00Z</time>
      </trkpt>
      <trkpt lat="43.59706" lon="3.40621">
        <ele>242</ele>
        <time>2017-10-01T07:58:03Z</time>
      </trkpt>
      <trkpt lat="43.59715" lon="3.40619">
        <ele>241</ele>
        <time>2017-10-01T07:58:07Z</time>
      </trkpt>
      <trkpt lat="43.59725" lon="3.40619">
        <ele>238.1</ele>
        <time>2017-10-01T07:58:11Z</time>
      </trkpt>
      <trkpt lat="43.59734" lon="3.40622">
        <ele>234.5</ele>
        <time>2017-10-01T07:58:13Z</time>
      </trkpt>
      <trkpt lat="43.59743" lon="3.40624">
        <ele>231.8</ele>
        <time>2017-10-01T07:58:15Z</time>
      </trkpt>
      <trkpt lat="43.59752" lon="3.40624">
        <ele>229.5</ele>
        <time>2017-10-01T07:58:17Z</time>
      </trkpt>
      <trkpt lat="43.5976" lon="3.40619">
        <ele>228.2</ele>
        <time>2017-10-01T07:58:19Z</time>
      </trkpt>
      <trkpt lat="43.59768" lon="3.40623">
        <ele>225.5</ele>
        <time>2017-10-01T07:58:21Z</time>
      </trkpt>
      <trkpt lat="43.59776" lon="3.40624">
        <ele>225.3</ele>
        <time>2017-10-01T07:58:23Z</time>
      </trkpt>
      <trkpt lat="43.59777" lon="3.40642">
        <ele>224.6</ele>
        <time>2017-10-01T07:58:28Z</time>
      </trkpt>
      <trkpt lat="43.5978" lon="3.40654">
        <ele>219.8</ele>
        <time>2017-10-01T07:58:29Z</time>
      </trkpt>
      <trkpt lat="43.5978" lon="3.40667">
        <ele>215.8</ele>
        <time>2017-10-01T07:58:31Z</time>
      </trkpt>
      <trkpt lat="43.59784" lon="3.4068">
        <ele>213</ele>
        <time>2017-10-01T07:58:33Z</time>
      </trkpt>
      <trkpt lat="43.59787" lon="3.40694">
        <ele>212.6</ele>
        <time>2017-10-01T07:58:36Z</time>
      </trkpt>
      <trkpt lat="43.59783" lon="3.40705">
        <ele>212.3</ele>
        <time>2017-10-01T07:58:39Z</time>
      </trkpt>
      <trkpt lat="43.59781" lon="3.40716">
        <ele>211.3</ele>
        <time>2017-10-01T07:58:41Z</time>
      </trkpt>
      <trkpt lat="43.59778" lon="3.40729">
        <ele>209.6</ele>
        <time>2017-10-01T07:58:43Z</time>
      </trkpt>
      <trkpt lat="43.59773" lon="3.40744">
        <ele>208.5</ele>
        <time>2017-10-01T07:58:45Z</time>
      </trkpt>
      <trkpt lat="43.59769" lon="3.40756">
        <ele>208.4</ele>
        <time>2017-10-01T07:58:47Z</time>
      </trkpt>
      <trkpt lat="43.59776" lon="3.40764">
        <ele>208.2</ele>
        <time>2017-10-01T07:58:51Z</time>
      </trkpt>
      <trkpt lat="43.59784" lon="3.40764">
        <ele>206.8</ele>
        <time>2017-10-01T07:58:53Z</time>
      </trkpt>
      <trkpt lat="43.59795" lon="3.40771">
        <ele>204.8</ele>
        <time>2017-10-01T07:58:55Z</time>
      </trkpt>
      <trkpt lat="43.59804" lon="3.40775">
        <ele>204.6</ele>
        <time>2017-10-01T07:58:57Z</time>
      </trkpt>
      <trkpt lat="43.5981" lon="3.40769">
        <ele>204.3</ele>
        <time>2017-10-01T07:58:59Z</time>
      </trkpt>
      <trkpt lat="43.59818" lon="3.40769">
        <ele>204</ele>
        <time>2017-10-01T07:59:01Z</time>
      </trkpt>
      <trkpt lat="43.59826" lon="3.40768">
        <ele>203.5</ele>
        <time>2017-10-01T07:59:04Z</time>
      </trkpt>
      <trkpt lat="43.59833" lon="3.40765">
        <ele>202.5</ele>
        <time>2017-10-01T07:59:08Z</time>
      </trkpt>
      <trkpt lat="43.59844" lon="3.4077">
        <ele>201.4</ele>
        <time>2017-10-01T07:59:12Z</time>
      </trkpt>
      <trkpt lat="43.59851" lon="3.40765">
        <ele>200.6</ele>
        <time>2017-10-01T07:59:15Z</time>
      </trkpt>
      <trkpt lat="43.59848" lon="3.40762">
        <ele>198.5</ele>
        <time>2017-10-01T07:59:46Z</time>
      </trkpt>
      <trkpt lat="43.59847" lon="3.40748">
        <ele>193.1</ele>
        <time>2017-10-01T08:03:10Z</time>
      </trkpt>
      <trkpt lat="43.59852" lon="3.4074">
        <ele>192.9</ele>
        <time>2017-10-01T08:03:12Z</time>
      </trkpt>
      <trkpt lat="43.59859" lon="3.40732">
        <ele>189.6</ele>
        <time>2017-10-01T08:03:14Z</time>
      </trkpt>
      <trkpt lat="43.59867" lon="3.40724">
        <ele>187.1</ele>
        <time>2017-10-01T08:03:16Z</time>
      </trkpt>
      <trkpt lat="43.59874" lon="3.40716">
        <ele>185.3</ele>
        <time>2017-10-01T08:03:18Z</time>
      </trkpt>
      <trkpt lat="43.5988" lon="3.40705">
        <ele>183.6</ele>
        <time>2017-10-01T08:03:20Z</time>
      </trkpt>
      <trkpt lat="43.59888" lon="3.40691">
        <ele>181.6</ele>
        <time>2017-10-01T08:03:22Z</time>
      </trkpt>
      <trkpt lat="43.59893" lon="3.40683">
        <ele>180.6</ele>
        <time>2017-10-01T08:03:23Z</time>
      </trkpt>
      <trkpt lat="43.59903" lon="3.4067">
        <ele>178.5</ele>
        <time>2017-10-01T08:03:25Z</time>
      </trkpt>
      <trkpt lat="43.5991" lon="3.40664">
        <ele>177.6</ele>
        <time>2017-10-01T08:03:26Z</time>
      </trkpt>
      <trkpt lat="43.59917" lon="3.40658">
        <ele>176.8</ele>
        <time>2017-10-01T08:03:27Z</time>
      </trkpt>
      <trkpt lat="43.59924" lon="3.40653">
        <ele>176.2</ele>
        <time>2017-10-01T08:03:28Z</time>
      </trkpt>
      <trkpt lat="43.59931" lon="3.40648">
        <ele>175.7</ele>
        <time>2017-10-01T08:03:29Z</time>
      </trkpt>
      <trkpt lat="43.59937" lon="3.40643">
        <ele>175.2</ele>
        <time>2017-10-01T08:03:30Z</time>
      </trkpt>
      <trkpt lat="43.59947" lon="3.40632">
        <ele>174.4</ele>
        <time>2017-10-01T08:03:32Z</time>
      </trkpt>
      <trkpt lat="43.59951" lon="3.40621">
        <ele>174.4</ele>
        <time>2017-10-01T08:03:34Z</time>
      </trkpt>
      <trkpt lat="43.59953" lon="3.4061">
        <ele>174.1</ele>
        <time>2017-10-01T08:03:36Z</time>
      </trkpt>
      <trkpt lat="43.59957" lon="3.406">
        <ele>174.1</ele>
        <time>2017-10-01T08:03:38Z</time>
      </trkpt>
      <trkpt lat="43.59962" lon="3.4059">
        <ele>174.5</ele>
        <time>2017-10-01T08:03:40Z</time>
      </trkpt>
      <trkpt lat="43.59968" lon="3.40581">
        <ele>174.5</ele>
        <time>2017-10-01T08:03:42Z</time>
      </trkpt>
      <trkpt lat="43.59975" lon="3.40575">
        <ele>174.8</ele>
        <time>2017-10-01T08:03:44Z</time>
      </trkpt>
      <trkpt lat="43.59984" lon="3.40569">
        <ele>174.9</ele>
        <time>2017-10-01T08:03:47Z</time>
      </trkpt>
      <trkpt lat="43.59994" lon="3.40573">
        <ele>175.3</ele>
        <time>2017-10-01T08:03:50Z</time>
      </trkpt>
      <trkpt lat="43.60003" lon="3.40575">
        <ele>175.5</ele>
        <time>2017-10-01T08:03:52Z</time>
      </trkpt>
      <trkpt lat="43.60011" lon="3.40578">
        <ele>175.8</ele>
        <time>2017-10-01T08:03:54Z</time>
      </trkpt>
      <trkpt lat="43.60018" lon="3.40578">
        <ele>176.1</ele>
        <time>2017-10-01T08:03:56Z</time>
      </trkpt>
      <trkpt lat="43.60027" lon="3.40576">
        <ele>176.7</ele>
        <time>2017-10-01T08:03:59Z</time>
      </trkpt>
      <trkpt lat="43.60034" lon="3.4057">
        <ele>177.3</ele>
        <time>2017-10-01T08:04:03Z</time>
      </trkpt>
      <trkpt lat="43.60039" lon="3.40562">
        <ele>177.7</ele>
        <time>2017-10-01T08:04:06Z</time>
      </trkpt>
      <trkpt lat="43.60043" lon="3.40552">
        <ele>178.2</ele>
        <time>2017-10-01T08:04:10Z</time>
      </trkpt>
      <trkpt lat="43.60045" lon="3.4054">
        <ele>178.8</ele>
        <time>2017-10-01T08:04:14Z</time>
      </trkpt>
      <trkpt lat="43.60048" lon="3.40529">
        <ele>179.3</ele>
        <time>2017-10-01T08:04:18Z</time>
      </trkpt>
      <trkpt lat="43.60052" lon="3.40518">
        <ele>179.8</ele>
        <time>2017-10-01T08:04:22Z</time>
      </trkpt>
      <trkpt lat="43.60056" lon="3.40509">
        <ele>180.3</ele>
        <time>2017-10-01T08:04:25Z</time>
      </trkpt>
      <trkpt lat="43.6006" lon="3.405">
        <ele>180.8</ele>
        <time>2017-10-01T08:04:28Z</time>
      </trkpt>
      <trkpt lat="43.60064" lon="3.4049">
        <ele>181.3</ele>
        <time>2017-10-01T08:04:31Z</time>
      </trkpt>
      <trkpt lat="43.60069" lon="3.40479">
        <ele>181.8</ele>
        <time>2017-10-01T08:04:35Z</time>
      </trkpt>
      <trkpt lat="43.60071" lon="3.40469">
        <ele>182.2</ele>
        <time>2017-10-01T08:04:38Z</time>
      </trkpt>
      <trkpt lat="43.60074" lon="3.40457">
        <ele>182.5</ele>
        <time>2017-10-01T08:04:42Z</time>
      </trkpt>
      <trkpt lat="43.60076" lon="3.40445">
        <ele>182.8</ele>
        <time>2017-10-01T08:04:46Z</time>
      </trkpt>
      <trkpt lat="43.60076" lon="3.40433">
        <ele>183.1</ele>
        <time>2017-10-01T08:04:49Z</time>
      </trkpt>
      <trkpt lat="43.60077" lon="3.40421">
        <ele>183.3</ele>
        <time>2017-10-01T08:04:52Z</time>
      </trkpt>
      <trkpt lat="43.60078" lon="3.40407">
        <ele>183.4</ele>
        <time>2017-10-01T08:04:55Z</time>
      </trkpt>
      <trkpt lat="43.60079" lon="3.40395">
        <ele>183.5</ele>
        <time>2017-10-01T08:04:58Z</time>
      </trkpt>
      <trkpt lat="43.60082" lon="3.40384">
        <ele>183.7</ele>
        <time>2017-10-01T08:05:01Z</time>
      </trkpt>
      <trkpt lat="43.60086" lon="3.40373">
        <ele>183.8</ele>
        <time>2017-10-01T08:05:04Z</time>
      </trkpt>
      <trkpt lat="43.6009" lon="3.40361">
        <ele>183.9</ele>
        <time>2017-10-01T08:05:07Z</time>
      </trkpt>
      <trkpt lat="43.60094" lon="3.40351">
        <ele>184.1</ele>
        <time>2017-10-01T08:05:10Z</time>
      </trkpt>
      <trkpt lat="43.60095" lon="3.40339">
        <ele>184.3</ele>
        <time>2017-10-01T08:05:14Z</time>
      </trkpt>
      <trkpt lat="43.60094" lon="3.40328">
        <ele>184.6</ele>
        <time>2017-10-01T08:05:17Z</time>
      </trkpt>
      <trkpt lat="43.60094" lon="3.40317">
        <ele>184.9</ele>
        <time>2017-10-01T08:05:21Z</time>
      </trkpt>
      <trkpt lat="43.60093" lon="3.40306">
        <ele>185.3</ele>
        <time>2017-10-01T08:05:26Z</time>
      </trkpt>
      <trkpt lat="43.60092" lon="3.40296">
        <ele>185.8</ele>
        <time>2017-10-01T08:05:31Z</time>
      </trkpt>
      <trkpt lat="43.60093" lon="3.40286">
        <ele>186</ele>
        <time>2017-10-01T08:05:36Z</time>
      </trkpt>
      <trkpt lat="43.60094" lon="3.40277">
        <ele>186.3</ele>
        <time>2017-10-01T08:05:43Z</time>
      </trkpt>
      <trkpt lat="43.60097" lon="3.40266">
        <ele>186.5</ele>
        <time>2017-10-01T08:05:47Z</time>
      </trkpt>
      <trkpt lat="43.60101" lon="3.40255">
        <ele>186.6</ele>
        <time>2017-10-01T08:05:50Z</time>
      </trkpt>
      <trkpt lat="43.60106" lon="3.40244">
        <ele>186.7</ele>
        <time>2017-10-01T08:05:53Z</time>
      </trkpt>
      <trkpt lat="43.6011" lon="3.40236">
        <ele>186.8</ele>
        <time>2017-10-01T08:05:55Z</time>
      </trkpt>
      <trkpt lat="43.60118" lon="3.40231">
        <ele>186.5</ele>
        <time>2017-10-01T08:05:57Z</time>
      </trkpt>
      <trkpt lat="43.60125" lon="3.4023">
        <ele>186.5</ele>
        <time>2017-10-01T08:05:59Z</time>
      </trkpt>
      <trkpt lat="43.60134" lon="3.40229">
        <ele>186.3</ele>
        <time>2017-10-01T08:06:03Z</time>
      </trkpt>
      <trkpt lat="43.60143" lon="3.40229">
        <ele>185.8</ele>
        <time>2017-10-01T08:06:08Z</time>
      </trkpt>
      <trkpt lat="43.60151" lon="3.40228">
        <ele>185.4</ele>
        <time>2017-10-01T08:06:12Z</time>
      </trkpt>
      <trkpt lat="43.60159" lon="3.40229">
        <ele>184.9</ele>
        <time>2017-10-01T08:06:16Z</time>
      </trkpt>
      <trkpt lat="43.60167" lon="3.40235">
        <ele>184.6</ele>
        <time>2017-10-01T08:06:19Z</time>
      </trkpt>
      <trkpt lat="43.60176" lon="3.40243">
        <ele>184.3</ele>
        <time>2017-10-01T08:06:22Z</time>
      </trkpt>
      <trkpt lat="43.60182" lon="3.40251">
        <ele>182.1</ele>
        <time>2017-10-01T08:06:24Z</time>
      </trkpt>
      <trkpt lat="43.6019" lon="3.4026">
        <ele>180.3</ele>
        <time>2017-10-01T08:06:26Z</time>
      </trkpt>
      <trkpt lat="43.602" lon="3.4027">
        <ele>178.8</ele>
        <time>2017-10-01T08:06:28Z</time>
      </trkpt>
      <trkpt lat="43.6021" lon="3.40282">
        <ele>177.4</ele>
        <time>2017-10-01T08:06:30Z</time>
      </trkpt>
      <trkpt lat="43.60213" lon="3.4029">
        <ele>176.8</ele>
        <time>2017-10-01T08:06:31Z</time>
      </trkpt>
      <trkpt lat="43.60217" lon="3.40302">
        <ele>176.1</ele>
        <time>2017-10-01T08:06:32Z</time>
      </trkpt>
      <trkpt lat="43.60219" lon="3.40314">
        <ele>175.4</ele>
        <time>2017-10-01T08:06:33Z</time>
      </trkpt>
      <trkpt lat="43.60222" lon="3.40327">
        <ele>174.7</ele>
        <time>2017-10-01T08:06:34Z</time>
      </trkpt>
      <trkpt lat="43.60227" lon="3.40338">
        <ele>174.2</ele>
        <time>2017-10-01T08:06:35Z</time>
      </trkpt>
      <trkpt lat="43.60233" lon="3.40349">
        <ele>173.6</ele>
        <time>2017-10-01T08:06:36Z</time>
      </trkpt>
      <trkpt lat="43.60238" lon="3.40358">
        <ele>173.1</ele>
        <time>2017-10-01T08:06:37Z</time>
      </trkpt>
      <trkpt lat="43.60241" lon="3.40367">
        <ele>172.7</ele>
        <time>2017-10-01T08:06:38Z</time>
      </trkpt>
      <trkpt lat="43.60241" lon="3.40384">
        <ele>172</ele>
        <time>2017-10-01T08:06:40Z</time>
      </trkpt>
      <trkpt lat="43.60233" lon="3.404">
        <ele>171.2</ele>
        <time>2017-10-01T08:06:42Z</time>
      </trkpt>
      <trkpt lat="43.60225" lon="3.40414">
        <ele>170.8</ele>
        <time>2017-10-01T08:06:44Z</time>
      </trkpt>
      <trkpt lat="43.60216" lon="3.40428">
        <ele>170.3</ele>
        <time>2017-10-01T08:06:46Z</time>
      </trkpt>
      <trkpt lat="43.60205" lon="3.40439">
        <ele>170</ele>
        <time>2017-10-01T08:06:48Z</time>
      </trkpt>
      <trkpt lat="43.60196" lon="3.40446">
        <ele>169.4</ele>
        <time>2017-10-01T08:06:50Z</time>
      </trkpt>
      <trkpt lat="43.6019" lon="3.40459">
        <ele>168.5</ele>
        <time>2017-10-01T08:06:52Z</time>
      </trkpt>
      <trkpt lat="43.60193" lon="3.40478">
        <ele>168</ele>
        <time>2017-10-01T08:06:54Z</time>
      </trkpt>
      <trkpt lat="43.60199" lon="3.4049">
        <ele>167.7</ele>
        <time>2017-10-01T08:06:56Z</time>
      </trkpt>
      <trkpt lat="43.60205" lon="3.40501">
        <ele>167.6</ele>
        <time>2017-10-01T08:06:58Z</time>
      </trkpt>
      <trkpt lat="43.60208" lon="3.40511">
        <ele>167.6</ele>
        <time>2017-10-01T08:07:00Z</time>
      </trkpt>
      <trkpt lat="43.60216" lon="3.4052">
        <ele>167.6</ele>
        <time>2017-10-01T08:07:03Z</time>
      </trkpt>
      <trkpt lat="43.6022" lon="3.40529">
        <ele>167.5</ele>
        <time>2017-10-01T08:07:05Z</time>
      </trkpt>
      <trkpt lat="43.60224" lon="3.4054">
        <ele>167.4</ele>
        <time>2017-10-01T08:07:08Z</time>
      </trkpt>
      <trkpt lat="43.60229" lon="3.40551">
        <ele>167.3</ele>
        <time>2017-10-01T08:07:11Z</time>
      </trkpt>
      <trkpt lat="43.60231" lon="3.40561">
        <ele>167.2</ele>
        <time>2017-10-01T08:07:15Z</time>
      </trkpt>
      <trkpt lat="43.60235" lon="3.4057">
        <ele>167.2</ele>
        <time>2017-10-01T08:07:19Z</time>
      </trkpt>
      <trkpt lat="43.60243" lon="3.40574">
        <ele>167.3</ele>
        <time>2017-10-01T08:07:23Z</time>
      </trkpt>
      <trkpt lat="43.6025" lon="3.40576">
        <ele>167.5</ele>
        <time>2017-10-01T08:07:27Z</time>
      </trkpt>
      <trkpt lat="43.60258" lon="3.4058">
        <ele>167.9</ele>
        <time>2017-10-01T08:07:31Z</time>
      </trkpt>
      <trkpt lat="43.60267" lon="3.40582">
        <ele>168.4</ele>
        <time>2017-10-01T08:07:35Z</time>
      </trkpt>
      <trkpt lat="43.60275" lon="3.40583">
        <ele>169</ele>
        <time>2017-10-01T08:07:39Z</time>
      </trkpt>
      <trkpt lat="43.60284" lon="3.40582">
        <ele>169.5</ele>
        <time>2017-10-01T08:07:43Z</time>
      </trkpt>
      <trkpt lat="43.60292" lon="3.4058">
        <ele>170.2</ele>
        <time>2017-10-01T08:07:48Z</time>
      </trkpt>
      <trkpt lat="43.603" lon="3.4058">
        <ele>171.1</ele>
        <time>2017-10-01T08:07:52Z</time>
      </trkpt>
      <trkpt lat="43.60308" lon="3.4058">
        <ele>172.1</ele>
        <time>2017-10-01T08:07:56Z</time>
      </trkpt>
      <trkpt lat="43.60316" lon="3.40581">
        <ele>172.8</ele>
        <time>2017-10-01T08:08:00Z</time>
      </trkpt>
      <trkpt lat="43.60325" lon="3.40584">
        <ele>173.5</ele>
        <time>2017-10-01T08:08:02Z</time>
      </trkpt>
      <trkpt lat="43.60334" lon="3.40587">
        <ele>174.1</ele>
        <time>2017-10-01T08:08:05Z</time>
      </trkpt>
      <trkpt lat="43.60342" lon="3.4059">
        <ele>174.7</ele>
        <time>2017-10-01T08:08:08Z</time>
      </trkpt>
      <trkpt lat="43.60349" lon="3.40594">
        <ele>175.1</ele>
        <time>2017-10-01T08:08:11Z</time>
      </trkpt>
      <trkpt lat="43.60358" lon="3.40599">
        <ele>175.5</ele>
        <time>2017-10-01T08:08:14Z</time>
      </trkpt>
      <trkpt lat="43.60366" lon="3.40606">
        <ele>176</ele>
        <time>2017-10-01T08:08:18Z</time>
      </trkpt>
      <trkpt lat="43.60373" lon="3.40614">
        <ele>176.4</ele>
        <time>2017-10-01T08:08:22Z</time>
      </trkpt>
      <trkpt lat="43.6038" lon="3.40621">
        <ele>176.7</ele>
        <time>2017-10-01T08:08:25Z</time>
      </trkpt>
      <trkpt lat="43.60386" lon="3.40627">
        <ele>176.9</ele>
        <time>2017-10-01T08:08:28Z</time>
      </trkpt>
      <trkpt lat="43.60393" lon="3.4063">
        <ele>177.1</ele>
        <time>2017-10-01T08:08:31Z</time>
      </trkpt>
      <trkpt lat="43.60401" lon="3.40636">
        <ele>177.3</ele>
        <time>2017-10-01T08:08:34Z</time>
      </trkpt>
      <trkpt lat="43.60407" lon="3.40642">
        <ele>177.5</ele>
        <time>2017-10-01T08:08:37Z</time>
      </trkpt>
      <trkpt lat="43.60414" lon="3.40649">
        <ele>177.9</ele>
        <time>2017-10-01T08:08:41Z</time>
      </trkpt>
      <trkpt lat="43.60421" lon="3.40657">
        <ele>178.2</ele>
        <time>2017-10-01T08:08:45Z</time>
      </trkpt>
      <trkpt lat="43.60429" lon="3.40662">
        <ele>178.5</ele>
        <time>2017-10-01T08:08:50Z</time>
      </trkpt>
      <trkpt lat="43.60438" lon="3.40666">
        <ele>179.3</ele>
        <time>2017-10-01T08:08:52Z</time>
      </trkpt>
      <trkpt lat="43.60448" lon="3.40669">
        <ele>179.7</ele>
        <time>2017-10-01T08:08:54Z</time>
      </trkpt>
      <trkpt lat="43.60455" lon="3.40669">
        <ele>179.7</ele>
        <time>2017-10-01T08:08:56Z</time>
      </trkpt>
      <trkpt lat="43.60464" lon="3.40667">
        <ele>179.9</ele>
        <time>2017-10-01T08:09:00Z</time>
      </trkpt>
      <trkpt lat="43.60472" lon="3.40664">
        <ele>180</ele>
        <time>2017-10-01T08:09:05Z</time>
      </trkpt>
      <trkpt lat="43.60479" lon="3.4066">
        <ele>179.9</ele>
        <time>2017-10-01T08:09:10Z</time>
      </trkpt>
      <trkpt lat="43.60485" lon="3.40655">
        <ele>179.9</ele>
        <time>2017-10-01T08:09:13Z</time>
      </trkpt>
      <trkpt lat="43.60493" lon="3.4065">
        <ele>179.7</ele>
        <time>2017-10-01T08:09:16Z</time>
      </trkpt>
      <trkpt lat="43.60502" lon="3.40648">
        <ele>178.4</ele>
        <time>2017-10-01T08:09:18Z</time>
      </trkpt>
      <trkpt lat="43.60511" lon="3.40648">
        <ele>177.6</ele>
        <time>2017-10-01T08:09:20Z</time>
      </trkpt>
      <trkpt lat="43.60519" lon="3.40649">
        <ele>177.4</ele>
        <time>2017-10-01T08:09:23Z</time>
      </trkpt>
      <trkpt lat="43.60526" lon="3.40644">
        <ele>177.1</ele>
        <time>2017-10-01T08:09:27Z</time>
      </trkpt>
      <trkpt lat="43.60535" lon="3.40643">
        <ele>176.7</ele>
        <time>2017-10-01T08:09:30Z</time>
      </trkpt>
      <trkpt lat="43.60544" lon="3.40648">
        <ele>176.1</ele>
        <time>2017-10-01T08:09:37Z</time>
      </trkpt>
      <trkpt lat="43.60551" lon="3.40652">
        <ele>175.9</ele>
        <time>2017-10-01T08:09:39Z</time>
      </trkpt>
      <trkpt lat="43.60559" lon="3.40652">
        <ele>175.7</ele>
        <time>2017-10-01T08:09:42Z</time>
      </trkpt>
      <trkpt lat="43.60568" lon="3.40656">
        <ele>175.5</ele>
        <time>2017-10-01T08:09:47Z</time>
      </trkpt>
      <trkpt lat="43.60576" lon="3.40651">
        <ele>175.6</ele>
        <time>2017-10-01T08:09:52Z</time>
      </trkpt>
      <trkpt lat="43.60584" lon="3.40649">
        <ele>175.9</ele>
        <time>2017-10-01T08:09:57Z</time>
      </trkpt>
      <trkpt lat="43.6059" lon="3.40641">
        <ele>176.5</ele>
        <time>2017-10-01T08:10:02Z</time>
      </trkpt>
      <trkpt lat="43.60595" lon="3.40633">
        <ele>176.9</ele>
        <time>2017-10-01T08:10:05Z</time>
      </trkpt>
      <trkpt lat="43.606" lon="3.40625">
        <ele>177.3</ele>
        <time>2017-10-01T08:10:09Z</time>
      </trkpt>
      <trkpt lat="43.60607" lon="3.40616">
        <ele>177.9</ele>
        <time>2017-10-01T08:10:13Z</time>
      </trkpt>
      <trkpt lat="43.60613" lon="3.40609">
        <ele>178.7</ele>
        <time>2017-10-01T08:10:18Z</time>
      </trkpt>
      <trkpt lat="43.60621" lon="3.40603">
        <ele>180.5</ele>
        <time>2017-10-01T08:10:25Z</time>
      </trkpt>
      <trkpt lat="43.60627" lon="3.40597">
        <ele>181.3</ele>
        <time>2017-10-01T08:10:28Z</time>
      </trkpt>
      <trkpt lat="43.60634" lon="3.4059">
        <ele>182.4</ele>
        <time>2017-10-01T08:10:32Z</time>
      </trkpt>
      <trkpt lat="43.6064" lon="3.40583">
        <ele>183.6</ele>
        <time>2017-10-01T08:10:37Z</time>
      </trkpt>
      <trkpt lat="43.60647" lon="3.40576">
        <ele>184.5</ele>
        <time>2017-10-01T08:10:42Z</time>
      </trkpt>
      <trkpt lat="43.60655" lon="3.40572">
        <ele>185</ele>
        <time>2017-10-01T08:10:46Z</time>
      </trkpt>
      <trkpt lat="43.60663" lon="3.40568">
        <ele>185.3</ele>
        <time>2017-10-01T08:10:50Z</time>
      </trkpt>
      <trkpt lat="43.60671" lon="3.40563">
        <ele>185.6</ele>
        <time>2017-10-01T08:10:55Z</time>
      </trkpt>
      <trkpt lat="43.60678" lon="3.40557">
        <ele>185.7</ele>
        <time>2017-10-01T08:10:59Z</time>
      </trkpt>
      <trkpt lat="43.60687" lon="3.40552">
        <ele>185.8</ele>
        <time>2017-10-01T08:11:02Z</time>
      </trkpt>
      <trkpt lat="43.60694" lon="3.40547">
        <ele>185.8</ele>
        <time>2017-10-01T08:11:05Z</time>
      </trkpt>
      <trkpt lat="43.60701" lon="3.40541">
        <ele>185.6</ele>
        <time>2017-10-01T08:11:09Z</time>
      </trkpt>
      <trkpt lat="43.60708" lon="3.40536">
        <ele>185.3</ele>
        <time>2017-10-01T08:11:12Z</time>
      </trkpt>
      <trkpt lat="43.60716" lon="3.4053">
        <ele>185</ele>
        <time>2017-10-01T08:11:15Z</time>
      </trkpt>
      <trkpt lat="43.60722" lon="3.40525">
        <ele>184.8</ele>
        <time>2017-10-01T08:11:18Z</time>
      </trkpt>
      <trkpt lat="43.60731" lon="3.40519">
        <ele>184.4</ele>
        <time>2017-10-01T08:11:22Z</time>
      </trkpt>
      <trkpt lat="43.60739" lon="3.40512">
        <ele>184.1</ele>
        <time>2017-10-01T08:11:26Z</time>
      </trkpt>
      <trkpt lat="43.60746" lon="3.40507">
        <ele>183.9</ele>
        <time>2017-10-01T08:11:29Z</time>
      </trkpt>
      <trkpt lat="43.60754" lon="3.405">
        <ele>183.5</ele>
        <time>2017-10-01T08:11:33Z</time>
      </trkpt>
      <trkpt lat="43.6076" lon="3.40495">
        <ele>183.4</ele>
        <time>2017-10-01T08:11:36Z</time>
      </trkpt>
      <trkpt lat="43.60767" lon="3.40491">
        <ele>183.5</ele>
        <time>2017-10-01T08:11:40Z</time>
      </trkpt>
      <trkpt lat="43.60774" lon="3.40484">
        <ele>183.7</ele>
        <time>2017-10-01T08:11:44Z</time>
      </trkpt>
      <trkpt lat="43.60781" lon="3.40478">
        <ele>184</ele>
        <time>2017-10-01T08:11:48Z</time>
      </trkpt>
      <trkpt lat="43.60789" lon="3.40471">
        <ele>184.4</ele>
        <time>2017-10-01T08:11:52Z</time>
      </trkpt>
      <trkpt lat="43.60796" lon="3.40465">
        <ele>184.7</ele>
        <time>2017-10-01T08:11:55Z</time>
      </trkpt>
      <trkpt lat="43.60803" lon="3.4046">
        <ele>184.8</ele>
        <time>2017-10-01T08:11:58Z</time>
      </trkpt>
      <trkpt lat="43.60811" lon="3.40452">
        <ele>184.9</ele>
        <time>2017-10-01T08:12:02Z</time>
      </trkpt>
      <trkpt lat="43.60817" lon="3.40446">
        <ele>184.9</ele>
        <time>2017-10-01T08:12:05Z</time>
      </trkpt>
      <trkpt lat="43.60823" lon="3.40437">
        <ele>185.1</ele>
        <time>2017-10-01T08:12:09Z</time>
      </trkpt>
      <trkpt lat="43.60829" lon="3.4043">
        <ele>185.1</ele>
        <time>2017-10-01T08:12:12Z</time>
      </trkpt>
      <trkpt lat="43.60835" lon="3.40423">
        <ele>185.1</ele>
        <time>2017-10-01T08:12:15Z</time>
      </trkpt>
      <trkpt lat="43.60843" lon="3.40415">
        <ele>185.1</ele>
        <time>2017-10-01T08:12:19Z</time>
      </trkpt>
      <trkpt lat="43.60849" lon="3.40407">
        <ele>185.1</ele>
        <time>2017-10-01T08:12:22Z</time>
      </trkpt>
      <trkpt lat="43.60855" lon="3.404">
        <ele>185.2</ele>
        <time>2017-10-01T08:12:25Z</time>
      </trkpt>
      <trkpt lat="43.6086" lon="3.40393">
        <ele>185.3</ele>
        <time>2017-10-01T08:12:29Z</time>
      </trkpt>
      <trkpt lat="43.60867" lon="3.40386">
        <ele>185.5</ele>
        <time>2017-10-01T08:12:32Z</time>
      </trkpt>
      <trkpt lat="43.60873" lon="3.40379">
        <ele>185.7</ele>
        <time>2017-10-01T08:12:35Z</time>
      </trkpt>
      <trkpt lat="43.6088" lon="3.40371">
        <ele>186</ele>
        <time>2017-10-01T08:12:39Z</time>
      </trkpt>
      <trkpt lat="43.60885" lon="3.40364">
        <ele>186.2</ele>
        <time>2017-10-01T08:12:43Z</time>
      </trkpt>
      <trkpt lat="43.6089" lon="3.40356">
        <ele>186.2</ele>
        <time>2017-10-01T08:12:47Z</time>
      </trkpt>
      <trkpt lat="43.60897" lon="3.40349">
        <ele>186.1</ele>
        <time>2017-10-01T08:12:51Z</time>
      </trkpt>
      <trkpt lat="43.60903" lon="3.40342">
        <ele>186</ele>
        <time>2017-10-01T08:12:54Z</time>
      </trkpt>
      <trkpt lat="43.60909" lon="3.40336">
        <ele>186</ele>
        <time>2017-10-01T08:12:57Z</time>
      </trkpt>
      <trkpt lat="43.60914" lon="3.40328">
        <ele>186</ele>
        <time>2017-10-01T08:13:00Z</time>
      </trkpt>
      <trkpt lat="43.6092" lon="3.4032">
        <ele>186</ele>
        <time>2017-10-01T08:13:04Z</time>
      </trkpt>
      <trkpt lat="43.60926" lon="3.40312">
        <ele>186.1</ele>
        <time>2017-10-01T08:13:07Z</time>
      </trkpt>
      <trkpt lat="43.60932" lon="3.40304">
        <ele>186.1</ele>
        <time>2017-10-01T08:13:10Z</time>
      </trkpt>
      <trkpt lat="43.60939" lon="3.40296">
        <ele>186</ele>
        <time>2017-10-01T08:13:14Z</time>
      </trkpt>
      <trkpt lat="43.60946" lon="3.40287">
        <ele>186.1</ele>
        <time>2017-10-01T08:13:18Z</time>
      </trkpt>
      <trkpt lat="43.60951" lon="3.40278">
        <ele>186.2</ele>
        <time>2017-10-01T08:13:21Z</time>
      </trkpt>
      <trkpt lat="43.60957" lon="3.40268">
        <ele>186.1</ele>
        <time>2017-10-01T08:13:25Z</time>
      </trkpt>
      <trkpt lat="43.60963" lon="3.40259">
        <ele>186</ele>
        <time>2017-10-01T08:13:29Z</time>
      </trkpt>
      <trkpt lat="43.60969" lon="3.40251">
        <ele>185.8</ele>
        <time>2017-10-01T08:13:33Z</time>
      </trkpt>
      <trkpt lat="43.60976" lon="3.40243">
        <ele>185.7</ele>
        <time>2017-10-01T08:13:37Z</time>
      </trkpt>
      <trkpt lat="43.60981" lon="3.40233">
        <ele>185.8</ele>
        <time>2017-10-01T08:13:43Z</time>
      </trkpt>
      <trkpt lat="43.60988" lon="3.40228">
        <ele>186</ele>
        <time>2017-10-01T08:13:46Z</time>
      </trkpt>
      <trkpt lat="43.60995" lon="3.40218">
        <ele>186.1</ele>
        <time>2017-10-01T08:13:49Z</time>
      </trkpt>
      <trkpt lat="43.61001" lon="3.4021">
        <ele>186.1</ele>
        <time>2017-10-01T08:13:52Z</time>
      </trkpt>
      <trkpt lat="43.61006" lon="3.40202">
        <ele>186</ele>
        <time>2017-10-01T08:13:55Z</time>
      </trkpt>
      <trkpt lat="43.61012" lon="3.40195">
        <ele>186.1</ele>
        <time>2017-10-01T08:13:58Z</time>
      </trkpt>
      <trkpt lat="43.61018" lon="3.40187">
        <ele>186.1</ele>
        <time>2017-10-01T08:14:02Z</time>
      </trkpt>
      <trkpt lat="43.61024" lon="3.40179">
        <ele>186.2</ele>
        <time>2017-10-01T08:14:05Z</time>
      </trkpt>
      <trkpt lat="43.61031" lon="3.40172">
        <ele>186.7</ele>
        <time>2017-10-01T08:14:09Z</time>
      </trkpt>
      <trkpt lat="43.61039" lon="3.40167">
        <ele>187.4</ele>
        <time>2017-10-01T08:14:13Z</time>
      </trkpt>
      <trkpt lat="43.61045" lon="3.40157">
        <ele>187.7</ele>
        <time>2017-10-01T08:14:16Z</time>
      </trkpt>
      <trkpt lat="43.6105" lon="3.40146">
        <ele>187.8</ele>
        <time>2017-10-01T08:14:19Z</time>
      </trkpt>
      <trkpt lat="43.61054" lon="3.40135">
        <ele>187.9</ele>
        <time>2017-10-01T08:14:22Z</time>
      </trkpt>
      <trkpt lat="43.61057" lon="3.40124">
        <ele>187.9</ele>
        <time>2017-10-01T08:14:25Z</time>
      </trkpt>
      <trkpt lat="43.61062" lon="3.40113">
        <ele>187.8</ele>
        <time>2017-10-01T08:14:28Z</time>
      </trkpt>
      <trkpt lat="43.61066" lon="3.40102">
        <ele>187.5</ele>
        <time>2017-10-01T08:14:31Z</time>
      </trkpt>
      <trkpt lat="43.61071" lon="3.40091">
        <ele>187.2</ele>
        <time>2017-10-01T08:14:35Z</time>
      </trkpt>
      <trkpt lat="43.61078" lon="3.40085">
        <ele>187</ele>
        <time>2017-10-01T08:14:38Z</time>
      </trkpt>
      <trkpt lat="43.61084" lon="3.40079">
        <ele>187</ele>
        <time>2017-10-01T08:14:41Z</time>
      </trkpt>
      <trkpt lat="43.61093" lon="3.40074">
        <ele>187</ele>
        <time>2017-10-01T08:14:45Z</time>
      </trkpt>
      <trkpt lat="43.611" lon="3.40068">
        <ele>186.9</ele>
        <time>2017-10-01T08:14:48Z</time>
      </trkpt>
      <trkpt lat="43.61108" lon="3.40062">
        <ele>186.8</ele>
        <time>2017-10-01T08:14:51Z</time>
      </trkpt>
      <trkpt lat="43.61116" lon="3.40055">
        <ele>186.5</ele>
        <time>2017-10-01T08:14:55Z</time>
      </trkpt>
      <trkpt lat="43.61122" lon="3.40046">
        <ele>186.5</ele>
        <time>2017-10-01T08:14:58Z</time>
      </trkpt>
      <trkpt lat="43.6113" lon="3.40038">
        <ele>186.4</ele>
        <time>2017-10-01T08:15:01Z</time>
      </trkpt>
      <trkpt lat="43.61139" lon="3.40036">
        <ele>186.1</ele>
        <time>2017-10-01T08:15:03Z</time>
      </trkpt>
      <trkpt lat="43.6115" lon="3.40035">
        <ele>186.1</ele>
        <time>2017-10-01T08:15:05Z</time>
      </trkpt>
      <trkpt lat="43.61159" lon="3.40032">
        <ele>186.2</ele>
        <time>2017-10-01T08:15:07Z</time>
      </trkpt>
      <trkpt lat="43.61167" lon="3.40028">
        <ele>186.3</ele>
        <time>2017-10-01T08:15:09Z</time>
      </trkpt>
      <trkpt lat="43.61175" lon="3.40025">
        <ele>187.3</ele>
        <time>2017-10-01T08:15:11Z</time>
      </trkpt>
      <trkpt lat="43.61185" lon="3.4002">
        <ele>187.7</ele>
        <time>2017-10-01T08:15:14Z</time>
      </trkpt>
      <trkpt lat="43.61195" lon="3.40017">
        <ele>188</ele>
        <time>2017-10-01T08:15:17Z</time>
      </trkpt>
      <trkpt lat="43.61205" lon="3.40014">
        <ele>188.4</ele>
        <time>2017-10-01T08:15:20Z</time>
      </trkpt>
      <trkpt lat="43.61212" lon="3.40009">
        <ele>188.8</ele>
        <time>2017-10-01T08:15:23Z</time>
      </trkpt>
      <trkpt lat="43.61221" lon="3.40004">
        <ele>189.4</ele>
        <time>2017-10-01T08:15:26Z</time>
      </trkpt>
      <trkpt lat="43.61229" lon="3.4">
        <ele>189.9</ele>
        <time>2017-10-01T08:15:29Z</time>
      </trkpt>
      <trkpt lat="43.61236" lon="3.39999">
        <ele>190.4</ele>
        <time>2017-10-01T08:15:32Z</time>
      </trkpt>
      <trkpt lat="43.6124" lon="3.3999">
        <ele>190.8</ele>
        <time>2017-10-01T08:15:38Z</time>
      </trkpt>
      <trkpt lat="43.61236" lon="3.39982">
        <ele>190.9</ele>
        <time>2017-10-01T08:15:41Z</time>
      </trkpt>
      <trkpt lat="43.61231" lon="3.39972">
        <ele>191.3</ele>
        <time>2017-10-01T08:15:45Z</time>
      </trkpt>
      <trkpt lat="43.61228" lon="3.39961">
        <ele>191.7</ele>
        <time>2017-10-01T08:15:49Z</time>
      </trkpt>
      <trkpt lat="43.61228" lon="3.39951">
        <ele>192.1</ele>
        <time>2017-10-01T08:15:53Z</time>
      </trkpt>
      <trkpt lat="43.61236" lon="3.39944">
        <ele>192.4</ele>
        <time>2017-10-01T08:15:56Z</time>
      </trkpt>
      <trkpt lat="43.61243" lon="3.39938">
        <ele>192.9</ele>
        <time>2017-10-01T08:15:59Z</time>
      </trkpt>
      <trkpt lat="43.6125" lon="3.39931">
        <ele>193.4</ele>
        <time>2017-10-01T08:16:02Z</time>
      </trkpt>
      <trkpt lat="43.61256" lon="3.39924">
        <ele>194</ele>
        <time>2017-10-01T08:16:05Z</time>
      </trkpt>
      <trkpt lat="43.61261" lon="3.39916">
        <ele>194.3</ele>
        <time>2017-10-01T08:16:07Z</time>
      </trkpt>
      <trkpt lat="43.6127" lon="3.39911">
        <ele>194.3</ele>
        <time>2017-10-01T08:16:10Z</time>
      </trkpt>
      <trkpt lat="43.61279" lon="3.39908">
        <ele>194</ele>
        <time>2017-10-01T08:16:13Z</time>
      </trkpt>
      <trkpt lat="43.61287" lon="3.39905">
        <ele>193.7</ele>
        <time>2017-10-01T08:16:16Z</time>
      </trkpt>
      <trkpt lat="43.61294" lon="3.39899">
        <ele>193.6</ele>
        <time>2017-10-01T08:16:18Z</time>
      </trkpt>
      <trkpt lat="43.61302" lon="3.39893">
        <ele>193.4</ele>
        <time>2017-10-01T08:16:21Z</time>
      </trkpt>
      <trkpt lat="43.61311" lon="3.3989">
        <ele>193.4</ele>
        <time>2017-10-01T08:16:24Z</time>
      </trkpt>
      <trkpt lat="43.61318" lon="3.39886">
        <ele>193.5</ele>
        <time>2017-10-01T08:16:27Z</time>
      </trkpt>
      <trkpt lat="43.61327" lon="3.39883">
        <ele>193.6</ele>
        <time>2017-10-01T08:16:29Z</time>
      </trkpt>
      <trkpt lat="43.61336" lon="3.39876">
        <ele>193.7</ele>
        <time>2017-10-01T08:16:31Z</time>
      </trkpt>
      <trkpt lat="43.61344" lon="3.3987">
        <ele>193.9</ele>
        <time>2017-10-01T08:16:34Z</time>
      </trkpt>
      <trkpt lat="43.61351" lon="3.39866">
        <ele>194.3</ele>
        <time>2017-10-01T08:16:37Z</time>
      </trkpt>
      <trkpt lat="43.61358" lon="3.39861">
        <ele>194.4</ele>
        <time>2017-10-01T08:16:39Z</time>
      </trkpt>
      <trkpt lat="43.61368" lon="3.39854">
        <ele>194.6</ele>
        <time>2017-10-01T08:16:42Z</time>
      </trkpt>
      <trkpt lat="43.61375" lon="3.39848">
        <ele>194.7</ele>
        <time>2017-10-01T08:16:45Z</time>
      </trkpt>
      <trkpt lat="43.61385" lon="3.39842">
        <ele>194.8</ele>
        <time>2017-10-01T08:16:48Z</time>
      </trkpt>
      <trkpt lat="43.61393" lon="3.39839">
        <ele>195</ele>
        <time>2017-10-01T08:16:50Z</time>
      </trkpt>
      <trkpt lat="43.61402" lon="3.39834">
        <ele>195.4</ele>
        <time>2017-10-01T08:16:52Z</time>
      </trkpt>
      <trkpt lat="43.61411" lon="3.3983">
        <ele>195.9</ele>
        <time>2017-10-01T08:16:55Z</time>
      </trkpt>
      <trkpt lat="43.6142" lon="3.39824">
        <ele>196.3</ele>
        <time>2017-10-01T08:16:58Z</time>
      </trkpt>
      <trkpt lat="43.61427" lon="3.3982">
        <ele>196.5</ele>
        <time>2017-10-01T08:17:00Z</time>
      </trkpt>
      <trkpt lat="43.61435" lon="3.39814">
        <ele>196.6</ele>
        <time>2017-10-01T08:17:02Z</time>
      </trkpt>
      <trkpt lat="43.61443" lon="3.3981">
        <ele>196.7</ele>
        <time>2017-10-01T08:17:05Z</time>
      </trkpt>
      <trkpt lat="43.61453" lon="3.39802">
        <ele>196.8</ele>
        <time>2017-10-01T08:17:08Z</time>
      </trkpt>
      <trkpt lat="43.61458" lon="3.39793">
        <ele>196.9</ele>
        <time>2017-10-01T08:17:10Z</time>
      </trkpt>
      <trkpt lat="43.61456" lon="3.39782">
        <ele>197.2</ele>
        <time>2017-10-01T08:17:14Z</time>
      </trkpt>
      <trkpt lat="43.61453" lon="3.39772">
        <ele>197.4</ele>
        <time>2017-10-01T08:17:17Z</time>
      </trkpt>
      <trkpt lat="43.61452" lon="3.39761">
        <ele>197.7</ele>
        <time>2017-10-01T08:17:20Z</time>
      </trkpt>
      <trkpt lat="43.61451" lon="3.3975">
        <ele>197.8</ele>
        <time>2017-10-01T08:17:24Z</time>
      </trkpt>
      <trkpt lat="43.61452" lon="3.39739">
        <ele>197.9</ele>
        <time>2017-10-01T08:17:28Z</time>
      </trkpt>
      <trkpt lat="43.61453" lon="3.39725">
        <ele>198.2</ele>
        <time>2017-10-01T08:17:31Z</time>
      </trkpt>
      <trkpt lat="43.6145" lon="3.39715">
        <ele>198.4</ele>
        <time>2017-10-01T08:17:35Z</time>
      </trkpt>
      <trkpt lat="43.61443" lon="3.39709">
        <ele>198.4</ele>
        <time>2017-10-01T08:17:39Z</time>
      </trkpt>
      <trkpt lat="43.61436" lon="3.39704">
        <ele>198.3</ele>
        <time>2017-10-01T08:17:43Z</time>
      </trkpt>
      <trkpt lat="43.61426" lon="3.39703">
        <ele>198.2</ele>
        <time>2017-10-01T08:17:47Z</time>
      </trkpt>
      <trkpt lat="43.61418" lon="3.39699">
        <ele>198</ele>
        <time>2017-10-01T08:17:51Z</time>
      </trkpt>
      <trkpt lat="43.6141" lon="3.39696">
        <ele>197.8</ele>
        <time>2017-10-01T08:17:55Z</time>
      </trkpt>
      <trkpt lat="43.61401" lon="3.39695">
        <ele>197.7</ele>
        <time>2017-10-01T08:17:59Z</time>
      </trkpt>
      <trkpt lat="43.61394" lon="3.39695">
        <ele>197.7</ele>
        <time>2017-10-01T08:18:04Z</time>
      </trkpt>
      <trkpt lat="43.61385" lon="3.39695">
        <ele>197.6</ele>
        <time>2017-10-01T08:18:08Z</time>
      </trkpt>
      <trkpt lat="43.61378" lon="3.39694">
        <ele>197.5</ele>
        <time>2017-10-01T08:18:13Z</time>
      </trkpt>
      <trkpt lat="43.6137" lon="3.39694">
        <ele>197.6</ele>
        <time>2017-10-01T08:18:17Z</time>
      </trkpt>
      <trkpt lat="43.61361" lon="3.39693">
        <ele>198.3</ele>
        <time>2017-10-01T08:18:24Z</time>
      </trkpt>
      <trkpt lat="43.61354" lon="3.39693">
        <ele>199</ele>
        <time>2017-10-01T08:18:30Z</time>
      </trkpt>
      <trkpt lat="43.61347" lon="3.39693">
        <ele>199.8</ele>
        <time>2017-10-01T08:18:36Z</time>
      </trkpt>
      <trkpt lat="43.6134" lon="3.39695">
        <ele>201</ele>
        <time>2017-10-01T08:18:43Z</time>
      </trkpt>
      <trkpt lat="43.61331" lon="3.39695">
        <ele>201.4</ele>
        <time>2017-10-01T08:18:47Z</time>
      </trkpt>
      <trkpt lat="43.61323" lon="3.39696">
        <ele>201.7</ele>
        <time>2017-10-01T08:18:51Z</time>
      </trkpt>
      <trkpt lat="43.61314" lon="3.39695">
        <ele>202</ele>
        <time>2017-10-01T08:18:54Z</time>
      </trkpt>
      <trkpt lat="43.61306" lon="3.39694">
        <ele>202.3</ele>
        <time>2017-10-01T08:18:59Z</time>
      </trkpt>
      <trkpt lat="43.61299" lon="3.39698">
        <ele>202.5</ele>
        <time>2017-10-01T08:19:03Z</time>
      </trkpt>
      <trkpt lat="43.6129" lon="3.39698">
        <ele>202.8</ele>
        <time>2017-10-01T08:19:08Z</time>
      </trkpt>
      <trkpt lat="43.61282" lon="3.39698">
        <ele>203.1</ele>
        <time>2017-10-01T08:19:13Z</time>
      </trkpt>
      <trkpt lat="43.61274" lon="3.39697">
        <ele>203.4</ele>
        <time>2017-10-01T08:19:17Z</time>
      </trkpt>
      <trkpt lat="43.61267" lon="3.39692">
        <ele>203.6</ele>
        <time>2017-10-01T08:19:22Z</time>
      </trkpt>
      <trkpt lat="43.61259" lon="3.3969">
        <ele>204.2</ele>
        <time>2017-10-01T08:19:28Z</time>
      </trkpt>
      <trkpt lat="43.61252" lon="3.39685">
        <ele>204.9</ele>
        <time>2017-10-01T08:19:32Z</time>
      </trkpt>
      <trkpt lat="43.61246" lon="3.39685">
        <ele>207.8</ele>
        <time>2017-10-01T08:19:41Z</time>
      </trkpt>
      <trkpt lat="43.6124" lon="3.3968">
        <ele>209.3</ele>
        <time>2017-10-01T08:19:46Z</time>
      </trkpt>
      <trkpt lat="43.61233" lon="3.39675">
        <ele>210.2</ele>
        <time>2017-10-01T08:19:50Z</time>
      </trkpt>
      <trkpt lat="43.61226" lon="3.3967">
        <ele>211</ele>
        <time>2017-10-01T08:19:55Z</time>
      </trkpt>
      <trkpt lat="43.61222" lon="3.3966">
        <ele>211.8</ele>
        <time>2017-10-01T08:20:00Z</time>
      </trkpt>
      <trkpt lat="43.61226" lon="3.3965">
        <ele>212.8</ele>
        <time>2017-10-01T08:20:06Z</time>
      </trkpt>
      <trkpt lat="43.61231" lon="3.39644">
        <ele>214</ele>
        <time>2017-10-01T08:20:11Z</time>
      </trkpt>
      <trkpt lat="43.61233" lon="3.39633">
        <ele>215.4</ele>
        <time>2017-10-01T08:20:17Z</time>
      </trkpt>
      <trkpt lat="43.61231" lon="3.39623">
        <ele>216.7</ele>
        <time>2017-10-01T08:20:23Z</time>
      </trkpt>
      <trkpt lat="43.61229" lon="3.39619">
        <ele>217.5</ele>
        <time>2017-10-01T08:20:30Z</time>
      </trkpt>
      <trkpt lat="43.61223" lon="3.39626">
        <ele>218.7</ele>
        <time>2017-10-01T08:21:12Z</time>
      </trkpt>
      <trkpt lat="43.61217" lon="3.39634">
        <ele>218.9</ele>
        <time>2017-10-01T08:21:15Z</time>
      </trkpt>
      <trkpt lat="43.61208" lon="3.39638">
        <ele>219.1</ele>
        <time>2017-10-01T08:21:18Z</time>
      </trkpt>
      <trkpt lat="43.61201" lon="3.39641">
        <ele>219.2</ele>
        <time>2017-10-01T08:21:20Z</time>
      </trkpt>
      <trkpt lat="43.61193" lon="3.39645">
        <ele>219.2</ele>
        <time>2017-10-01T08:21:22Z</time>
      </trkpt>
      <trkpt lat="43.61185" lon="3.39646">
        <ele>219.2</ele>
        <time>2017-10-01T08:21:25Z</time>
      </trkpt>
      <trkpt lat="43.61177" lon="3.39645">
        <ele>219.2</ele>
        <time>2017-10-01T08:21:28Z</time>
      </trkpt>
      <trkpt lat="43.61168" lon="3.3965">
        <ele>219.2</ele>
        <time>2017-10-01T08:21:31Z</time>
      </trkpt>
      <trkpt lat="43.61161" lon="3.39656">
        <ele>219</ele>
        <time>2017-10-01T08:21:33Z</time>
      </trkpt>
      <trkpt lat="43.61154" lon="3.39661">
        <ele>219</ele>
        <time>2017-10-01T08:21:35Z</time>
      </trkpt>
      <trkpt lat="43.61147" lon="3.3967">
        <ele>218.8</ele>
        <time>2017-10-01T08:21:38Z</time>
      </trkpt>
      <trkpt lat="43.6114" lon="3.39677">
        <ele>218.6</ele>
        <time>2017-10-01T08:21:41Z</time>
      </trkpt>
      <trkpt lat="43.61133" lon="3.39684">
        <ele>218.3</ele>
        <time>2017-10-01T08:21:44Z</time>
      </trkpt>
      <trkpt lat="43.61127" lon="3.39691">
        <ele>218.1</ele>
        <time>2017-10-01T08:21:46Z</time>
      </trkpt>
      <trkpt lat="43.6112" lon="3.39695">
        <ele>217.8</ele>
        <time>2017-10-01T08:21:48Z</time>
      </trkpt>
      <trkpt lat="43.61112" lon="3.39699">
        <ele>217.4</ele>
        <time>2017-10-01T08:21:51Z</time>
      </trkpt>
      <trkpt lat="43.61112" lon="3.397">
        <ele>217.2</ele>
        <time>2017-10-01T08:21:58Z</time>
      </trkpt>
      <trkpt lat="43.61105" lon="3.39704">
        <ele>216.6</ele>
        <time>2017-10-01T08:22:06Z</time>
      </trkpt>
      <trkpt lat="43.61102" lon="3.39717">
        <ele>216.3</ele>
        <time>2017-10-01T08:22:10Z</time>
      </trkpt>
      <trkpt lat="43.61097" lon="3.39727">
        <ele>216.2</ele>
        <time>2017-10-01T08:22:14Z</time>
      </trkpt>
      <trkpt lat="43.61093" lon="3.39737">
        <ele>215.9</ele>
        <time>2017-10-01T08:22:18Z</time>
      </trkpt>
      <trkpt lat="43.6109" lon="3.39748">
        <ele>215.7</ele>
        <time>2017-10-01T08:22:22Z</time>
      </trkpt>
      <trkpt lat="43.61085" lon="3.39759">
        <ele>215.4</ele>
        <time>2017-10-01T08:22:25Z</time>
      </trkpt>
      <trkpt lat="43.61078" lon="3.39765">
        <ele>215.2</ele>
        <time>2017-10-01T08:22:27Z</time>
      </trkpt>
      <trkpt lat="43.61071" lon="3.39773">
        <ele>214.9</ele>
        <time>2017-10-01T08:22:30Z</time>
      </trkpt>
      <trkpt lat="43.61069" lon="3.39783">
        <ele>214.7</ele>
        <time>2017-10-01T08:22:33Z</time>
      </trkpt>
      <trkpt lat="43.61064" lon="3.39791">
        <ele>214.3</ele>
        <time>2017-10-01T08:22:38Z</time>
      </trkpt>
      <trkpt lat="43.61056" lon="3.39796">
        <ele>214</ele>
        <time>2017-10-01T08:22:44Z</time>
      </trkpt>
      <trkpt lat="43.6105" lon="3.39802">
        <ele>213.8</ele>
        <time>2017-10-01T08:22:48Z</time>
      </trkpt>
      <trkpt lat="43.61045" lon="3.39806">
        <ele>213</ele>
        <time>2017-10-01T08:23:02Z</time>
      </trkpt>
      <trkpt lat="43.61046" lon="3.398">
        <ele>212.8</ele>
        <time>2017-10-01T08:23:16Z</time>
      </trkpt>
      <trkpt lat="43.61045" lon="3.39799">
        <ele>212.2</ele>
        <time>2017-10-01T08:23:23Z</time>
      </trkpt>
      <trkpt lat="43.6104" lon="3.39794">
        <ele>212</ele>
        <time>2017-10-01T08:23:37Z</time>
      </trkpt>
      <trkpt lat="43.61033" lon="3.39793">
        <ele>211.6</ele>
        <time>2017-10-01T08:23:55Z</time>
      </trkpt>
      <trkpt lat="43.61025" lon="3.39792">
        <ele>208.7</ele>
        <time>2017-10-01T08:25:27Z</time>
      </trkpt>
      <trkpt lat="43.61023" lon="3.39792">
        <ele>207.6</ele>
        <time>2017-10-01T08:25:40Z</time>
      </trkpt>
      <trkpt lat="43.6103" lon="3.39794">
        <ele>207.1</ele>
        <time>2017-10-01T08:25:47Z</time>
      </trkpt>
      <trkpt lat="43.61033" lon="3.39796">
        <ele>207</ele>
        <time>2017-10-01T08:25:54Z</time>
      </trkpt>
      <trkpt lat="43.61035" lon="3.39794">
        <ele>207.1</ele>
        <time>2017-10-01T08:26:01Z</time>
      </trkpt>
      <trkpt lat="43.61033" lon="3.39794">
        <ele>207</ele>
        <time>2017-10-01T08:28:08Z</time>
      </trkpt>
      <trkpt lat="43.61025" lon="3.39793">
        <ele>206.9</ele>
        <time>2017-10-01T08:28:13Z</time>
      </trkpt>
      <trkpt lat="43.61023" lon="3.39794">
        <ele>206.6</ele>
        <time>2017-10-01T08:28:20Z</time>
      </trkpt>
      <trkpt lat="43.61019" lon="3.39791">
        <ele>206.1</ele>
        <time>2017-10-01T08:28:27Z</time>
      </trkpt>
      <trkpt lat="43.61016" lon="3.39789">
        <ele>204.6</ele>
        <time>2017-10-01T08:28:41Z</time>
      </trkpt>
      <trkpt lat="43.61017" lon="3.39784">
        <ele>204</ele>
        <time>2017-10-01T08:29:02Z</time>
      </trkpt>
      <trkpt lat="43.61019" lon="3.39784">
        <ele>205.1</ele>
        <time>2017-10-01T08:28:47Z</time>
      </trkpt>
      <trkpt lat="43.61018" lon="3.3979">
        <ele>205</ele>
        <time>2017-10-01T08:31:21Z</time>
      </trkpt>
      <trkpt lat="43.61019" lon="3.39791">
        <ele>203.7</ele>
        <time>2017-10-01T08:31:44Z</time>
      </trkpt>
      <trkpt lat="43.61012" lon="3.3979">
        <ele>202.8</ele>
        <time>2017-10-01T08:31:49Z</time>
      </trkpt>
      <trkpt lat="43.61004" lon="3.39788">
        <ele>202.2</ele>
        <time>2017-10-01T08:31:56Z</time>
      </trkpt>
      <trkpt lat="43.61003" lon="3.39787">
        <ele>202</ele>
        <time>2017-10-01T08:32:03Z</time>
      </trkpt>
      <trkpt lat="43.61006" lon="3.39792">
        <ele>201.8</ele>
        <time>2017-10-01T08:32:10Z</time>
      </trkpt>
      <trkpt lat="43.61004" lon="3.39801">
        <ele>201.9</ele>
        <time>2017-10-01T08:32:41Z</time>
      </trkpt>
      <trkpt lat="43.61002" lon="3.39812">
        <ele>201.8</ele>
        <time>2017-10-01T08:32:45Z</time>
      </trkpt>
      <trkpt lat="43.61002" lon="3.39825">
        <ele>201.6</ele>
        <time>2017-10-01T08:32:48Z</time>
      </trkpt>
      <trkpt lat="43.61001" lon="3.39838">
        <ele>201.4</ele>
        <time>2017-10-01T08:32:51Z</time>
      </trkpt>
      <trkpt lat="43.60999" lon="3.39849">
        <ele>201.2</ele>
        <time>2017-10-01T08:32:54Z</time>
      </trkpt>
      <trkpt lat="43.60998" lon="3.3986">
        <ele>201.1</ele>
        <time>2017-10-01T08:32:56Z</time>
      </trkpt>
      <trkpt lat="43.60996" lon="3.39876">
        <ele>201</ele>
        <time>2017-10-01T08:32:59Z</time>
      </trkpt>
      <trkpt lat="43.60995" lon="3.39888">
        <ele>200.9</ele>
        <time>2017-10-01T08:33:01Z</time>
      </trkpt>
      <trkpt lat="43.60994" lon="3.39901">
        <ele>200.8</ele>
        <time>2017-10-01T08:33:03Z</time>
      </trkpt>
      <trkpt lat="43.60993" lon="3.39913">
        <ele>200.8</ele>
        <time>2017-10-01T08:33:06Z</time>
      </trkpt>
      <trkpt lat="43.60993" lon="3.39926">
        <ele>200.8</ele>
        <time>2017-10-01T08:33:09Z</time>
      </trkpt>
      <trkpt lat="43.60989" lon="3.39938">
        <ele>200.7</ele>
        <time>2017-10-01T08:33:13Z</time>
      </trkpt>
      <trkpt lat="43.60981" lon="3.39943">
        <ele>200.8</ele>
        <time>2017-10-01T08:33:16Z</time>
      </trkpt>
      <trkpt lat="43.60982" lon="3.39955">
        <ele>201</ele>
        <time>2017-10-01T08:33:21Z</time>
      </trkpt>
      <trkpt lat="43.60988" lon="3.39971">
        <ele>201.1</ele>
        <time>2017-10-01T08:33:24Z</time>
      </trkpt>
      <trkpt lat="43.60996" lon="3.39989">
        <ele>201.3</ele>
        <time>2017-10-01T08:33:26Z</time>
      </trkpt>
      <trkpt lat="43.60998" lon="3.40005">
        <ele>202.1</ele>
        <time>2017-10-01T08:33:28Z</time>
      </trkpt>
      <trkpt lat="43.61" lon="3.40018">
        <ele>202</ele>
        <time>2017-10-01T08:33:30Z</time>
      </trkpt>
      <trkpt lat="43.61003" lon="3.40027">
        <ele>201.7</ele>
        <time>2017-10-01T08:33:32Z</time>
      </trkpt>
      <trkpt lat="43.61005" lon="3.40039">
        <ele>201.6</ele>
        <time>2017-10-01T08:33:34Z</time>
      </trkpt>
      <trkpt lat="43.61008" lon="3.40052">
        <ele>201.5</ele>
        <time>2017-10-01T08:33:37Z</time>
      </trkpt>
      <trkpt lat="43.61012" lon="3.40065">
        <ele>201.5</ele>
        <time>2017-10-01T08:33:40Z</time>
      </trkpt>
      <trkpt lat="43.61015" lon="3.40077">
        <ele>201.5</ele>
        <time>2017-10-01T08:33:43Z</time>
      </trkpt>
      <trkpt lat="43.61019" lon="3.40086">
        <ele>201.4</ele>
        <time>2017-10-01T08:33:45Z</time>
      </trkpt>
      <trkpt lat="43.61024" lon="3.40096">
        <ele>201</ele>
        <time>2017-10-01T08:33:48Z</time>
      </trkpt>
      <trkpt lat="43.6103" lon="3.40114">
        <ele>200.8</ele>
        <time>2017-10-01T08:33:51Z</time>
      </trkpt>
      <trkpt lat="43.61034" lon="3.40125">
        <ele>200.5</ele>
        <time>2017-10-01T08:33:53Z</time>
      </trkpt>
      <trkpt lat="43.61038" lon="3.40133">
        <ele>200.1</ele>
        <time>2017-10-01T08:33:55Z</time>
      </trkpt>
      <trkpt lat="43.61041" lon="3.40143">
        <ele>199.2</ele>
        <time>2017-10-01T08:33:59Z</time>
      </trkpt>
      <trkpt lat="43.61041" lon="3.40153">
        <ele>198.6</ele>
        <time>2017-10-01T08:34:02Z</time>
      </trkpt>
      <trkpt lat="43.61036" lon="3.40161">
        <ele>198.3</ele>
        <time>2017-10-01T08:34:04Z</time>
      </trkpt>
      <trkpt lat="43.61028" lon="3.40168">
        <ele>197.9</ele>
        <time>2017-10-01T08:34:06Z</time>
      </trkpt>
      <trkpt lat="43.61019" lon="3.40178">
        <ele>194.3</ele>
        <time>2017-10-01T08:34:08Z</time>
      </trkpt>
      <trkpt lat="43.61011" lon="3.40187">
        <ele>191.8</ele>
        <time>2017-10-01T08:34:10Z</time>
      </trkpt>
      <trkpt lat="43.61002" lon="3.40197">
        <ele>190.1</ele>
        <time>2017-10-01T08:34:12Z</time>
      </trkpt>
      <trkpt lat="43.60996" lon="3.40205">
        <ele>189.1</ele>
        <time>2017-10-01T08:34:14Z</time>
      </trkpt>
      <trkpt lat="43.60989" lon="3.40212">
        <ele>188.9</ele>
        <time>2017-10-01T08:34:17Z</time>
      </trkpt>
      <trkpt lat="43.60981" lon="3.40209">
        <ele>188.5</ele>
        <time>2017-10-01T08:34:21Z</time>
      </trkpt>
      <trkpt lat="43.60974" lon="3.402">
        <ele>187.9</ele>
        <time>2017-10-01T08:34:24Z</time>
      </trkpt>
      <trkpt lat="43.60966" lon="3.4019">
        <ele>188</ele>
        <time>2017-10-01T08:34:27Z</time>
      </trkpt>
      <trkpt lat="43.60958" lon="3.40185">
        <ele>187.9</ele>
        <time>2017-10-01T08:34:29Z</time>
      </trkpt>
      <trkpt lat="43.6095" lon="3.40181">
        <ele>187.9</ele>
        <time>2017-10-01T08:34:31Z</time>
      </trkpt>
      <trkpt lat="43.60942" lon="3.40179">
        <ele>187.9</ele>
        <time>2017-10-01T08:34:33Z</time>
      </trkpt>
      <trkpt lat="43.60932" lon="3.40176">
        <ele>188</ele>
        <time>2017-10-01T08:34:36Z</time>
      </trkpt>
      <trkpt lat="43.60924" lon="3.40173">
        <ele>188.3</ele>
        <time>2017-10-01T08:34:38Z</time>
      </trkpt>
      <trkpt lat="43.60916" lon="3.40162">
        <ele>189.2</ele>
        <time>2017-10-01T08:34:41Z</time>
      </trkpt>
      <trkpt lat="43.60911" lon="3.40152">
        <ele>190.5</ele>
        <time>2017-10-01T08:34:43Z</time>
      </trkpt>
      <trkpt lat="43.60906" lon="3.40142">
        <ele>191.6</ele>
        <time>2017-10-01T08:34:45Z</time>
      </trkpt>
      <trkpt lat="43.60902" lon="3.40132">
        <ele>191.6</ele>
        <time>2017-10-01T08:34:47Z</time>
      </trkpt>
      <trkpt lat="43.60898" lon="3.40117">
        <ele>192.6</ele>
        <time>2017-10-01T08:34:50Z</time>
      </trkpt>
      <trkpt lat="43.60896" lon="3.40107">
        <ele>193</ele>
        <time>2017-10-01T08:34:52Z</time>
      </trkpt>
      <trkpt lat="43.60893" lon="3.40096">
        <ele>192.8</ele>
        <time>2017-10-01T08:34:54Z</time>
      </trkpt>
      <trkpt lat="43.60885" lon="3.40088">
        <ele>192.6</ele>
        <time>2017-10-01T08:34:57Z</time>
      </trkpt>
      <trkpt lat="43.60877" lon="3.40089">
        <ele>192.4</ele>
        <time>2017-10-01T08:35:00Z</time>
      </trkpt>
      <trkpt lat="43.60867" lon="3.40095">
        <ele>192.1</ele>
        <time>2017-10-01T08:35:04Z</time>
      </trkpt>
      <trkpt lat="43.60859" lon="3.40098">
        <ele>192.1</ele>
        <time>2017-10-01T08:35:07Z</time>
      </trkpt>
      <trkpt lat="43.60851" lon="3.40095">
        <ele>192</ele>
        <time>2017-10-01T08:35:10Z</time>
      </trkpt>
      <trkpt lat="43.60842" lon="3.40096">
        <ele>191.9</ele>
        <time>2017-10-01T08:35:13Z</time>
      </trkpt>
      <trkpt lat="43.60834" lon="3.40101">
        <ele>191.8</ele>
        <time>2017-10-01T08:35:17Z</time>
      </trkpt>
      <trkpt lat="43.60827" lon="3.40106">
        <ele>191.8</ele>
        <time>2017-10-01T08:35:21Z</time>
      </trkpt>
      <trkpt lat="43.60819" lon="3.40108">
        <ele>192</ele>
        <time>2017-10-01T08:35:24Z</time>
      </trkpt>
      <trkpt lat="43.60812" lon="3.40108">
        <ele>192.1</ele>
        <time>2017-10-01T08:35:28Z</time>
      </trkpt>
      <trkpt lat="43.60817" lon="3.40099">
        <ele>192.7</ele>
        <time>2017-10-01T08:35:34Z</time>
      </trkpt>
      <trkpt lat="43.60822" lon="3.4009">
        <ele>193.4</ele>
        <time>2017-10-01T08:35:38Z</time>
      </trkpt>
      <trkpt lat="43.60822" lon="3.4008">
        <ele>193.9</ele>
        <time>2017-10-01T08:35:42Z</time>
      </trkpt>
      <trkpt lat="43.60817" lon="3.40074">
        <ele>194.4</ele>
        <time>2017-10-01T08:35:46Z</time>
      </trkpt>
      <trkpt lat="43.60808" lon="3.40074">
        <ele>195</ele>
        <time>2017-10-01T08:35:51Z</time>
      </trkpt>
      <trkpt lat="43.60799" lon="3.40077">
        <ele>195.6</ele>
        <time>2017-10-01T08:35:56Z</time>
      </trkpt>
      <trkpt lat="43.60792" lon="3.40081">
        <ele>196.4</ele>
        <time>2017-10-01T08:36:01Z</time>
      </trkpt>
      <trkpt lat="43.60786" lon="3.40087">
        <ele>197.4</ele>
        <time>2017-10-01T08:36:07Z</time>
      </trkpt>
      <trkpt lat="43.6078" lon="3.40095">
        <ele>198.3</ele>
        <time>2017-10-01T08:36:12Z</time>
      </trkpt>
      <trkpt lat="43.60774" lon="3.40102">
        <ele>199.3</ele>
        <time>2017-10-01T08:36:17Z</time>
      </trkpt>
      <trkpt lat="43.60765" lon="3.40109">
        <ele>200.1</ele>
        <time>2017-10-01T08:36:21Z</time>
      </trkpt>
      <trkpt lat="43.60758" lon="3.40114">
        <ele>200.8</ele>
        <time>2017-10-01T08:36:25Z</time>
      </trkpt>
      <trkpt lat="43.6075" lon="3.40116">
        <ele>201.4</ele>
        <time>2017-10-01T08:36:29Z</time>
      </trkpt>
      <trkpt lat="43.60742" lon="3.40117">
        <ele>202</ele>
        <time>2017-10-01T08:36:33Z</time>
      </trkpt>
      <trkpt lat="43.60734" lon="3.40119">
        <ele>202.6</ele>
        <time>2017-10-01T08:36:37Z</time>
      </trkpt>
      <trkpt lat="43.60727" lon="3.40124">
        <ele>203.2</ele>
        <time>2017-10-01T08:36:41Z</time>
      </trkpt>
      <trkpt lat="43.60721" lon="3.40131">
        <ele>203.9</ele>
        <time>2017-10-01T08:36:45Z</time>
      </trkpt>
      <trkpt lat="43.60714" lon="3.40136">
        <ele>204.6</ele>
        <time>2017-10-01T08:36:49Z</time>
      </trkpt>
      <trkpt lat="43.60707" lon="3.40135">
        <ele>205.6</ele>
        <time>2017-10-01T08:36:54Z</time>
      </trkpt>
      <trkpt lat="43.60696" lon="3.40141">
        <ele>208.2</ele>
        <time>2017-10-01T08:37:01Z</time>
      </trkpt>
      <trkpt lat="43.60689" lon="3.40144">
        <ele>209</ele>
        <time>2017-10-01T08:37:03Z</time>
      </trkpt>
      <trkpt lat="43.60681" lon="3.40148">
        <ele>209.7</ele>
        <time>2017-10-01T08:37:05Z</time>
      </trkpt>
      <trkpt lat="43.60674" lon="3.40154">
        <ele>210.8</ele>
        <time>2017-10-01T08:37:09Z</time>
      </trkpt>
      <trkpt lat="43.60672" lon="3.40166">
        <ele>211.8</ele>
        <time>2017-10-01T08:37:13Z</time>
      </trkpt>
      <trkpt lat="43.6067" lon="3.40178">
        <ele>212.4</ele>
        <time>2017-10-01T08:37:16Z</time>
      </trkpt>
      <trkpt lat="43.60668" lon="3.40188">
        <ele>212.9</ele>
        <time>2017-10-01T08:37:19Z</time>
      </trkpt>
      <trkpt lat="43.60666" lon="3.40197">
        <ele>213.1</ele>
        <time>2017-10-01T08:37:22Z</time>
      </trkpt>
      <trkpt lat="43.60663" lon="3.40211">
        <ele>213.3</ele>
        <time>2017-10-01T08:37:26Z</time>
      </trkpt>
      <trkpt lat="43.6066" lon="3.40222">
        <ele>213.5</ele>
        <time>2017-10-01T08:37:30Z</time>
      </trkpt>
      <trkpt lat="43.60654" lon="3.40231">
        <ele>213.7</ele>
        <time>2017-10-01T08:37:33Z</time>
      </trkpt>
      <trkpt lat="43.60647" lon="3.40238">
        <ele>214</ele>
        <time>2017-10-01T08:37:36Z</time>
      </trkpt>
      <trkpt lat="43.6064" lon="3.40244">
        <ele>214.4</ele>
        <time>2017-10-01T08:37:40Z</time>
      </trkpt>
      <trkpt lat="43.60633" lon="3.40252">
        <ele>215</ele>
        <time>2017-10-01T08:37:44Z</time>
      </trkpt>
      <trkpt lat="43.60625" lon="3.4026">
        <ele>215.6</ele>
        <time>2017-10-01T08:37:48Z</time>
      </trkpt>
      <trkpt lat="43.60621" lon="3.40267">
        <ele>216</ele>
        <time>2017-10-01T08:37:51Z</time>
      </trkpt>
      <trkpt lat="43.60614" lon="3.40274">
        <ele>216.5</ele>
        <time>2017-10-01T08:37:55Z</time>
      </trkpt>
      <trkpt lat="43.60608" lon="3.40281">
        <ele>216.9</ele>
        <time>2017-10-01T08:37:58Z</time>
      </trkpt>
      <trkpt lat="43.60601" lon="3.40289">
        <ele>217.3</ele>
        <time>2017-10-01T08:38:02Z</time>
      </trkpt>
      <trkpt lat="43.60595" lon="3.40296">
        <ele>217.7</ele>
        <time>2017-10-01T08:38:06Z</time>
      </trkpt>
      <trkpt lat="43.60589" lon="3.40301">
        <ele>218.1</ele>
        <time>2017-10-01T08:38:09Z</time>
      </trkpt>
      <trkpt lat="43.6058" lon="3.40304">
        <ele>218.6</ele>
        <time>2017-10-01T08:38:13Z</time>
      </trkpt>
      <trkpt lat="43.60572" lon="3.40306">
        <ele>219.2</ele>
        <time>2017-10-01T08:38:17Z</time>
      </trkpt>
      <trkpt lat="43.60564" lon="3.40308">
        <ele>219.8</ele>
        <time>2017-10-01T08:38:21Z</time>
      </trkpt>
      <trkpt lat="43.60556" lon="3.40306">
        <ele>220.4</ele>
        <time>2017-10-01T08:38:25Z</time>
      </trkpt>
      <trkpt lat="43.60548" lon="3.40305">
        <ele>221</ele>
        <time>2017-10-01T08:38:29Z</time>
      </trkpt>
      <trkpt lat="43.60545" lon="3.40297">
        <ele>222.4</ele>
        <time>2017-10-01T08:38:36Z</time>
      </trkpt>
      <trkpt lat="43.60546" lon="3.40292">
        <ele>224.4</ele>
        <time>2017-10-01T08:38:43Z</time>
      </trkpt>
      <trkpt lat="43.60549" lon="3.40293">
        <ele>226.3</ele>
        <time>2017-10-01T08:38:50Z</time>
      </trkpt>
      <trkpt lat="43.60553" lon="3.40284">
        <ele>228.1</ele>
        <time>2017-10-01T08:39:02Z</time>
      </trkpt>
      <trkpt lat="43.60559" lon="3.40275">
        <ele>229.1</ele>
        <time>2017-10-01T08:39:08Z</time>
      </trkpt>
      <trkpt lat="43.60563" lon="3.40265">
        <ele>229.7</ele>
        <time>2017-10-01T08:39:13Z</time>
      </trkpt>
      <trkpt lat="43.60566" lon="3.40255">
        <ele>230.5</ele>
        <time>2017-10-01T08:39:18Z</time>
      </trkpt>
      <trkpt lat="43.6057" lon="3.40243">
        <ele>231.5</ele>
        <time>2017-10-01T08:39:24Z</time>
      </trkpt>
      <trkpt lat="43.60572" lon="3.40235">
        <ele>232.2</ele>
        <time>2017-10-01T08:39:28Z</time>
      </trkpt>
      <trkpt lat="43.60573" lon="3.40224">
        <ele>233.1</ele>
        <time>2017-10-01T08:39:33Z</time>
      </trkpt>
      <trkpt lat="43.60575" lon="3.40212">
        <ele>234</ele>
        <time>2017-10-01T08:39:37Z</time>
      </trkpt>
      <trkpt lat="43.60574" lon="3.40201">
        <ele>234.5</ele>
        <time>2017-10-01T08:39:40Z</time>
      </trkpt>
      <trkpt lat="43.60574" lon="3.40188">
        <ele>235.1</ele>
        <time>2017-10-01T08:39:44Z</time>
      </trkpt>
      <trkpt lat="43.60573" lon="3.40176">
        <ele>235.9</ele>
        <time>2017-10-01T08:39:49Z</time>
      </trkpt>
      <trkpt lat="43.60573" lon="3.40164">
        <ele>236.5</ele>
        <time>2017-10-01T08:39:53Z</time>
      </trkpt>
      <trkpt lat="43.60576" lon="3.40154">
        <ele>236.9</ele>
        <time>2017-10-01T08:39:56Z</time>
      </trkpt>
      <trkpt lat="43.6058" lon="3.40144">
        <ele>237.2</ele>
        <time>2017-10-01T08:39:59Z</time>
      </trkpt>
      <trkpt lat="43.60586" lon="3.40136">
        <ele>237.5</ele>
        <time>2017-10-01T08:40:01Z</time>
      </trkpt>
      <trkpt lat="43.6059" lon="3.40126">
        <ele>237.8</ele>
        <time>2017-10-01T08:40:04Z</time>
      </trkpt>
      <trkpt lat="43.60593" lon="3.40116">
        <ele>238.1</ele>
        <time>2017-10-01T08:40:07Z</time>
      </trkpt>
      <trkpt lat="43.60597" lon="3.40104">
        <ele>238.4</ele>
        <time>2017-10-01T08:40:10Z</time>
      </trkpt>
      <trkpt lat="43.60601" lon="3.4009">
        <ele>238.7</ele>
        <time>2017-10-01T08:40:13Z</time>
      </trkpt>
      <trkpt lat="43.606" lon="3.4008">
        <ele>239.1</ele>
        <time>2017-10-01T08:40:18Z</time>
      </trkpt>
      <trkpt lat="43.60599" lon="3.40069">
        <ele>239.3</ele>
        <time>2017-10-01T08:40:23Z</time>
      </trkpt>
      <trkpt lat="43.60599" lon="3.40056">
        <ele>239.8</ele>
        <time>2017-10-01T08:40:29Z</time>
      </trkpt>
      <trkpt lat="43.60599" lon="3.40045">
        <ele>240.6</ele>
        <time>2017-10-01T08:40:35Z</time>
      </trkpt>
      <trkpt lat="43.60598" lon="3.40035">
        <ele>241.2</ele>
        <time>2017-10-01T08:40:39Z</time>
      </trkpt>
      <trkpt lat="43.606" lon="3.40024">
        <ele>241.9</ele>
        <time>2017-10-01T08:40:44Z</time>
      </trkpt>
      <trkpt lat="43.60603" lon="3.40015">
        <ele>242.8</ele>
        <time>2017-10-01T08:40:49Z</time>
      </trkpt>
      <trkpt lat="43.60607" lon="3.40003">
        <ele>244</ele>
        <time>2017-10-01T08:40:55Z</time>
      </trkpt>
      <trkpt lat="43.60611" lon="3.39995">
        <ele>244.8</ele>
        <time>2017-10-01T08:41:00Z</time>
      </trkpt>
      <trkpt lat="43.60613" lon="3.39984">
        <ele>245.6</ele>
        <time>2017-10-01T08:41:05Z</time>
      </trkpt>
      <trkpt lat="43.60611" lon="3.39974">
        <ele>246.4</ele>
        <time>2017-10-01T08:41:10Z</time>
      </trkpt>
      <trkpt lat="43.60609" lon="3.39963">
        <ele>247</ele>
        <time>2017-10-01T08:41:15Z</time>
      </trkpt>
      <trkpt lat="43.60616" lon="3.39956">
        <ele>247.4</ele>
        <time>2017-10-01T08:41:19Z</time>
      </trkpt>
      <trkpt lat="43.60624" lon="3.39954">
        <ele>247.8</ele>
        <time>2017-10-01T08:41:23Z</time>
      </trkpt>
      <trkpt lat="43.60632" lon="3.39948">
        <ele>248</ele>
        <time>2017-10-01T08:41:26Z</time>
      </trkpt>
      <trkpt lat="43.60639" lon="3.39938">
        <ele>248.3</ele>
        <time>2017-10-01T08:41:29Z</time>
      </trkpt>
      <trkpt lat="43.60644" lon="3.3993">
        <ele>248.4</ele>
        <time>2017-10-01T08:41:31Z</time>
      </trkpt>
      <trkpt lat="43.60649" lon="3.39921">
        <ele>248.5</ele>
        <time>2017-10-01T08:41:33Z</time>
      </trkpt>
      <trkpt lat="43.60654" lon="3.3991">
        <ele>248.7</ele>
        <time>2017-10-01T08:41:36Z</time>
      </trkpt>
      <trkpt lat="43.60656" lon="3.39897">
        <ele>248.8</ele>
        <time>2017-10-01T08:41:39Z</time>
      </trkpt>
      <trkpt lat="43.60661" lon="3.39889">
        <ele>248.9</ele>
        <time>2017-10-01T08:41:41Z</time>
      </trkpt>
      <trkpt lat="43.60667" lon="3.39884">
        <ele>249</ele>
        <time>2017-10-01T08:41:43Z</time>
      </trkpt>
      <trkpt lat="43.60673" lon="3.39877">
        <ele>249.2</ele>
        <time>2017-10-01T08:41:45Z</time>
      </trkpt>
      <trkpt lat="43.60674" lon="3.39865">
        <ele>249.5</ele>
        <time>2017-10-01T08:41:48Z</time>
      </trkpt>
      <trkpt lat="43.60678" lon="3.3985">
        <ele>249.8</ele>
        <time>2017-10-01T08:41:51Z</time>
      </trkpt>
      <trkpt lat="43.60683" lon="3.39841">
        <ele>250</ele>
        <time>2017-10-01T08:41:53Z</time>
      </trkpt>
      <trkpt lat="43.60692" lon="3.39835">
        <ele>250.2</ele>
        <time>2017-10-01T08:41:56Z</time>
      </trkpt>
      <trkpt lat="43.60698" lon="3.3983">
        <ele>250.3</ele>
        <time>2017-10-01T08:41:58Z</time>
      </trkpt>
      <trkpt lat="43.60705" lon="3.39826">
        <ele>250.5</ele>
        <time>2017-10-01T08:42:00Z</time>
      </trkpt>
      <trkpt lat="43.60715" lon="3.39829">
        <ele>250.9</ele>
        <time>2017-10-01T08:42:02Z</time>
      </trkpt>
      <trkpt lat="43.60723" lon="3.39835">
        <ele>250.8</ele>
        <time>2017-10-01T08:42:04Z</time>
      </trkpt>
      <trkpt lat="43.60731" lon="3.39847">
        <ele>249.3</ele>
        <time>2017-10-01T08:42:06Z</time>
      </trkpt>
      <trkpt lat="43.60732" lon="3.39861">
        <ele>247</ele>
        <time>2017-10-01T08:42:08Z</time>
      </trkpt>
      <trkpt lat="43.6073" lon="3.39876">
        <ele>244.7</ele>
        <time>2017-10-01T08:42:10Z</time>
      </trkpt>
      <trkpt lat="43.60734" lon="3.39884">
        <ele>244.4</ele>
        <time>2017-10-01T08:42:14Z</time>
      </trkpt>
      <trkpt lat="43.6074" lon="3.39876">
        <ele>244.5</ele>
        <time>2017-10-01T08:42:18Z</time>
      </trkpt>
      <trkpt lat="43.60744" lon="3.39863">
        <ele>245</ele>
        <time>2017-10-01T08:42:21Z</time>
      </trkpt>
      <trkpt lat="43.60746" lon="3.39849">
        <ele>245.1</ele>
        <time>2017-10-01T08:42:23Z</time>
      </trkpt>
      <trkpt lat="43.60742" lon="3.39836">
        <ele>245.1</ele>
        <time>2017-10-01T08:42:25Z</time>
      </trkpt>
      <trkpt lat="43.60741" lon="3.39821">
        <ele>245</ele>
        <time>2017-10-01T08:42:27Z</time>
      </trkpt>
      <trkpt lat="43.60735" lon="3.39808">
        <ele>244.5</ele>
        <time>2017-10-01T08:42:29Z</time>
      </trkpt>
      <trkpt lat="43.60729" lon="3.39796">
        <ele>243.6</ele>
        <time>2017-10-01T08:42:31Z</time>
      </trkpt>
      <trkpt lat="43.60724" lon="3.39784">
        <ele>242.5</ele>
        <time>2017-10-01T08:42:33Z</time>
      </trkpt>
      <trkpt lat="43.60721" lon="3.39769">
        <ele>242</ele>
        <time>2017-10-01T08:42:35Z</time>
      </trkpt>
      <trkpt lat="43.6072" lon="3.39757">
        <ele>242.3</ele>
        <time>2017-10-01T08:42:37Z</time>
      </trkpt>
      <trkpt lat="43.60714" lon="3.39739">
        <ele>242.6</ele>
        <time>2017-10-01T08:42:39Z</time>
      </trkpt>
      <trkpt lat="43.60708" lon="3.39722">
        <ele>242.3</ele>
        <time>2017-10-01T08:42:41Z</time>
      </trkpt>
      <trkpt lat="43.60701" lon="3.39716">
        <ele>241.7</ele>
        <time>2017-10-01T08:42:44Z</time>
      </trkpt>
      <trkpt lat="43.60701" lon="3.39706">
        <ele>240.3</ele>
        <time>2017-10-01T08:42:50Z</time>
      </trkpt>
      <trkpt lat="43.60711" lon="3.39698">
        <ele>239.8</ele>
        <time>2017-10-01T08:42:53Z</time>
      </trkpt>
      <trkpt lat="43.60718" lon="3.39693">
        <ele>239.3</ele>
        <time>2017-10-01T08:42:55Z</time>
      </trkpt>
      <trkpt lat="43.60725" lon="3.39687">
        <ele>238.8</ele>
        <time>2017-10-01T08:42:57Z</time>
      </trkpt>
      <trkpt lat="43.60732" lon="3.39686">
        <ele>238.4</ele>
        <time>2017-10-01T08:42:59Z</time>
      </trkpt>
      <trkpt lat="43.6074" lon="3.39686">
        <ele>237.9</ele>
        <time>2017-10-01T08:43:01Z</time>
      </trkpt>
      <trkpt lat="43.60751" lon="3.39692">
        <ele>235.3</ele>
        <time>2017-10-01T08:43:04Z</time>
      </trkpt>
      <trkpt lat="43.6076" lon="3.397">
        <ele>232.9</ele>
        <time>2017-10-01T08:43:06Z</time>
      </trkpt>
      <trkpt lat="43.60762" lon="3.39711">
        <ele>229.5</ele>
        <time>2017-10-01T08:43:08Z</time>
      </trkpt>
      <trkpt lat="43.60771" lon="3.39711">
        <ele>229.1</ele>
        <time>2017-10-01T08:43:11Z</time>
      </trkpt>
      <trkpt lat="43.60777" lon="3.39702">
        <ele>228.2</ele>
        <time>2017-10-01T08:43:13Z</time>
      </trkpt>
      <trkpt lat="43.60779" lon="3.39688">
        <ele>228</ele>
        <time>2017-10-01T08:43:15Z</time>
      </trkpt>
      <trkpt lat="43.60778" lon="3.39677">
        <ele>227.7</ele>
        <time>2017-10-01T08:43:17Z</time>
      </trkpt>
      <trkpt lat="43.60773" lon="3.39669">
        <ele>226</ele>
        <time>2017-10-01T08:43:19Z</time>
      </trkpt>
      <trkpt lat="43.60766" lon="3.39661">
        <ele>225.6</ele>
        <time>2017-10-01T08:43:21Z</time>
      </trkpt>
      <trkpt lat="43.60772" lon="3.39655">
        <ele>225.1</ele>
        <time>2017-10-01T08:43:26Z</time>
      </trkpt>
      <trkpt lat="43.60781" lon="3.39658">
        <ele>224.8</ele>
        <time>2017-10-01T08:43:28Z</time>
      </trkpt>
      <trkpt lat="43.60781" lon="3.39658">
        <ele>224.3</ele>
        <time>2017-10-01T08:43:35Z</time>
      </trkpt>
      <trkpt lat="43.60777" lon="3.39658">
        <ele>223</ele>
        <time>2017-10-01T08:44:05Z</time>
      </trkpt>
      <trkpt lat="43.60773" lon="3.39652">
        <ele>222.3</ele>
        <time>2017-10-01T08:44:25Z</time>
      </trkpt>
      <trkpt lat="43.60766" lon="3.39641">
        <ele>221.6</ele>
        <time>2017-10-01T08:44:28Z</time>
      </trkpt>
      <trkpt lat="43.60761" lon="3.39631">
        <ele>218.6</ele>
        <time>2017-10-01T08:44:30Z</time>
      </trkpt>
      <trkpt lat="43.60752" lon="3.3962">
        <ele>214</ele>
        <time>2017-10-01T08:44:32Z</time>
      </trkpt>
      <trkpt lat="43.60739" lon="3.39613">
        <ele>210.6</ele>
        <time>2017-10-01T08:44:34Z</time>
      </trkpt>
      <trkpt lat="43.60728" lon="3.3961">
        <ele>207.1</ele>
        <time>2017-10-01T08:44:36Z</time>
      </trkpt>
      <trkpt lat="43.60718" lon="3.39604">
        <ele>204.6</ele>
        <time>2017-10-01T08:44:38Z</time>
      </trkpt>
      <trkpt lat="43.60713" lon="3.39596">
        <ele>204.4</ele>
        <time>2017-10-01T08:44:40Z</time>
      </trkpt>
      <trkpt lat="43.60708" lon="3.39587">
        <ele>204.2</ele>
        <time>2017-10-01T08:44:43Z</time>
      </trkpt>
      <trkpt lat="43.607" lon="3.39587">
        <ele>204.1</ele>
        <time>2017-10-01T08:44:46Z</time>
      </trkpt>
      <trkpt lat="43.60692" lon="3.39587">
        <ele>203.8</ele>
        <time>2017-10-01T08:44:51Z</time>
      </trkpt>
      <trkpt lat="43.60685" lon="3.39588">
        <ele>203.6</ele>
        <time>2017-10-01T08:44:55Z</time>
      </trkpt>
      <trkpt lat="43.60677" lon="3.39585">
        <ele>203.6</ele>
        <time>2017-10-01T08:45:00Z</time>
      </trkpt>
      <trkpt lat="43.60677" lon="3.39572">
        <ele>204</ele>
        <time>2017-10-01T08:45:07Z</time>
      </trkpt>
      <trkpt lat="43.60671" lon="3.39565">
        <ele>204.1</ele>
        <time>2017-10-01T08:45:09Z</time>
      </trkpt>
      <trkpt lat="43.60662" lon="3.39558">
        <ele>204.2</ele>
        <time>2017-10-01T08:45:12Z</time>
      </trkpt>
      <trkpt lat="43.60654" lon="3.39552">
        <ele>204.1</ele>
        <time>2017-10-01T08:45:15Z</time>
      </trkpt>
      <trkpt lat="43.60647" lon="3.39548">
        <ele>204.1</ele>
        <time>2017-10-01T08:45:18Z</time>
      </trkpt>
      <trkpt lat="43.60643" lon="3.39539">
        <ele>204</ele>
        <time>2017-10-01T08:45:22Z</time>
      </trkpt>
      <trkpt lat="43.60648" lon="3.39529">
        <ele>204.5</ele>
        <time>2017-10-01T08:45:27Z</time>
      </trkpt>
      <trkpt lat="43.60653" lon="3.39521">
        <ele>205.1</ele>
        <time>2017-10-01T08:45:31Z</time>
      </trkpt>
      <trkpt lat="43.6066" lon="3.39515">
        <ele>205.8</ele>
        <time>2017-10-01T08:45:36Z</time>
      </trkpt>
      <trkpt lat="43.60668" lon="3.3951">
        <ele>206.7</ele>
        <time>2017-10-01T08:45:41Z</time>
      </trkpt>
      <trkpt lat="43.60676" lon="3.39509">
        <ele>208.2</ele>
        <time>2017-10-01T08:45:46Z</time>
      </trkpt>
      <trkpt lat="43.60684" lon="3.39505">
        <ele>209.9</ele>
        <time>2017-10-01T08:45:51Z</time>
      </trkpt>
      <trkpt lat="43.60691" lon="3.39501">
        <ele>211.2</ele>
        <time>2017-10-01T08:45:55Z</time>
      </trkpt>
      <trkpt lat="43.60699" lon="3.39498">
        <ele>212.6</ele>
        <time>2017-10-01T08:45:59Z</time>
      </trkpt>
      <trkpt lat="43.60706" lon="3.39495">
        <ele>214.1</ele>
        <time>2017-10-01T08:46:04Z</time>
      </trkpt>
      <trkpt lat="43.60714" lon="3.39491">
        <ele>215.4</ele>
        <time>2017-10-01T08:46:09Z</time>
      </trkpt>
      <trkpt lat="43.60722" lon="3.39487">
        <ele>216.6</ele>
        <time>2017-10-01T08:46:15Z</time>
      </trkpt>
      <trkpt lat="43.60729" lon="3.39483">
        <ele>217.7</ele>
        <time>2017-10-01T08:46:20Z</time>
      </trkpt>
      <trkpt lat="43.60737" lon="3.39479">
        <ele>219</ele>
        <time>2017-10-01T08:46:25Z</time>
      </trkpt>
      <trkpt lat="43.60744" lon="3.39471">
        <ele>220.8</ele>
        <time>2017-10-01T08:46:31Z</time>
      </trkpt>
      <trkpt lat="43.60749" lon="3.39462">
        <ele>222.3</ele>
        <time>2017-10-01T08:46:36Z</time>
      </trkpt>
      <trkpt lat="43.60756" lon="3.39455">
        <ele>223.1</ele>
        <time>2017-10-01T08:46:40Z</time>
      </trkpt>
      <trkpt lat="43.6076" lon="3.39447">
        <ele>223.8</ele>
        <time>2017-10-01T08:46:44Z</time>
      </trkpt>
      <trkpt lat="43.60761" lon="3.39436">
        <ele>224.8</ele>
        <time>2017-10-01T08:46:49Z</time>
      </trkpt>
      <trkpt lat="43.6076" lon="3.39426">
        <ele>226.2</ele>
        <time>2017-10-01T08:46:55Z</time>
      </trkpt>
      <trkpt lat="43.60756" lon="3.39416">
        <ele>227.8</ele>
        <time>2017-10-01T08:47:01Z</time>
      </trkpt>
      <trkpt lat="43.60753" lon="3.39407">
        <ele>228.8</ele>
        <time>2017-10-01T08:47:05Z</time>
      </trkpt>
      <trkpt lat="43.6075" lon="3.39396">
        <ele>230</ele>
        <time>2017-10-01T08:47:10Z</time>
      </trkpt>
      <trkpt lat="43.60748" lon="3.39384">
        <ele>231.3</ele>
        <time>2017-10-01T08:47:15Z</time>
      </trkpt>
      <trkpt lat="43.60745" lon="3.39374">
        <ele>232.4</ele>
        <time>2017-10-01T08:47:19Z</time>
      </trkpt>
      <trkpt lat="43.60741" lon="3.39363">
        <ele>233.4</ele>
        <time>2017-10-01T08:47:23Z</time>
      </trkpt>
      <trkpt lat="43.60738" lon="3.39352">
        <ele>234.1</ele>
        <time>2017-10-01T08:47:26Z</time>
      </trkpt>
      <trkpt lat="43.60734" lon="3.39342">
        <ele>234.7</ele>
        <time>2017-10-01T08:47:30Z</time>
      </trkpt>
      <trkpt lat="43.6073" lon="3.39331">
        <ele>235.2</ele>
        <time>2017-10-01T08:47:34Z</time>
      </trkpt>
      <trkpt lat="43.60728" lon="3.39321">
        <ele>235.7</ele>
        <time>2017-10-01T08:47:38Z</time>
      </trkpt>
      <trkpt lat="43.60725" lon="3.39312">
        <ele>236.6</ele>
        <time>2017-10-01T08:47:43Z</time>
      </trkpt>
      <trkpt lat="43.60723" lon="3.393">
        <ele>237.4</ele>
        <time>2017-10-01T08:47:47Z</time>
      </trkpt>
      <trkpt lat="43.60721" lon="3.3929">
        <ele>238.3</ele>
        <time>2017-10-01T08:47:51Z</time>
      </trkpt>
      <trkpt lat="43.60718" lon="3.39278">
        <ele>239.3</ele>
        <time>2017-10-01T08:47:56Z</time>
      </trkpt>
      <trkpt lat="43.60716" lon="3.39267">
        <ele>240</ele>
        <time>2017-10-01T08:48:00Z</time>
      </trkpt>
      <trkpt lat="43.60714" lon="3.39255">
        <ele>240.9</ele>
        <time>2017-10-01T08:48:05Z</time>
      </trkpt>
      <trkpt lat="43.60712" lon="3.39246">
        <ele>241.7</ele>
        <time>2017-10-01T08:48:10Z</time>
      </trkpt>
      <trkpt lat="43.60711" lon="3.39234">
        <ele>242.9</ele>
        <time>2017-10-01T08:48:16Z</time>
      </trkpt>
      <trkpt lat="43.6071" lon="3.39222">
        <ele>243.8</ele>
        <time>2017-10-01T08:48:21Z</time>
      </trkpt>
      <trkpt lat="43.60707" lon="3.39212">
        <ele>244.5</ele>
        <time>2017-10-01T08:48:25Z</time>
      </trkpt>
      <trkpt lat="43.60704" lon="3.39201">
        <ele>245.4</ele>
        <time>2017-10-01T08:48:30Z</time>
      </trkpt>
      <trkpt lat="43.60701" lon="3.3919">
        <ele>246</ele>
        <time>2017-10-01T08:48:35Z</time>
      </trkpt>
      <trkpt lat="43.60698" lon="3.39181">
        <ele>246.4</ele>
        <time>2017-10-01T08:48:39Z</time>
      </trkpt>
      <trkpt lat="43.60695" lon="3.39171">
        <ele>246.9</ele>
        <time>2017-10-01T08:48:44Z</time>
      </trkpt>
      <trkpt lat="43.60694" lon="3.39158">
        <ele>247.5</ele>
        <time>2017-10-01T08:48:49Z</time>
      </trkpt>
      <trkpt lat="43.60691" lon="3.39146">
        <ele>248.1</ele>
        <time>2017-10-01T08:48:54Z</time>
      </trkpt>
      <trkpt lat="43.60685" lon="3.39139">
        <ele>248.4</ele>
        <time>2017-10-01T08:48:58Z</time>
      </trkpt>
      <trkpt lat="43.60677" lon="3.39139">
        <ele>248.7</ele>
        <time>2017-10-01T08:49:03Z</time>
      </trkpt>
      <trkpt lat="43.6067" lon="3.39144">
        <ele>249</ele>
        <time>2017-10-01T08:49:07Z</time>
      </trkpt>
      <trkpt lat="43.60662" lon="3.39148">
        <ele>249.4</ele>
        <time>2017-10-01T08:49:12Z</time>
      </trkpt>
      <trkpt lat="43.60654" lon="3.39148">
        <ele>249.8</ele>
        <time>2017-10-01T08:49:17Z</time>
      </trkpt>
      <trkpt lat="43.60645" lon="3.39148">
        <ele>250.1</ele>
        <time>2017-10-01T08:49:23Z</time>
      </trkpt>
      <trkpt lat="43.60637" lon="3.39144">
        <ele>250.4</ele>
        <time>2017-10-01T08:49:28Z</time>
      </trkpt>
      <trkpt lat="43.60629" lon="3.39139">
        <ele>250.8</ele>
        <time>2017-10-01T08:49:33Z</time>
      </trkpt>
      <trkpt lat="43.60622" lon="3.39134">
        <ele>251.2</ele>
        <time>2017-10-01T08:49:38Z</time>
      </trkpt>
      <trkpt lat="43.60617" lon="3.39126">
        <ele>251.5</ele>
        <time>2017-10-01T08:49:42Z</time>
      </trkpt>
      <trkpt lat="43.60611" lon="3.39119">
        <ele>251.9</ele>
        <time>2017-10-01T08:49:46Z</time>
      </trkpt>
      <trkpt lat="43.60607" lon="3.39111">
        <ele>252.3</ele>
        <time>2017-10-01T08:49:50Z</time>
      </trkpt>
      <trkpt lat="43.60602" lon="3.39102">
        <ele>252.7</ele>
        <time>2017-10-01T08:49:55Z</time>
      </trkpt>
      <trkpt lat="43.60598" lon="3.39093">
        <ele>253.1</ele>
        <time>2017-10-01T08:50:00Z</time>
      </trkpt>
      <trkpt lat="43.60594" lon="3.39084">
        <ele>253.6</ele>
        <time>2017-10-01T08:50:04Z</time>
      </trkpt>
      <trkpt lat="43.60593" lon="3.39072">
        <ele>254.2</ele>
        <time>2017-10-01T08:50:09Z</time>
      </trkpt>
      <trkpt lat="43.6059" lon="3.39062">
        <ele>255</ele>
        <time>2017-10-01T08:50:14Z</time>
      </trkpt>
      <trkpt lat="43.60588" lon="3.3905">
        <ele>255.9</ele>
        <time>2017-10-01T08:50:19Z</time>
      </trkpt>
      <trkpt lat="43.60586" lon="3.39039">
        <ele>256.8</ele>
        <time>2017-10-01T08:50:24Z</time>
      </trkpt>
      <trkpt lat="43.60585" lon="3.39029">
        <ele>257.6</ele>
        <time>2017-10-01T08:50:28Z</time>
      </trkpt>
      <trkpt lat="43.60584" lon="3.39017">
        <ele>258.6</ele>
        <time>2017-10-01T08:50:33Z</time>
      </trkpt>
      <trkpt lat="43.60583" lon="3.39007">
        <ele>259.3</ele>
        <time>2017-10-01T08:50:37Z</time>
      </trkpt>
      <trkpt lat="43.60582" lon="3.38996">
        <ele>260.3</ele>
        <time>2017-10-01T08:50:42Z</time>
      </trkpt>
      <trkpt lat="43.60581" lon="3.38984">
        <ele>261.4</ele>
        <time>2017-10-01T08:50:47Z</time>
      </trkpt>
      <trkpt lat="43.6058" lon="3.38972">
        <ele>262.2</ele>
        <time>2017-10-01T08:50:51Z</time>
      </trkpt>
      <trkpt lat="43.60579" lon="3.38961">
        <ele>263.1</ele>
        <time>2017-10-01T08:50:56Z</time>
      </trkpt>
      <trkpt lat="43.60579" lon="3.38949">
        <ele>264.1</ele>
        <time>2017-10-01T08:51:01Z</time>
      </trkpt>
      <trkpt lat="43.60578" lon="3.38938">
        <ele>265.3</ele>
        <time>2017-10-01T08:51:06Z</time>
      </trkpt>
      <trkpt lat="43.60579" lon="3.38926">
        <ele>266.6</ele>
        <time>2017-10-01T08:51:11Z</time>
      </trkpt>
      <trkpt lat="43.60579" lon="3.38914">
        <ele>268.1</ele>
        <time>2017-10-01T08:51:16Z</time>
      </trkpt>
      <trkpt lat="43.60579" lon="3.38903">
        <ele>269.1</ele>
        <time>2017-10-01T08:51:20Z</time>
      </trkpt>
      <trkpt lat="43.60578" lon="3.38893">
        <ele>269.9</ele>
        <time>2017-10-01T08:51:24Z</time>
      </trkpt>
      <trkpt lat="43.60576" lon="3.3888">
        <ele>271</ele>
        <time>2017-10-01T08:51:29Z</time>
      </trkpt>
      <trkpt lat="43.60573" lon="3.38869">
        <ele>271.9</ele>
        <time>2017-10-01T08:51:34Z</time>
      </trkpt>
      <trkpt lat="43.60568" lon="3.3886">
        <ele>272.6</ele>
        <time>2017-10-01T08:51:39Z</time>
      </trkpt>
      <trkpt lat="43.60561" lon="3.38859">
        <ele>273.3</ele>
        <time>2017-10-01T08:51:43Z</time>
      </trkpt>
      <trkpt lat="43.60552" lon="3.3886">
        <ele>273.7</ele>
        <time>2017-10-01T08:51:47Z</time>
      </trkpt>
      <trkpt lat="43.60544" lon="3.38858">
        <ele>274.1</ele>
        <time>2017-10-01T08:51:51Z</time>
      </trkpt>
      <trkpt lat="43.60535" lon="3.38853">
        <ele>274.6</ele>
        <time>2017-10-01T08:51:55Z</time>
      </trkpt>
      <trkpt lat="43.60526" lon="3.38848">
        <ele>274.9</ele>
        <time>2017-10-01T08:51:59Z</time>
      </trkpt>
      <trkpt lat="43.60519" lon="3.38841">
        <ele>275.2</ele>
        <time>2017-10-01T08:52:03Z</time>
      </trkpt>
      <trkpt lat="43.60515" lon="3.38833">
        <ele>275.4</ele>
        <time>2017-10-01T08:52:06Z</time>
      </trkpt>
      <trkpt lat="43.60511" lon="3.38824">
        <ele>275.5</ele>
        <time>2017-10-01T08:52:09Z</time>
      </trkpt>
      <trkpt lat="43.60509" lon="3.38812">
        <ele>275.7</ele>
        <time>2017-10-01T08:52:13Z</time>
      </trkpt>
      <trkpt lat="43.60508" lon="3.38801">
        <ele>275.9</ele>
        <time>2017-10-01T08:52:17Z</time>
      </trkpt>
      <trkpt lat="43.60508" lon="3.38791">
        <ele>276.1</ele>
        <time>2017-10-01T08:52:20Z</time>
      </trkpt>
      <trkpt lat="43.6051" lon="3.3878">
        <ele>276.2</ele>
        <time>2017-10-01T08:52:24Z</time>
      </trkpt>
      <trkpt lat="43.60513" lon="3.38768">
        <ele>276.3</ele>
        <time>2017-10-01T08:52:28Z</time>
      </trkpt>
      <trkpt lat="43.60515" lon="3.38755">
        <ele>276.5</ele>
        <time>2017-10-01T08:52:32Z</time>
      </trkpt>
      <trkpt lat="43.60513" lon="3.38744">
        <ele>276.7</ele>
        <time>2017-10-01T08:52:36Z</time>
      </trkpt>
      <trkpt lat="43.60507" lon="3.38732">
        <ele>276.9</ele>
        <time>2017-10-01T08:52:39Z</time>
      </trkpt>
      <trkpt lat="43.60501" lon="3.38722">
        <ele>277.1</ele>
        <time>2017-10-01T08:52:43Z</time>
      </trkpt>
      <trkpt lat="43.60497" lon="3.38713">
        <ele>277.2</ele>
        <time>2017-10-01T08:52:46Z</time>
      </trkpt>
      <trkpt lat="43.6049" lon="3.38702">
        <ele>277.3</ele>
        <time>2017-10-01T08:52:50Z</time>
      </trkpt>
      <trkpt lat="43.60485" lon="3.38692">
        <ele>277.4</ele>
        <time>2017-10-01T08:52:54Z</time>
      </trkpt>
      <trkpt lat="43.60479" lon="3.38683">
        <ele>277.7</ele>
        <time>2017-10-01T08:52:58Z</time>
      </trkpt>
      <trkpt lat="43.60475" lon="3.38673">
        <ele>277.8</ele>
        <time>2017-10-01T08:53:01Z</time>
      </trkpt>
      <trkpt lat="43.60471" lon="3.38664">
        <ele>278</ele>
        <time>2017-10-01T08:53:04Z</time>
      </trkpt>
      <trkpt lat="43.60466" lon="3.38656">
        <ele>278.1</ele>
        <time>2017-10-01T08:53:07Z</time>
      </trkpt>
      <trkpt lat="43.60461" lon="3.38645">
        <ele>278.2</ele>
        <time>2017-10-01T08:53:11Z</time>
      </trkpt>
      <trkpt lat="43.60457" lon="3.38637">
        <ele>278.3</ele>
        <time>2017-10-01T08:53:14Z</time>
      </trkpt>
      <trkpt lat="43.60452" lon="3.38626">
        <ele>278.5</ele>
        <time>2017-10-01T08:53:18Z</time>
      </trkpt>
      <trkpt lat="43.60447" lon="3.38617">
        <ele>278.7</ele>
        <time>2017-10-01T08:53:21Z</time>
      </trkpt>
      <trkpt lat="43.60443" lon="3.38607">
        <ele>278.9</ele>
        <time>2017-10-01T08:53:24Z</time>
      </trkpt>
      <trkpt lat="43.6044" lon="3.38598">
        <ele>279.1</ele>
        <time>2017-10-01T08:53:27Z</time>
      </trkpt>
      <trkpt lat="43.60435" lon="3.38588">
        <ele>279.4</ele>
        <time>2017-10-01T08:53:30Z</time>
      </trkpt>
      <trkpt lat="43.60432" lon="3.38579">
        <ele>279.7</ele>
        <time>2017-10-01T08:53:33Z</time>
      </trkpt>
      <trkpt lat="43.60428" lon="3.3857">
        <ele>280.1</ele>
        <time>2017-10-01T08:53:36Z</time>
      </trkpt>
      <trkpt lat="43.60424" lon="3.38558">
        <ele>280.5</ele>
        <time>2017-10-01T08:53:39Z</time>
      </trkpt>
      <trkpt lat="43.60421" lon="3.38548">
        <ele>280.8</ele>
        <time>2017-10-01T08:53:42Z</time>
      </trkpt>
      <trkpt lat="43.60418" lon="3.38538">
        <ele>281.1</ele>
        <time>2017-10-01T08:53:45Z</time>
      </trkpt>
      <trkpt lat="43.60416" lon="3.38528">
        <ele>281.3</ele>
        <time>2017-10-01T08:53:48Z</time>
      </trkpt>
      <trkpt lat="43.60412" lon="3.38516">
        <ele>281.6</ele>
        <time>2017-10-01T08:53:51Z</time>
      </trkpt>
      <trkpt lat="43.60409" lon="3.38505">
        <ele>281.9</ele>
        <time>2017-10-01T08:53:54Z</time>
      </trkpt>
      <trkpt lat="43.60405" lon="3.38495">
        <ele>282.2</ele>
        <time>2017-10-01T08:53:57Z</time>
      </trkpt>
      <trkpt lat="43.60403" lon="3.38484">
        <ele>282.7</ele>
        <time>2017-10-01T08:54:00Z</time>
      </trkpt>
      <trkpt lat="43.604" lon="3.38471">
        <ele>283.1</ele>
        <time>2017-10-01T08:54:03Z</time>
      </trkpt>
      <trkpt lat="43.60397" lon="3.38457">
        <ele>283.6</ele>
        <time>2017-10-01T08:54:06Z</time>
      </trkpt>
      <trkpt lat="43.60394" lon="3.38444">
        <ele>284</ele>
        <time>2017-10-01T08:54:09Z</time>
      </trkpt>
      <trkpt lat="43.60392" lon="3.3843">
        <ele>284.5</ele>
        <time>2017-10-01T08:54:12Z</time>
      </trkpt>
      <trkpt lat="43.6039" lon="3.38418">
        <ele>284.9</ele>
        <time>2017-10-01T08:54:15Z</time>
      </trkpt>
      <trkpt lat="43.60387" lon="3.38405">
        <ele>285.3</ele>
        <time>2017-10-01T08:54:18Z</time>
      </trkpt>
      <trkpt lat="43.60385" lon="3.38392">
        <ele>285.6</ele>
        <time>2017-10-01T08:54:21Z</time>
      </trkpt>
      <trkpt lat="43.60383" lon="3.38379">
        <ele>285.9</ele>
        <time>2017-10-01T08:54:24Z</time>
      </trkpt>
      <trkpt lat="43.60382" lon="3.38366">
        <ele>286.3</ele>
        <time>2017-10-01T08:54:27Z</time>
      </trkpt>
      <trkpt lat="43.6038" lon="3.38354">
        <ele>286.7</ele>
        <time>2017-10-01T08:54:30Z</time>
      </trkpt>
      <trkpt lat="43.6038" lon="3.3834">
        <ele>287.1</ele>
        <time>2017-10-01T08:54:33Z</time>
      </trkpt>
      <trkpt lat="43.60379" lon="3.38326">
        <ele>287.5</ele>
        <time>2017-10-01T08:54:36Z</time>
      </trkpt>
      <trkpt lat="43.60379" lon="3.38313">
        <ele>287.9</ele>
        <time>2017-10-01T08:54:39Z</time>
      </trkpt>
      <trkpt lat="43.60379" lon="3.38298">
        <ele>288.4</ele>
        <time>2017-10-01T08:54:42Z</time>
      </trkpt>
      <trkpt lat="43.60379" lon="3.38289">
        <ele>288.7</ele>
        <time>2017-10-01T08:54:44Z</time>
      </trkpt>
      <trkpt lat="43.60379" lon="3.38278">
        <ele>289.1</ele>
        <time>2017-10-01T08:54:46Z</time>
      </trkpt>
      <trkpt lat="43.60379" lon="3.38265">
        <ele>289.5</ele>
        <time>2017-10-01T08:54:49Z</time>
      </trkpt>
      <trkpt lat="43.60378" lon="3.38255">
        <ele>289.7</ele>
        <time>2017-10-01T08:54:51Z</time>
      </trkpt>
      <trkpt lat="43.60378" lon="3.38244">
        <ele>289.9</ele>
        <time>2017-10-01T08:54:53Z</time>
      </trkpt>
      <trkpt lat="43.60377" lon="3.38234">
        <ele>289.9</ele>
        <time>2017-10-01T08:54:55Z</time>
      </trkpt>
      <trkpt lat="43.60376" lon="3.38221">
        <ele>290</ele>
        <time>2017-10-01T08:54:58Z</time>
      </trkpt>
      <trkpt lat="43.60375" lon="3.38208">
        <ele>290.2</ele>
        <time>2017-10-01T08:55:01Z</time>
      </trkpt>
      <trkpt lat="43.60374" lon="3.38193">
        <ele>290.3</ele>
        <time>2017-10-01T08:55:04Z</time>
      </trkpt>
      <trkpt lat="43.60373" lon="3.38179">
        <ele>290.5</ele>
        <time>2017-10-01T08:55:07Z</time>
      </trkpt>
      <trkpt lat="43.60372" lon="3.38165">
        <ele>290.7</ele>
        <time>2017-10-01T08:55:10Z</time>
      </trkpt>
      <trkpt lat="43.60369" lon="3.38152">
        <ele>290.9</ele>
        <time>2017-10-01T08:55:13Z</time>
      </trkpt>
      <trkpt lat="43.60369" lon="3.38138">
        <ele>291.2</ele>
        <time>2017-10-01T08:55:16Z</time>
      </trkpt>
      <trkpt lat="43.60369" lon="3.38124">
        <ele>291.4</ele>
        <time>2017-10-01T08:55:19Z</time>
      </trkpt>
      <trkpt lat="43.60367" lon="3.38112">
        <ele>291.7</ele>
        <time>2017-10-01T08:55:22Z</time>
      </trkpt>
      <trkpt lat="43.60367" lon="3.381">
        <ele>292</ele>
        <time>2017-10-01T08:55:25Z</time>
      </trkpt>
      <trkpt lat="43.60367" lon="3.38086">
        <ele>292.4</ele>
        <time>2017-10-01T08:55:28Z</time>
      </trkpt>
      <trkpt lat="43.60366" lon="3.38073">
        <ele>292.9</ele>
        <time>2017-10-01T08:55:31Z</time>
      </trkpt>
      <trkpt lat="43.60364" lon="3.3806">
        <ele>293.4</ele>
        <time>2017-10-01T08:55:34Z</time>
      </trkpt>
      <trkpt lat="43.60364" lon="3.38047">
        <ele>293.9</ele>
        <time>2017-10-01T08:55:37Z</time>
      </trkpt>
      <trkpt lat="43.60362" lon="3.38035">
        <ele>294.3</ele>
        <time>2017-10-01T08:55:40Z</time>
      </trkpt>
      <trkpt lat="43.60361" lon="3.38023">
        <ele>294.7</ele>
        <time>2017-10-01T08:55:43Z</time>
      </trkpt>
      <trkpt lat="43.6036" lon="3.3801">
        <ele>295.1</ele>
        <time>2017-10-01T08:55:46Z</time>
      </trkpt>
      <trkpt lat="43.60358" lon="3.37997">
        <ele>295.4</ele>
        <time>2017-10-01T08:55:49Z</time>
      </trkpt>
      <trkpt lat="43.60357" lon="3.37984">
        <ele>295.8</ele>
        <time>2017-10-01T08:55:52Z</time>
      </trkpt>
      <trkpt lat="43.60356" lon="3.37969">
        <ele>296.1</ele>
        <time>2017-10-01T08:55:55Z</time>
      </trkpt>
      <trkpt lat="43.60354" lon="3.37955">
        <ele>296.4</ele>
        <time>2017-10-01T08:55:58Z</time>
      </trkpt>
      <trkpt lat="43.60354" lon="3.37944">
        <ele>296.7</ele>
        <time>2017-10-01T08:56:01Z</time>
      </trkpt>
      <trkpt lat="43.60352" lon="3.37933">
        <ele>297.1</ele>
        <time>2017-10-01T08:56:04Z</time>
      </trkpt>
      <trkpt lat="43.60352" lon="3.3792">
        <ele>297.4</ele>
        <time>2017-10-01T08:56:07Z</time>
      </trkpt>
      <trkpt lat="43.60352" lon="3.3791">
        <ele>297.8</ele>
        <time>2017-10-01T08:56:10Z</time>
      </trkpt>
      <trkpt lat="43.60351" lon="3.37899">
        <ele>298.1</ele>
        <time>2017-10-01T08:56:13Z</time>
      </trkpt>
      <trkpt lat="43.6035" lon="3.37889">
        <ele>298.5</ele>
        <time>2017-10-01T08:56:16Z</time>
      </trkpt>
      <trkpt lat="43.60349" lon="3.37879">
        <ele>299</ele>
        <time>2017-10-01T08:56:19Z</time>
      </trkpt>
      <trkpt lat="43.60348" lon="3.37866">
        <ele>299.6</ele>
        <time>2017-10-01T08:56:22Z</time>
      </trkpt>
      <trkpt lat="43.60347" lon="3.37853">
        <ele>300.2</ele>
        <time>2017-10-01T08:56:25Z</time>
      </trkpt>
      <trkpt lat="43.60345" lon="3.37841">
        <ele>300.6</ele>
        <time>2017-10-01T08:56:28Z</time>
      </trkpt>
      <trkpt lat="43.60343" lon="3.37828">
        <ele>300.9</ele>
        <time>2017-10-01T08:56:31Z</time>
      </trkpt>
      <trkpt lat="43.60341" lon="3.37817">
        <ele>301.2</ele>
        <time>2017-10-01T08:56:34Z</time>
      </trkpt>
      <trkpt lat="43.60338" lon="3.37805">
        <ele>301.5</ele>
        <time>2017-10-01T08:56:37Z</time>
      </trkpt>
      <trkpt lat="43.60335" lon="3.37791">
        <ele>301.7</ele>
        <time>2017-10-01T08:56:40Z</time>
      </trkpt>
      <trkpt lat="43.60331" lon="3.37779">
        <ele>302</ele>
        <time>2017-10-01T08:56:43Z</time>
      </trkpt>
      <trkpt lat="43.60328" lon="3.37768">
        <ele>302.2</ele>
        <time>2017-10-01T08:56:46Z</time>
      </trkpt>
      <trkpt lat="43.60325" lon="3.37756">
        <ele>302.3</ele>
        <time>2017-10-01T08:56:49Z</time>
      </trkpt>
      <trkpt lat="43.60322" lon="3.37743">
        <ele>302.5</ele>
        <time>2017-10-01T08:56:52Z</time>
      </trkpt>
      <trkpt lat="43.6032" lon="3.37731">
        <ele>302.7</ele>
        <time>2017-10-01T08:56:55Z</time>
      </trkpt>
      <trkpt lat="43.60319" lon="3.37718">
        <ele>302.9</ele>
        <time>2017-10-01T08:56:58Z</time>
      </trkpt>
      <trkpt lat="43.60319" lon="3.37704">
        <ele>303.2</ele>
        <time>2017-10-01T08:57:01Z</time>
      </trkpt>
      <trkpt lat="43.60321" lon="3.37691">
        <ele>303.5</ele>
        <time>2017-10-01T08:57:04Z</time>
      </trkpt>
      <trkpt lat="43.60322" lon="3.37677">
        <ele>303.8</ele>
        <time>2017-10-01T08:57:07Z</time>
      </trkpt>
      <trkpt lat="43.60322" lon="3.37666">
        <ele>304.1</ele>
        <time>2017-10-01T08:57:10Z</time>
      </trkpt>
      <trkpt lat="43.60324" lon="3.37655">
        <ele>304.5</ele>
        <time>2017-10-01T08:57:13Z</time>
      </trkpt>
      <trkpt lat="43.60325" lon="3.37644">
        <ele>304.9</ele>
        <time>2017-10-01T08:57:16Z</time>
      </trkpt>
      <trkpt lat="43.60325" lon="3.37631">
        <ele>305.4</ele>
        <time>2017-10-01T08:57:19Z</time>
      </trkpt>
      <trkpt lat="43.60326" lon="3.37621">
        <ele>305.7</ele>
        <time>2017-10-01T08:57:21Z</time>
      </trkpt>
      <trkpt lat="43.60327" lon="3.37608">
        <ele>306.2</ele>
        <time>2017-10-01T08:57:24Z</time>
      </trkpt>
      <trkpt lat="43.60327" lon="3.37596">
        <ele>306.7</ele>
        <time>2017-10-01T08:57:27Z</time>
      </trkpt>
      <trkpt lat="43.60327" lon="3.37585">
        <ele>307.1</ele>
        <time>2017-10-01T08:57:29Z</time>
      </trkpt>
      <trkpt lat="43.60327" lon="3.37573">
        <ele>307.6</ele>
        <time>2017-10-01T08:57:32Z</time>
      </trkpt>
      <trkpt lat="43.60327" lon="3.37563">
        <ele>308</ele>
        <time>2017-10-01T08:57:34Z</time>
      </trkpt>
      <trkpt lat="43.60327" lon="3.37552">
        <ele>308.3</ele>
        <time>2017-10-01T08:57:36Z</time>
      </trkpt>
      <trkpt lat="43.60327" lon="3.37539">
        <ele>308.6</ele>
        <time>2017-10-01T08:57:39Z</time>
      </trkpt>
      <trkpt lat="43.60328" lon="3.37525">
        <ele>308.9</ele>
        <time>2017-10-01T08:57:42Z</time>
      </trkpt>
      <trkpt lat="43.60328" lon="3.37513">
        <ele>309.2</ele>
        <time>2017-10-01T08:57:45Z</time>
      </trkpt>
      <trkpt lat="43.60329" lon="3.37499">
        <ele>309.6</ele>
        <time>2017-10-01T08:57:48Z</time>
      </trkpt>
      <trkpt lat="43.60331" lon="3.37488">
        <ele>310</ele>
        <time>2017-10-01T08:57:51Z</time>
      </trkpt>
      <trkpt lat="43.60333" lon="3.37476">
        <ele>310.4</ele>
        <time>2017-10-01T08:57:54Z</time>
      </trkpt>
      <trkpt lat="43.60335" lon="3.37463">
        <ele>310.9</ele>
        <time>2017-10-01T08:57:57Z</time>
      </trkpt>
      <trkpt lat="43.60335" lon="3.37451">
        <ele>311.3</ele>
        <time>2017-10-01T08:58:00Z</time>
      </trkpt>
      <trkpt lat="43.60336" lon="3.37438">
        <ele>311.7</ele>
        <time>2017-10-01T08:58:03Z</time>
      </trkpt>
      <trkpt lat="43.60336" lon="3.37425">
        <ele>312.1</ele>
        <time>2017-10-01T08:58:06Z</time>
      </trkpt>
      <trkpt lat="43.60335" lon="3.37413">
        <ele>312.3</ele>
        <time>2017-10-01T08:58:08Z</time>
      </trkpt>
      <trkpt lat="43.60335" lon="3.37397">
        <ele>312.7</ele>
        <time>2017-10-01T08:58:11Z</time>
      </trkpt>
      <trkpt lat="43.60335" lon="3.37386">
        <ele>312.9</ele>
        <time>2017-10-01T08:58:13Z</time>
      </trkpt>
      <trkpt lat="43.60335" lon="3.37371">
        <ele>313.2</ele>
        <time>2017-10-01T08:58:16Z</time>
      </trkpt>
      <trkpt lat="43.60335" lon="3.37361">
        <ele>313.4</ele>
        <time>2017-10-01T08:58:18Z</time>
      </trkpt>
      <trkpt lat="43.60335" lon="3.37347">
        <ele>313.7</ele>
        <time>2017-10-01T08:58:21Z</time>
      </trkpt>
      <trkpt lat="43.60336" lon="3.37334">
        <ele>314.2</ele>
        <time>2017-10-01T08:58:24Z</time>
      </trkpt>
      <trkpt lat="43.60338" lon="3.37321">
        <ele>314.7</ele>
        <time>2017-10-01T08:58:27Z</time>
      </trkpt>
      <trkpt lat="43.60341" lon="3.37308">
        <ele>315.1</ele>
        <time>2017-10-01T08:58:30Z</time>
      </trkpt>
      <trkpt lat="43.60345" lon="3.37294">
        <ele>315.6</ele>
        <time>2017-10-01T08:58:33Z</time>
      </trkpt>
      <trkpt lat="43.60349" lon="3.3728">
        <ele>316.1</ele>
        <time>2017-10-01T08:58:36Z</time>
      </trkpt>
      <trkpt lat="43.60352" lon="3.37266">
        <ele>316.6</ele>
        <time>2017-10-01T08:58:39Z</time>
      </trkpt>
      <trkpt lat="43.60354" lon="3.37256">
        <ele>316.9</ele>
        <time>2017-10-01T08:58:41Z</time>
      </trkpt>
      <trkpt lat="43.60356" lon="3.37247">
        <ele>317.2</ele>
        <time>2017-10-01T08:58:43Z</time>
      </trkpt>
      <trkpt lat="43.60359" lon="3.37236">
        <ele>318.7</ele>
        <time>2017-10-01T08:58:45Z</time>
      </trkpt>
      <trkpt lat="43.60361" lon="3.37227">
        <ele>318.9</ele>
        <time>2017-10-01T08:58:47Z</time>
      </trkpt>
      <trkpt lat="43.60363" lon="3.37217">
        <ele>319.2</ele>
        <time>2017-10-01T08:58:49Z</time>
      </trkpt>
      <trkpt lat="43.60365" lon="3.37207">
        <ele>319.4</ele>
        <time>2017-10-01T08:58:51Z</time>
      </trkpt>
      <trkpt lat="43.60367" lon="3.37197">
        <ele>319.6</ele>
        <time>2017-10-01T08:58:53Z</time>
      </trkpt>
      <trkpt lat="43.60367" lon="3.37186">
        <ele>320.5</ele>
        <time>2017-10-01T08:58:55Z</time>
      </trkpt>
      <trkpt lat="43.60369" lon="3.37175">
        <ele>320.7</ele>
        <time>2017-10-01T08:58:57Z</time>
      </trkpt>
      <trkpt lat="43.60371" lon="3.37163">
        <ele>321.5</ele>
        <time>2017-10-01T08:58:59Z</time>
      </trkpt>
      <trkpt lat="43.60372" lon="3.37151">
        <ele>321.8</ele>
        <time>2017-10-01T08:59:01Z</time>
      </trkpt>
      <trkpt lat="43.60373" lon="3.37138">
        <ele>321.7</ele>
        <time>2017-10-01T08:59:03Z</time>
      </trkpt>
      <trkpt lat="43.60373" lon="3.37126">
        <ele>321.4</ele>
        <time>2017-10-01T08:59:05Z</time>
      </trkpt>
      <trkpt lat="43.60373" lon="3.3711">
        <ele>321.8</ele>
        <time>2017-10-01T08:59:08Z</time>
      </trkpt>
      <trkpt lat="43.60373" lon="3.37099">
        <ele>322.3</ele>
        <time>2017-10-01T08:59:10Z</time>
      </trkpt>
      <trkpt lat="43.60373" lon="3.37089">
        <ele>322.7</ele>
        <time>2017-10-01T08:59:12Z</time>
      </trkpt>
      <trkpt lat="43.60374" lon="3.37077">
        <ele>322.9</ele>
        <time>2017-10-01T08:59:14Z</time>
      </trkpt>
      <trkpt lat="43.60375" lon="3.37067">
        <ele>323.3</ele>
        <time>2017-10-01T08:59:16Z</time>
      </trkpt>
      <trkpt lat="43.60378" lon="3.37056">
        <ele>323.7</ele>
        <time>2017-10-01T08:59:18Z</time>
      </trkpt>
      <trkpt lat="43.60381" lon="3.37045">
        <ele>323.7</ele>
        <time>2017-10-01T08:59:20Z</time>
      </trkpt>
      <trkpt lat="43.60383" lon="3.37034">
        <ele>323.9</ele>
        <time>2017-10-01T08:59:22Z</time>
      </trkpt>
      <trkpt lat="43.60385" lon="3.37024">
        <ele>323.9</ele>
        <time>2017-10-01T08:59:24Z</time>
      </trkpt>
      <trkpt lat="43.60386" lon="3.37014">
        <ele>324.1</ele>
        <time>2017-10-01T08:59:26Z</time>
      </trkpt>
      <trkpt lat="43.60388" lon="3.37002">
        <ele>324.5</ele>
        <time>2017-10-01T08:59:28Z</time>
      </trkpt>
      <trkpt lat="43.60388" lon="3.36992">
        <ele>324.7</ele>
        <time>2017-10-01T08:59:30Z</time>
      </trkpt>
      <trkpt lat="43.60388" lon="3.36981">
        <ele>325</ele>
        <time>2017-10-01T08:59:32Z</time>
      </trkpt>
      <trkpt lat="43.60388" lon="3.3697">
        <ele>325.5</ele>
        <time>2017-10-01T08:59:34Z</time>
      </trkpt>
      <trkpt lat="43.60388" lon="3.36959">
        <ele>325.9</ele>
        <time>2017-10-01T08:59:36Z</time>
      </trkpt>
      <trkpt lat="43.60387" lon="3.36945">
        <ele>325.9</ele>
        <time>2017-10-01T08:59:39Z</time>
      </trkpt>
      <trkpt lat="43.60386" lon="3.36935">
        <ele>326</ele>
        <time>2017-10-01T08:59:41Z</time>
      </trkpt>
      <trkpt lat="43.60385" lon="3.36924">
        <ele>326.1</ele>
        <time>2017-10-01T08:59:43Z</time>
      </trkpt>
      <trkpt lat="43.60383" lon="3.36914">
        <ele>326.2</ele>
        <time>2017-10-01T08:59:45Z</time>
      </trkpt>
      <trkpt lat="43.6038" lon="3.36901">
        <ele>326.4</ele>
        <time>2017-10-01T08:59:48Z</time>
      </trkpt>
      <trkpt lat="43.60376" lon="3.36889">
        <ele>326.6</ele>
        <time>2017-10-01T08:59:50Z</time>
      </trkpt>
      <trkpt lat="43.60373" lon="3.36881">
        <ele>326.7</ele>
        <time>2017-10-01T08:59:52Z</time>
      </trkpt>
      <trkpt lat="43.60367" lon="3.36868">
        <ele>326.8</ele>
        <time>2017-10-01T08:59:55Z</time>
      </trkpt>
      <trkpt lat="43.60362" lon="3.36855">
        <ele>326.9</ele>
        <time>2017-10-01T08:59:58Z</time>
      </trkpt>
      <trkpt lat="43.60357" lon="3.36843">
        <ele>327</ele>
        <time>2017-10-01T09:00:01Z</time>
      </trkpt>
      <trkpt lat="43.60352" lon="3.3683">
        <ele>327.2</ele>
        <time>2017-10-01T09:00:04Z</time>
      </trkpt>
      <trkpt lat="43.60348" lon="3.36817">
        <ele>327.3</ele>
        <time>2017-10-01T09:00:07Z</time>
      </trkpt>
      <trkpt lat="43.60345" lon="3.36804">
        <ele>327.4</ele>
        <time>2017-10-01T09:00:10Z</time>
      </trkpt>
      <trkpt lat="43.60342" lon="3.36791">
        <ele>327.6</ele>
        <time>2017-10-01T09:00:13Z</time>
      </trkpt>
      <trkpt lat="43.60339" lon="3.3678">
        <ele>327.7</ele>
        <time>2017-10-01T09:00:16Z</time>
      </trkpt>
      <trkpt lat="43.60337" lon="3.36769">
        <ele>328</ele>
        <time>2017-10-01T09:00:19Z</time>
      </trkpt>
      <trkpt lat="43.60334" lon="3.36758">
        <ele>328.3</ele>
        <time>2017-10-01T09:00:22Z</time>
      </trkpt>
      <trkpt lat="43.60331" lon="3.36745">
        <ele>328.7</ele>
        <time>2017-10-01T09:00:25Z</time>
      </trkpt>
      <trkpt lat="43.60327" lon="3.36733">
        <ele>329</ele>
        <time>2017-10-01T09:00:28Z</time>
      </trkpt>
      <trkpt lat="43.60322" lon="3.36725">
        <ele>329.2</ele>
        <time>2017-10-01T09:00:30Z</time>
      </trkpt>
      <trkpt lat="43.60317" lon="3.36714">
        <ele>329.5</ele>
        <time>2017-10-01T09:00:33Z</time>
      </trkpt>
      <trkpt lat="43.60311" lon="3.36705">
        <ele>329.9</ele>
        <time>2017-10-01T09:00:36Z</time>
      </trkpt>
      <trkpt lat="43.60305" lon="3.36694">
        <ele>330.2</ele>
        <time>2017-10-01T09:00:39Z</time>
      </trkpt>
      <trkpt lat="43.60304" lon="3.36683">
        <ele>330.6</ele>
        <time>2017-10-01T09:00:42Z</time>
      </trkpt>
      <trkpt lat="43.60305" lon="3.36672">
        <ele>331</ele>
        <time>2017-10-01T09:00:45Z</time>
      </trkpt>
      <trkpt lat="43.6031" lon="3.36662">
        <ele>331.4</ele>
        <time>2017-10-01T09:00:48Z</time>
      </trkpt>
      <trkpt lat="43.60316" lon="3.36654">
        <ele>331.8</ele>
        <time>2017-10-01T09:00:51Z</time>
      </trkpt>
      <trkpt lat="43.60321" lon="3.36645">
        <ele>332.2</ele>
        <time>2017-10-01T09:00:54Z</time>
      </trkpt>
      <trkpt lat="43.60324" lon="3.36636">
        <ele>332.7</ele>
        <time>2017-10-01T09:00:57Z</time>
      </trkpt>
      <trkpt lat="43.60327" lon="3.36625">
        <ele>333.3</ele>
        <time>2017-10-01T09:01:01Z</time>
      </trkpt>
      <trkpt lat="43.6033" lon="3.36616">
        <ele>333.8</ele>
        <time>2017-10-01T09:01:04Z</time>
      </trkpt>
      <trkpt lat="43.60334" lon="3.36607">
        <ele>334.3</ele>
        <time>2017-10-01T09:01:07Z</time>
      </trkpt>
      <trkpt lat="43.60338" lon="3.36596">
        <ele>334.7</ele>
        <time>2017-10-01T09:01:10Z</time>
      </trkpt>
      <trkpt lat="43.60342" lon="3.36586">
        <ele>335.2</ele>
        <time>2017-10-01T09:01:13Z</time>
      </trkpt>
      <trkpt lat="43.60345" lon="3.36574">
        <ele>335.6</ele>
        <time>2017-10-01T09:01:16Z</time>
      </trkpt>
      <trkpt lat="43.60348" lon="3.36562">
        <ele>336</ele>
        <time>2017-10-01T09:01:19Z</time>
      </trkpt>
      <trkpt lat="43.6035" lon="3.36552">
        <ele>336.5</ele>
        <time>2017-10-01T09:01:22Z</time>
      </trkpt>
      <trkpt lat="43.60352" lon="3.36541">
        <ele>337.1</ele>
        <time>2017-10-01T09:01:25Z</time>
      </trkpt>
      <trkpt lat="43.60355" lon="3.36528">
        <ele>337.6</ele>
        <time>2017-10-01T09:01:28Z</time>
      </trkpt>
      <trkpt lat="43.60356" lon="3.36515">
        <ele>338.1</ele>
        <time>2017-10-01T09:01:31Z</time>
      </trkpt>
      <trkpt lat="43.60358" lon="3.36502">
        <ele>338.5</ele>
        <time>2017-10-01T09:01:34Z</time>
      </trkpt>
      <trkpt lat="43.60359" lon="3.3649">
        <ele>339</ele>
        <time>2017-10-01T09:01:37Z</time>
      </trkpt>
      <trkpt lat="43.6036" lon="3.3648">
        <ele>339.3</ele>
        <time>2017-10-01T09:01:39Z</time>
      </trkpt>
      <trkpt lat="43.60362" lon="3.3647">
        <ele>339.6</ele>
        <time>2017-10-01T09:01:41Z</time>
      </trkpt>
      <trkpt lat="43.60364" lon="3.36457">
        <ele>339.9</ele>
        <time>2017-10-01T09:01:44Z</time>
      </trkpt>
      <trkpt lat="43.60366" lon="3.36442">
        <ele>340.3</ele>
        <time>2017-10-01T09:01:47Z</time>
      </trkpt>
      <trkpt lat="43.60367" lon="3.36428">
        <ele>340.7</ele>
        <time>2017-10-01T09:01:50Z</time>
      </trkpt>
      <trkpt lat="43.60369" lon="3.36417">
        <ele>340.9</ele>
        <time>2017-10-01T09:01:52Z</time>
      </trkpt>
      <trkpt lat="43.60372" lon="3.36403">
        <ele>341.3</ele>
        <time>2017-10-01T09:01:55Z</time>
      </trkpt>
      <trkpt lat="43.60373" lon="3.36392">
        <ele>342.5</ele>
        <time>2017-10-01T09:01:57Z</time>
      </trkpt>
      <trkpt lat="43.60375" lon="3.36378">
        <ele>342.9</ele>
        <time>2017-10-01T09:02:00Z</time>
      </trkpt>
      <trkpt lat="43.60375" lon="3.36365">
        <ele>343.3</ele>
        <time>2017-10-01T09:02:03Z</time>
      </trkpt>
      <trkpt lat="43.60378" lon="3.36351">
        <ele>343.7</ele>
        <time>2017-10-01T09:02:06Z</time>
      </trkpt>
      <trkpt lat="43.60379" lon="3.36337">
        <ele>344.1</ele>
        <time>2017-10-01T09:02:09Z</time>
      </trkpt>
      <trkpt lat="43.60381" lon="3.36324">
        <ele>344.5</ele>
        <time>2017-10-01T09:02:12Z</time>
      </trkpt>
      <trkpt lat="43.60382" lon="3.36311">
        <ele>344.9</ele>
        <time>2017-10-01T09:02:15Z</time>
      </trkpt>
      <trkpt lat="43.60383" lon="3.36297">
        <ele>345.3</ele>
        <time>2017-10-01T09:02:18Z</time>
      </trkpt>
      <trkpt lat="43.60385" lon="3.36287">
        <ele>345.5</ele>
        <time>2017-10-01T09:02:20Z</time>
      </trkpt>
      <trkpt lat="43.60386" lon="3.36273">
        <ele>345.9</ele>
        <time>2017-10-01T09:02:23Z</time>
      </trkpt>
      <trkpt lat="43.60388" lon="3.3626">
        <ele>346.2</ele>
        <time>2017-10-01T09:02:26Z</time>
      </trkpt>
      <trkpt lat="43.6039" lon="3.36245">
        <ele>346.5</ele>
        <time>2017-10-01T09:02:29Z</time>
      </trkpt>
      <trkpt lat="43.60391" lon="3.36232">
        <ele>346.7</ele>
        <time>2017-10-01T09:02:32Z</time>
      </trkpt>
      <trkpt lat="43.60393" lon="3.36219">
        <ele>347</ele>
        <time>2017-10-01T09:02:35Z</time>
      </trkpt>
      <trkpt lat="43.60394" lon="3.36205">
        <ele>347.3</ele>
        <time>2017-10-01T09:02:38Z</time>
      </trkpt>
      <trkpt lat="43.60395" lon="3.36191">
        <ele>347.6</ele>
        <time>2017-10-01T09:02:41Z</time>
      </trkpt>
      <trkpt lat="43.60394" lon="3.36177">
        <ele>347.9</ele>
        <time>2017-10-01T09:02:44Z</time>
      </trkpt>
      <trkpt lat="43.60393" lon="3.36165">
        <ele>348.3</ele>
        <time>2017-10-01T09:02:47Z</time>
      </trkpt>
      <trkpt lat="43.60391" lon="3.36151">
        <ele>348.8</ele>
        <time>2017-10-01T09:02:50Z</time>
      </trkpt>
      <trkpt lat="43.60389" lon="3.36136">
        <ele>349.2</ele>
        <time>2017-10-01T09:02:53Z</time>
      </trkpt>
      <trkpt lat="43.60386" lon="3.36125">
        <ele>349.5</ele>
        <time>2017-10-01T09:02:55Z</time>
      </trkpt>
      <trkpt lat="43.60383" lon="3.36116">
        <ele>349.7</ele>
        <time>2017-10-01T09:02:57Z</time>
      </trkpt>
      <trkpt lat="43.60378" lon="3.36107">
        <ele>349.9</ele>
        <time>2017-10-01T09:02:59Z</time>
      </trkpt>
      <trkpt lat="43.60372" lon="3.36098">
        <ele>350.8</ele>
        <time>2017-10-01T09:03:01Z</time>
      </trkpt>
      <trkpt lat="43.60364" lon="3.3609">
        <ele>351</ele>
        <time>2017-10-01T09:03:04Z</time>
      </trkpt>
      <trkpt lat="43.60356" lon="3.36084">
        <ele>351.2</ele>
        <time>2017-10-01T09:03:07Z</time>
      </trkpt>
      <trkpt lat="43.60348" lon="3.36077">
        <ele>351.4</ele>
        <time>2017-10-01T09:03:10Z</time>
      </trkpt>
      <trkpt lat="43.60338" lon="3.36069">
        <ele>351.6</ele>
        <time>2017-10-01T09:03:13Z</time>
      </trkpt>
      <trkpt lat="43.60333" lon="3.36061">
        <ele>352.8</ele>
        <time>2017-10-01T09:03:15Z</time>
      </trkpt>
      <trkpt lat="43.60329" lon="3.36052">
        <ele>352.8</ele>
        <time>2017-10-01T09:03:17Z</time>
      </trkpt>
      <trkpt lat="43.60327" lon="3.3604">
        <ele>353</ele>
        <time>2017-10-01T09:03:20Z</time>
      </trkpt>
      <trkpt lat="43.60328" lon="3.36025">
        <ele>353.2</ele>
        <time>2017-10-01T09:03:23Z</time>
      </trkpt>
      <trkpt lat="43.60328" lon="3.36014">
        <ele>353.3</ele>
        <time>2017-10-01T09:03:25Z</time>
      </trkpt>
      <trkpt lat="43.6033" lon="3.36">
        <ele>354.2</ele>
        <time>2017-10-01T09:03:28Z</time>
      </trkpt>
      <trkpt lat="43.60333" lon="3.35989">
        <ele>355.2</ele>
        <time>2017-10-01T09:03:30Z</time>
      </trkpt>
      <trkpt lat="43.60336" lon="3.3598">
        <ele>355.7</ele>
        <time>2017-10-01T09:03:32Z</time>
      </trkpt>
      <trkpt lat="43.60339" lon="3.35969">
        <ele>356.1</ele>
        <time>2017-10-01T09:03:34Z</time>
      </trkpt>
      <trkpt lat="43.60343" lon="3.35959">
        <ele>356.4</ele>
        <time>2017-10-01T09:03:36Z</time>
      </trkpt>
      <trkpt lat="43.60345" lon="3.35946">
        <ele>356.7</ele>
        <time>2017-10-01T09:03:39Z</time>
      </trkpt>
      <trkpt lat="43.60346" lon="3.35935">
        <ele>356.7</ele>
        <time>2017-10-01T09:03:41Z</time>
      </trkpt>
      <trkpt lat="43.60345" lon="3.35925">
        <ele>356.8</ele>
        <time>2017-10-01T09:03:43Z</time>
      </trkpt>
      <trkpt lat="43.60343" lon="3.35915">
        <ele>356.8</ele>
        <time>2017-10-01T09:03:45Z</time>
      </trkpt>
      <trkpt lat="43.60339" lon="3.35904">
        <ele>356.8</ele>
        <time>2017-10-01T09:03:47Z</time>
      </trkpt>
      <trkpt lat="43.60334" lon="3.35893">
        <ele>356.5</ele>
        <time>2017-10-01T09:03:49Z</time>
      </trkpt>
      <trkpt lat="43.60328" lon="3.35888">
        <ele>356.3</ele>
        <time>2017-10-01T09:03:51Z</time>
      </trkpt>
      <trkpt lat="43.60319" lon="3.35884">
        <ele>356.3</ele>
        <time>2017-10-01T09:03:54Z</time>
      </trkpt>
      <trkpt lat="43.60311" lon="3.35889">
        <ele>356.4</ele>
        <time>2017-10-01T09:03:57Z</time>
      </trkpt>
      <trkpt lat="43.603" lon="3.35892">
        <ele>356.5</ele>
        <time>2017-10-01T09:04:00Z</time>
      </trkpt>
      <trkpt lat="43.6029" lon="3.35892">
        <ele>357.4</ele>
        <time>2017-10-01T09:04:03Z</time>
      </trkpt>
      <trkpt lat="43.60282" lon="3.35892">
        <ele>358.2</ele>
        <time>2017-10-01T09:04:05Z</time>
      </trkpt>
      <trkpt lat="43.60274" lon="3.35892">
        <ele>358.4</ele>
        <time>2017-10-01T09:04:07Z</time>
      </trkpt>
      <trkpt lat="43.60267" lon="3.35892">
        <ele>358.3</ele>
        <time>2017-10-01T09:04:09Z</time>
      </trkpt>
      <trkpt lat="43.60259" lon="3.35892">
        <ele>358.3</ele>
        <time>2017-10-01T09:04:11Z</time>
      </trkpt>
      <trkpt lat="43.60251" lon="3.35894">
        <ele>358.2</ele>
        <time>2017-10-01T09:04:13Z</time>
      </trkpt>
      <trkpt lat="43.60243" lon="3.35893">
        <ele>358.1</ele>
        <time>2017-10-01T09:04:15Z</time>
      </trkpt>
      <trkpt lat="43.60236" lon="3.35888">
        <ele>358.1</ele>
        <time>2017-10-01T09:04:18Z</time>
      </trkpt>
      <trkpt lat="43.60236" lon="3.35878">
        <ele>358.2</ele>
        <time>2017-10-01T09:04:22Z</time>
      </trkpt>
      <trkpt lat="43.60243" lon="3.35869">
        <ele>358.4</ele>
        <time>2017-10-01T09:04:26Z</time>
      </trkpt>
      <trkpt lat="43.60251" lon="3.35864">
        <ele>358.8</ele>
        <time>2017-10-01T09:04:30Z</time>
      </trkpt>
      <trkpt lat="43.6026" lon="3.35861">
        <ele>359.1</ele>
        <time>2017-10-01T09:04:34Z</time>
      </trkpt>
      <trkpt lat="43.60268" lon="3.35857">
        <ele>359.5</ele>
        <time>2017-10-01T09:04:38Z</time>
      </trkpt>
      <trkpt lat="43.60276" lon="3.35852">
        <ele>359.9</ele>
        <time>2017-10-01T09:04:42Z</time>
      </trkpt>
      <trkpt lat="43.60283" lon="3.35845">
        <ele>360.4</ele>
        <time>2017-10-01T09:04:46Z</time>
      </trkpt>
      <trkpt lat="43.6029" lon="3.35837">
        <ele>360.9</ele>
        <time>2017-10-01T09:04:51Z</time>
      </trkpt>
      <trkpt lat="43.60296" lon="3.3583">
        <ele>361.3</ele>
        <time>2017-10-01T09:04:55Z</time>
      </trkpt>
      <trkpt lat="43.60303" lon="3.35821">
        <ele>361.9</ele>
        <time>2017-10-01T09:05:00Z</time>
      </trkpt>
      <trkpt lat="43.60308" lon="3.35814">
        <ele>362.3</ele>
        <time>2017-10-01T09:05:03Z</time>
      </trkpt>
      <trkpt lat="43.60313" lon="3.35806">
        <ele>362.7</ele>
        <time>2017-10-01T09:05:07Z</time>
      </trkpt>
      <trkpt lat="43.60318" lon="3.35798">
        <ele>363.2</ele>
        <time>2017-10-01T09:05:11Z</time>
      </trkpt>
      <trkpt lat="43.60324" lon="3.35789">
        <ele>363.6</ele>
        <time>2017-10-01T09:05:15Z</time>
      </trkpt>
      <trkpt lat="43.60329" lon="3.35782">
        <ele>364</ele>
        <time>2017-10-01T09:05:19Z</time>
      </trkpt>
      <trkpt lat="43.60335" lon="3.35772">
        <ele>364.4</ele>
        <time>2017-10-01T09:05:23Z</time>
      </trkpt>
      <trkpt lat="43.60339" lon="3.35763">
        <ele>364.8</ele>
        <time>2017-10-01T09:05:27Z</time>
      </trkpt>
      <trkpt lat="43.60344" lon="3.35754">
        <ele>365.3</ele>
        <time>2017-10-01T09:05:31Z</time>
      </trkpt>
      <trkpt lat="43.60348" lon="3.35746">
        <ele>365.7</ele>
        <time>2017-10-01T09:05:35Z</time>
      </trkpt>
      <trkpt lat="43.60352" lon="3.35737">
        <ele>366.2</ele>
        <time>2017-10-01T09:05:40Z</time>
      </trkpt>
      <trkpt lat="43.60356" lon="3.35728">
        <ele>366.6</ele>
        <time>2017-10-01T09:05:44Z</time>
      </trkpt>
      <trkpt lat="43.60359" lon="3.35717">
        <ele>367</ele>
        <time>2017-10-01T09:05:47Z</time>
      </trkpt>
      <trkpt lat="43.60362" lon="3.35707">
        <ele>367.4</ele>
        <time>2017-10-01T09:05:51Z</time>
      </trkpt>
      <trkpt lat="43.60366" lon="3.35695">
        <ele>367.7</ele>
        <time>2017-10-01T09:05:54Z</time>
      </trkpt>
      <trkpt lat="43.60368" lon="3.35683">
        <ele>367.9</ele>
        <time>2017-10-01T09:05:57Z</time>
      </trkpt>
      <trkpt lat="43.60372" lon="3.3567">
        <ele>368.1</ele>
        <time>2017-10-01T09:06:00Z</time>
      </trkpt>
      <trkpt lat="43.60374" lon="3.3566">
        <ele>368.3</ele>
        <time>2017-10-01T09:06:03Z</time>
      </trkpt>
      <trkpt lat="43.60376" lon="3.35649">
        <ele>368.6</ele>
        <time>2017-10-01T09:06:06Z</time>
      </trkpt>
      <trkpt lat="43.60378" lon="3.35634">
        <ele>368.9</ele>
        <time>2017-10-01T09:06:09Z</time>
      </trkpt>
      <trkpt lat="43.60378" lon="3.35622">
        <ele>369.1</ele>
        <time>2017-10-01T09:06:12Z</time>
      </trkpt>
      <trkpt lat="43.60378" lon="3.3561">
        <ele>369.3</ele>
        <time>2017-10-01T09:06:15Z</time>
      </trkpt>
      <trkpt lat="43.60378" lon="3.35598">
        <ele>369.6</ele>
        <time>2017-10-01T09:06:19Z</time>
      </trkpt>
      <trkpt lat="43.60376" lon="3.35586">
        <ele>369.7</ele>
        <time>2017-10-01T09:06:22Z</time>
      </trkpt>
      <trkpt lat="43.60373" lon="3.35574">
        <ele>369.7</ele>
        <time>2017-10-01T09:06:25Z</time>
      </trkpt>
      <trkpt lat="43.60369" lon="3.35567">
        <ele>369.6</ele>
        <time>2017-10-01T09:06:28Z</time>
      </trkpt>
      <trkpt lat="43.6036" lon="3.3556">
        <ele>369.5</ele>
        <time>2017-10-01T09:06:32Z</time>
      </trkpt>
      <trkpt lat="43.60353" lon="3.35556">
        <ele>369.4</ele>
        <time>2017-10-01T09:06:35Z</time>
      </trkpt>
      <trkpt lat="43.60345" lon="3.35553">
        <ele>369.4</ele>
        <time>2017-10-01T09:06:38Z</time>
      </trkpt>
      <trkpt lat="43.60338" lon="3.35551">
        <ele>369.4</ele>
        <time>2017-10-01T09:06:41Z</time>
      </trkpt>
      <trkpt lat="43.60329" lon="3.35549">
        <ele>369.5</ele>
        <time>2017-10-01T09:06:44Z</time>
      </trkpt>
      <trkpt lat="43.60322" lon="3.35547">
        <ele>369.6</ele>
        <time>2017-10-01T09:06:47Z</time>
      </trkpt>
      <trkpt lat="43.60313" lon="3.35545">
        <ele>369.9</ele>
        <time>2017-10-01T09:06:51Z</time>
      </trkpt>
      <trkpt lat="43.60304" lon="3.35544">
        <ele>370.1</ele>
        <time>2017-10-01T09:06:54Z</time>
      </trkpt>
      <trkpt lat="43.60294" lon="3.35543">
        <ele>370.4</ele>
        <time>2017-10-01T09:06:58Z</time>
      </trkpt>
      <trkpt lat="43.60287" lon="3.35542">
        <ele>370.8</ele>
        <time>2017-10-01T09:07:01Z</time>
      </trkpt>
      <trkpt lat="43.60278" lon="3.35542">
        <ele>371.1</ele>
        <time>2017-10-01T09:07:04Z</time>
      </trkpt>
      <trkpt lat="43.60269" lon="3.35542">
        <ele>371.4</ele>
        <time>2017-10-01T09:07:08Z</time>
      </trkpt>
      <trkpt lat="43.60261" lon="3.35542">
        <ele>371.6</ele>
        <time>2017-10-01T09:07:11Z</time>
      </trkpt>
      <trkpt lat="43.60252" lon="3.3554">
        <ele>371.9</ele>
        <time>2017-10-01T09:07:14Z</time>
      </trkpt>
      <trkpt lat="43.60244" lon="3.35537">
        <ele>372.1</ele>
        <time>2017-10-01T09:07:17Z</time>
      </trkpt>
      <trkpt lat="43.60238" lon="3.35532">
        <ele>372.3</ele>
        <time>2017-10-01T09:07:20Z</time>
      </trkpt>
      <trkpt lat="43.60233" lon="3.35523">
        <ele>372.5</ele>
        <time>2017-10-01T09:07:23Z</time>
      </trkpt>
      <trkpt lat="43.6023" lon="3.35512">
        <ele>372.7</ele>
        <time>2017-10-01T09:07:26Z</time>
      </trkpt>
      <trkpt lat="43.60229" lon="3.35502">
        <ele>372.8</ele>
        <time>2017-10-01T09:07:29Z</time>
      </trkpt>
      <trkpt lat="43.60228" lon="3.35491">
        <ele>373</ele>
        <time>2017-10-01T09:07:32Z</time>
      </trkpt>
      <trkpt lat="43.60225" lon="3.35481">
        <ele>373.2</ele>
        <time>2017-10-01T09:07:35Z</time>
      </trkpt>
      <trkpt lat="43.60222" lon="3.35471">
        <ele>373.5</ele>
        <time>2017-10-01T09:07:38Z</time>
      </trkpt>
      <trkpt lat="43.60217" lon="3.35463">
        <ele>373.7</ele>
        <time>2017-10-01T09:07:41Z</time>
      </trkpt>
      <trkpt lat="43.60212" lon="3.35455">
        <ele>374</ele>
        <time>2017-10-01T09:07:44Z</time>
      </trkpt>
      <trkpt lat="43.60206" lon="3.35446">
        <ele>374.4</ele>
        <time>2017-10-01T09:07:48Z</time>
      </trkpt>
      <trkpt lat="43.60199" lon="3.35439">
        <ele>374.9</ele>
        <time>2017-10-01T09:07:52Z</time>
      </trkpt>
      <trkpt lat="43.60191" lon="3.35432">
        <ele>375.5</ele>
        <time>2017-10-01T09:07:56Z</time>
      </trkpt>
      <trkpt lat="43.60185" lon="3.35427">
        <ele>376</ele>
        <time>2017-10-01T09:07:59Z</time>
      </trkpt>
      <trkpt lat="43.60176" lon="3.35423">
        <ele>376.7</ele>
        <time>2017-10-01T09:08:03Z</time>
      </trkpt>
      <trkpt lat="43.60169" lon="3.35419">
        <ele>377.2</ele>
        <time>2017-10-01T09:08:06Z</time>
      </trkpt>
      <trkpt lat="43.60161" lon="3.35414">
        <ele>377.8</ele>
        <time>2017-10-01T09:08:10Z</time>
      </trkpt>
      <trkpt lat="43.60153" lon="3.35407">
        <ele>378.4</ele>
        <time>2017-10-01T09:08:15Z</time>
      </trkpt>
      <trkpt lat="43.60145" lon="3.35401">
        <ele>379</ele>
        <time>2017-10-01T09:08:19Z</time>
      </trkpt>
      <trkpt lat="43.60137" lon="3.35394">
        <ele>379.6</ele>
        <time>2017-10-01T09:08:23Z</time>
      </trkpt>
      <trkpt lat="43.60129" lon="3.35389">
        <ele>380.1</ele>
        <time>2017-10-01T09:08:27Z</time>
      </trkpt>
      <trkpt lat="43.6012" lon="3.35386">
        <ele>380.6</ele>
        <time>2017-10-01T09:08:31Z</time>
      </trkpt>
      <trkpt lat="43.60112" lon="3.35385">
        <ele>381.2</ele>
        <time>2017-10-01T09:08:35Z</time>
      </trkpt>
      <trkpt lat="43.60103" lon="3.35384">
        <ele>381.7</ele>
        <time>2017-10-01T09:08:39Z</time>
      </trkpt>
      <trkpt lat="43.60094" lon="3.35383">
        <ele>382.3</ele>
        <time>2017-10-01T09:08:43Z</time>
      </trkpt>
      <trkpt lat="43.60087" lon="3.35379">
        <ele>382.9</ele>
        <time>2017-10-01T09:08:47Z</time>
      </trkpt>
      <trkpt lat="43.60081" lon="3.3537">
        <ele>383.4</ele>
        <time>2017-10-01T09:08:51Z</time>
      </trkpt>
      <trkpt lat="43.6008" lon="3.3536">
        <ele>383.9</ele>
        <time>2017-10-01T09:08:55Z</time>
      </trkpt>
      <trkpt lat="43.60083" lon="3.35351">
        <ele>384.7</ele>
        <time>2017-10-01T09:09:00Z</time>
      </trkpt>
      <trkpt lat="43.60087" lon="3.35341">
        <ele>385.5</ele>
        <time>2017-10-01T09:09:04Z</time>
      </trkpt>
      <trkpt lat="43.6009" lon="3.35332">
        <ele>386.3</ele>
        <time>2017-10-01T09:09:08Z</time>
      </trkpt>
      <trkpt lat="43.60094" lon="3.35323">
        <ele>387.1</ele>
        <time>2017-10-01T09:09:12Z</time>
      </trkpt>
      <trkpt lat="43.60097" lon="3.35311">
        <ele>387.9</ele>
        <time>2017-10-01T09:09:16Z</time>
      </trkpt>
      <trkpt lat="43.601" lon="3.35301">
        <ele>388.5</ele>
        <time>2017-10-01T09:09:19Z</time>
      </trkpt>
      <trkpt lat="43.601" lon="3.35291">
        <ele>389</ele>
        <time>2017-10-01T09:09:22Z</time>
      </trkpt>
      <trkpt lat="43.60099" lon="3.35279">
        <ele>389.4</ele>
        <time>2017-10-01T09:09:25Z</time>
      </trkpt>
      <trkpt lat="43.60094" lon="3.35267">
        <ele>389.8</ele>
        <time>2017-10-01T09:09:28Z</time>
      </trkpt>
      <trkpt lat="43.6009" lon="3.35259">
        <ele>390</ele>
        <time>2017-10-01T09:09:31Z</time>
      </trkpt>
      <trkpt lat="43.60084" lon="3.35251">
        <ele>390.2</ele>
        <time>2017-10-01T09:09:34Z</time>
      </trkpt>
      <trkpt lat="43.60077" lon="3.35242">
        <ele>390.5</ele>
        <time>2017-10-01T09:09:38Z</time>
      </trkpt>
      <trkpt lat="43.60074" lon="3.35232">
        <ele>390.6</ele>
        <time>2017-10-01T09:09:41Z</time>
      </trkpt>
      <trkpt lat="43.60071" lon="3.35222">
        <ele>390.8</ele>
        <time>2017-10-01T09:09:44Z</time>
      </trkpt>
      <trkpt lat="43.60067" lon="3.3521">
        <ele>391.1</ele>
        <time>2017-10-01T09:09:48Z</time>
      </trkpt>
      <trkpt lat="43.60063" lon="3.35199">
        <ele>391.5</ele>
        <time>2017-10-01T09:09:52Z</time>
      </trkpt>
      <trkpt lat="43.6006" lon="3.3519">
        <ele>391.8</ele>
        <time>2017-10-01T09:09:55Z</time>
      </trkpt>
      <trkpt lat="43.60055" lon="3.3518">
        <ele>392.2</ele>
        <time>2017-10-01T09:09:59Z</time>
      </trkpt>
      <trkpt lat="43.60051" lon="3.35171">
        <ele>392.5</ele>
        <time>2017-10-01T09:10:02Z</time>
      </trkpt>
      <trkpt lat="43.60046" lon="3.35163">
        <ele>392.8</ele>
        <time>2017-10-01T09:10:05Z</time>
      </trkpt>
      <trkpt lat="43.6004" lon="3.35153">
        <ele>393.2</ele>
        <time>2017-10-01T09:10:09Z</time>
      </trkpt>
      <trkpt lat="43.60034" lon="3.35146">
        <ele>393.4</ele>
        <time>2017-10-01T09:10:12Z</time>
      </trkpt>
      <trkpt lat="43.60028" lon="3.35139">
        <ele>393.5</ele>
        <time>2017-10-01T09:10:15Z</time>
      </trkpt>
      <trkpt lat="43.6002" lon="3.35137">
        <ele>393.8</ele>
        <time>2017-10-01T09:10:18Z</time>
      </trkpt>
      <trkpt lat="43.60013" lon="3.35137">
        <ele>394.1</ele>
        <time>2017-10-01T09:10:21Z</time>
      </trkpt>
      <trkpt lat="43.60006" lon="3.35142">
        <ele>394.4</ele>
        <time>2017-10-01T09:10:24Z</time>
      </trkpt>
      <trkpt lat="43.6" lon="3.35147">
        <ele>394.7</ele>
        <time>2017-10-01T09:10:27Z</time>
      </trkpt>
      <trkpt lat="43.59992" lon="3.35154">
        <ele>395.2</ele>
        <time>2017-10-01T09:10:31Z</time>
      </trkpt>
      <trkpt lat="43.59984" lon="3.35161">
        <ele>395.7</ele>
        <time>2017-10-01T09:10:35Z</time>
      </trkpt>
      <trkpt lat="43.59977" lon="3.35167">
        <ele>396.2</ele>
        <time>2017-10-01T09:10:39Z</time>
      </trkpt>
      <trkpt lat="43.59969" lon="3.35174">
        <ele>396.6</ele>
        <time>2017-10-01T09:10:43Z</time>
      </trkpt>
      <trkpt lat="43.59962" lon="3.3518">
        <ele>397.1</ele>
        <time>2017-10-01T09:10:47Z</time>
      </trkpt>
      <trkpt lat="43.59954" lon="3.35186">
        <ele>397.5</ele>
        <time>2017-10-01T09:10:51Z</time>
      </trkpt>
      <trkpt lat="43.59946" lon="3.35193">
        <ele>398</ele>
        <time>2017-10-01T09:10:55Z</time>
      </trkpt>
      <trkpt lat="43.59939" lon="3.352">
        <ele>398.4</ele>
        <time>2017-10-01T09:10:59Z</time>
      </trkpt>
      <trkpt lat="43.59931" lon="3.35206">
        <ele>398.9</ele>
        <time>2017-10-01T09:11:03Z</time>
      </trkpt>
      <trkpt lat="43.59925" lon="3.3521">
        <ele>399.7</ele>
        <time>2017-10-01T09:11:09Z</time>
      </trkpt>
      <trkpt lat="43.59928" lon="3.35212">
        <ele>400.2</ele>
        <time>2017-10-01T09:11:18Z</time>
      </trkpt>
      <trkpt lat="43.59935" lon="3.35204">
        <ele>400.5</ele>
        <time>2017-10-01T09:11:22Z</time>
      </trkpt>
      <trkpt lat="43.59943" lon="3.35198">
        <ele>400.8</ele>
        <time>2017-10-01T09:11:25Z</time>
      </trkpt>
      <trkpt lat="43.5995" lon="3.35193">
        <ele>401.2</ele>
        <time>2017-10-01T09:11:30Z</time>
      </trkpt>
      <trkpt lat="43.59957" lon="3.35186">
        <ele>401.7</ele>
        <time>2017-10-01T09:11:35Z</time>
      </trkpt>
      <trkpt lat="43.59964" lon="3.35177">
        <ele>402</ele>
        <time>2017-10-01T09:11:39Z</time>
      </trkpt>
      <trkpt lat="43.59965" lon="3.35165">
        <ele>402.2</ele>
        <time>2017-10-01T09:11:42Z</time>
      </trkpt>
      <trkpt lat="43.5996" lon="3.35152">
        <ele>402.2</ele>
        <time>2017-10-01T09:11:45Z</time>
      </trkpt>
      <trkpt lat="43.59961" lon="3.35139">
        <ele>401.5</ele>
        <time>2017-10-01T09:11:47Z</time>
      </trkpt>
      <trkpt lat="43.59968" lon="3.35125">
        <ele>400.4</ele>
        <time>2017-10-01T09:11:49Z</time>
      </trkpt>
      <trkpt lat="43.59976" lon="3.3511">
        <ele>399</ele>
        <time>2017-10-01T09:11:51Z</time>
      </trkpt>
      <trkpt lat="43.5998" lon="3.35101">
        <ele>398.3</ele>
        <time>2017-10-01T09:11:52Z</time>
      </trkpt>
      <trkpt lat="43.59984" lon="3.35093">
        <ele>397.5</ele>
        <time>2017-10-01T09:11:53Z</time>
      </trkpt>
      <trkpt lat="43.5999" lon="3.35076">
        <ele>396.1</ele>
        <time>2017-10-01T09:11:55Z</time>
      </trkpt>
      <trkpt lat="43.59999" lon="3.35063">
        <ele>394.9</ele>
        <time>2017-10-01T09:11:57Z</time>
      </trkpt>
      <trkpt lat="43.60009" lon="3.35056">
        <ele>394.1</ele>
        <time>2017-10-01T09:11:59Z</time>
      </trkpt>
      <trkpt lat="43.60019" lon="3.35051">
        <ele>393.5</ele>
        <time>2017-10-01T09:12:02Z</time>
      </trkpt>
      <trkpt lat="43.60026" lon="3.35044">
        <ele>393.1</ele>
        <time>2017-10-01T09:12:03Z</time>
      </trkpt>
      <trkpt lat="43.60032" lon="3.35037">
        <ele>393</ele>
        <time>2017-10-01T09:12:05Z</time>
      </trkpt>
      <trkpt lat="43.6004" lon="3.35034">
        <ele>393</ele>
        <time>2017-10-01T09:12:08Z</time>
      </trkpt>
      <trkpt lat="43.60048" lon="3.35031">
        <ele>392.9</ele>
        <time>2017-10-01T09:12:11Z</time>
      </trkpt>
      <trkpt lat="43.60056" lon="3.3503">
        <ele>392.9</ele>
        <time>2017-10-01T09:12:14Z</time>
      </trkpt>
      <trkpt lat="43.60065" lon="3.35025">
        <ele>392.9</ele>
        <time>2017-10-01T09:12:17Z</time>
      </trkpt>
      <trkpt lat="43.60074" lon="3.35017">
        <ele>392.8</ele>
        <time>2017-10-01T09:12:20Z</time>
      </trkpt>
      <trkpt lat="43.60081" lon="3.35005">
        <ele>392.7</ele>
        <time>2017-10-01T09:12:23Z</time>
      </trkpt>
      <trkpt lat="43.60086" lon="3.34997">
        <ele>392.7</ele>
        <time>2017-10-01T09:12:25Z</time>
      </trkpt>
      <trkpt lat="43.60091" lon="3.34989">
        <ele>392.3</ele>
        <time>2017-10-01T09:12:27Z</time>
      </trkpt>
      <trkpt lat="43.60094" lon="3.34978">
        <ele>392.1</ele>
        <time>2017-10-01T09:12:29Z</time>
      </trkpt>
      <trkpt lat="43.60097" lon="3.34964">
        <ele>391.6</ele>
        <time>2017-10-01T09:12:31Z</time>
      </trkpt>
      <trkpt lat="43.60102" lon="3.3495">
        <ele>391.2</ele>
        <time>2017-10-01T09:12:33Z</time>
      </trkpt>
      <trkpt lat="43.60107" lon="3.34937">
        <ele>390.7</ele>
        <time>2017-10-01T09:12:35Z</time>
      </trkpt>
      <trkpt lat="43.60112" lon="3.34922">
        <ele>390</ele>
        <time>2017-10-01T09:12:37Z</time>
      </trkpt>
      <trkpt lat="43.60116" lon="3.34905">
        <ele>389.1</ele>
        <time>2017-10-01T09:12:39Z</time>
      </trkpt>
      <trkpt lat="43.60122" lon="3.34891">
        <ele>388.2</ele>
        <time>2017-10-01T09:12:41Z</time>
      </trkpt>
      <trkpt lat="43.60128" lon="3.34876">
        <ele>387.2</ele>
        <time>2017-10-01T09:12:43Z</time>
      </trkpt>
      <trkpt lat="43.60132" lon="3.34859">
        <ele>386.1</ele>
        <time>2017-10-01T09:12:45Z</time>
      </trkpt>
      <trkpt lat="43.60137" lon="3.34842">
        <ele>384.8</ele>
        <time>2017-10-01T09:12:47Z</time>
      </trkpt>
      <trkpt lat="43.60141" lon="3.34824">
        <ele>383.5</ele>
        <time>2017-10-01T09:12:49Z</time>
      </trkpt>
      <trkpt lat="43.60148" lon="3.34807">
        <ele>382.5</ele>
        <time>2017-10-01T09:12:51Z</time>
      </trkpt>
      <trkpt lat="43.60155" lon="3.34791">
        <ele>381.6</ele>
        <time>2017-10-01T09:12:53Z</time>
      </trkpt>
      <trkpt lat="43.60165" lon="3.34777">
        <ele>381</ele>
        <time>2017-10-01T09:12:55Z</time>
      </trkpt>
      <trkpt lat="43.60174" lon="3.34762">
        <ele>380.3</ele>
        <time>2017-10-01T09:12:57Z</time>
      </trkpt>
      <trkpt lat="43.60182" lon="3.34749">
        <ele>379.7</ele>
        <time>2017-10-01T09:12:59Z</time>
      </trkpt>
      <trkpt lat="43.60191" lon="3.34738">
        <ele>379.1</ele>
        <time>2017-10-01T09:13:01Z</time>
      </trkpt>
      <trkpt lat="43.602" lon="3.34728">
        <ele>378.5</ele>
        <time>2017-10-01T09:13:03Z</time>
      </trkpt>
      <trkpt lat="43.60208" lon="3.34718">
        <ele>378.2</ele>
        <time>2017-10-01T09:13:05Z</time>
      </trkpt>
      <trkpt lat="43.60215" lon="3.3471">
        <ele>378</ele>
        <time>2017-10-01T09:13:07Z</time>
      </trkpt>
      <trkpt lat="43.60222" lon="3.34704">
        <ele>377.8</ele>
        <time>2017-10-01T09:13:09Z</time>
      </trkpt>
      <trkpt lat="43.60229" lon="3.34699">
        <ele>377.8</ele>
        <time>2017-10-01T09:13:11Z</time>
      </trkpt>
      <trkpt lat="43.60238" lon="3.34695">
        <ele>377.8</ele>
        <time>2017-10-01T09:13:14Z</time>
      </trkpt>
      <trkpt lat="43.60246" lon="3.3469">
        <ele>377.8</ele>
        <time>2017-10-01T09:13:17Z</time>
      </trkpt>
      <trkpt lat="43.60254" lon="3.34686">
        <ele>377.8</ele>
        <time>2017-10-01T09:13:20Z</time>
      </trkpt>
      <trkpt lat="43.60263" lon="3.34683">
        <ele>377.8</ele>
        <time>2017-10-01T09:13:23Z</time>
      </trkpt>
      <trkpt lat="43.6027" lon="3.3468">
        <ele>377.8</ele>
        <time>2017-10-01T09:13:26Z</time>
      </trkpt>
      <trkpt lat="43.60277" lon="3.34678">
        <ele>377.9</ele>
        <time>2017-10-01T09:13:29Z</time>
      </trkpt>
      <trkpt lat="43.60286" lon="3.34677">
        <ele>378.1</ele>
        <time>2017-10-01T09:13:33Z</time>
      </trkpt>
      <trkpt lat="43.60295" lon="3.34675">
        <ele>378.3</ele>
        <time>2017-10-01T09:13:37Z</time>
      </trkpt>
      <trkpt lat="43.60303" lon="3.34673">
        <ele>378.5</ele>
        <time>2017-10-01T09:13:41Z</time>
      </trkpt>
      <trkpt lat="43.60312" lon="3.34672">
        <ele>378.8</ele>
        <time>2017-10-01T09:13:45Z</time>
      </trkpt>
      <trkpt lat="43.60321" lon="3.34672">
        <ele>379.1</ele>
        <time>2017-10-01T09:13:49Z</time>
      </trkpt>
      <trkpt lat="43.60329" lon="3.34671">
        <ele>379.4</ele>
        <time>2017-10-01T09:13:53Z</time>
      </trkpt>
      <trkpt lat="43.60338" lon="3.34669">
        <ele>379.8</ele>
        <time>2017-10-01T09:13:58Z</time>
      </trkpt>
      <trkpt lat="43.60346" lon="3.34667">
        <ele>380.2</ele>
        <time>2017-10-01T09:14:02Z</time>
      </trkpt>
      <trkpt lat="43.60355" lon="3.34665">
        <ele>380.6</ele>
        <time>2017-10-01T09:14:06Z</time>
      </trkpt>
      <trkpt lat="43.60364" lon="3.34665">
        <ele>381.2</ele>
        <time>2017-10-01T09:14:10Z</time>
      </trkpt>
      <trkpt lat="43.60372" lon="3.34663">
        <ele>382</ele>
        <time>2017-10-01T09:14:14Z</time>
      </trkpt>
      <trkpt lat="43.6038" lon="3.34661">
        <ele>382.8</ele>
        <time>2017-10-01T09:14:18Z</time>
      </trkpt>
      <trkpt lat="43.60388" lon="3.34659">
        <ele>383.6</ele>
        <time>2017-10-01T09:14:22Z</time>
      </trkpt>
      <trkpt lat="43.60396" lon="3.34657">
        <ele>384.5</ele>
        <time>2017-10-01T09:14:26Z</time>
      </trkpt>
      <trkpt lat="43.60403" lon="3.34654">
        <ele>385.4</ele>
        <time>2017-10-01T09:14:30Z</time>
      </trkpt>
      <trkpt lat="43.60412" lon="3.34651">
        <ele>386.3</ele>
        <time>2017-10-01T09:14:34Z</time>
      </trkpt>
      <trkpt lat="43.60419" lon="3.34646">
        <ele>387.2</ele>
        <time>2017-10-01T09:14:38Z</time>
      </trkpt>
      <trkpt lat="43.60426" lon="3.34641">
        <ele>388</ele>
        <time>2017-10-01T09:14:42Z</time>
      </trkpt>
      <trkpt lat="43.60432" lon="3.34637">
        <ele>388.8</ele>
        <time>2017-10-01T09:14:46Z</time>
      </trkpt>
      <trkpt lat="43.6044" lon="3.3463">
        <ele>389.5</ele>
        <time>2017-10-01T09:14:50Z</time>
      </trkpt>
      <trkpt lat="43.60447" lon="3.34624">
        <ele>390.2</ele>
        <time>2017-10-01T09:14:54Z</time>
      </trkpt>
      <trkpt lat="43.60455" lon="3.34617">
        <ele>390.7</ele>
        <time>2017-10-01T09:14:57Z</time>
      </trkpt>
      <trkpt lat="43.60462" lon="3.34609">
        <ele>391.2</ele>
        <time>2017-10-01T09:15:00Z</time>
      </trkpt>
      <trkpt lat="43.6047" lon="3.346">
        <ele>391.7</ele>
        <time>2017-10-01T09:15:03Z</time>
      </trkpt>
      <trkpt lat="43.60477" lon="3.34594">
        <ele>392.2</ele>
        <time>2017-10-01T09:15:06Z</time>
      </trkpt>
      <trkpt lat="43.60484" lon="3.34588">
        <ele>392.7</ele>
        <time>2017-10-01T09:15:09Z</time>
      </trkpt>
      <trkpt lat="43.60492" lon="3.34585">
        <ele>393.1</ele>
        <time>2017-10-01T09:15:12Z</time>
      </trkpt>
      <trkpt lat="43.60503" lon="3.34583">
        <ele>393.6</ele>
        <time>2017-10-01T09:15:15Z</time>
      </trkpt>
      <trkpt lat="43.6051" lon="3.34582">
        <ele>396</ele>
        <time>2017-10-01T09:15:17Z</time>
      </trkpt>
      <trkpt lat="43.60518" lon="3.34579">
        <ele>397.4</ele>
        <time>2017-10-01T09:15:19Z</time>
      </trkpt>
      <trkpt lat="43.60526" lon="3.34575">
        <ele>398.2</ele>
        <time>2017-10-01T09:15:21Z</time>
      </trkpt>
      <trkpt lat="43.60534" lon="3.34571">
        <ele>398.5</ele>
        <time>2017-10-01T09:15:23Z</time>
      </trkpt>
      <trkpt lat="43.60542" lon="3.34565">
        <ele>398.5</ele>
        <time>2017-10-01T09:15:25Z</time>
      </trkpt>
      <trkpt lat="43.60552" lon="3.34563">
        <ele>398.5</ele>
        <time>2017-10-01T09:15:27Z</time>
      </trkpt>
      <trkpt lat="43.60562" lon="3.34559">
        <ele>398.5</ele>
        <time>2017-10-01T09:15:29Z</time>
      </trkpt>
      <trkpt lat="43.60573" lon="3.34553">
        <ele>398.5</ele>
        <time>2017-10-01T09:15:31Z</time>
      </trkpt>
      <trkpt lat="43.60583" lon="3.34545">
        <ele>398.6</ele>
        <time>2017-10-01T09:15:33Z</time>
      </trkpt>
      <trkpt lat="43.60593" lon="3.34537">
        <ele>398.5</ele>
        <time>2017-10-01T09:15:35Z</time>
      </trkpt>
      <trkpt lat="43.60603" lon="3.34533">
        <ele>398.5</ele>
        <time>2017-10-01T09:15:37Z</time>
      </trkpt>
      <trkpt lat="43.60614" lon="3.3453">
        <ele>398.4</ele>
        <time>2017-10-01T09:15:39Z</time>
      </trkpt>
      <trkpt lat="43.60625" lon="3.34528">
        <ele>398.1</ele>
        <time>2017-10-01T09:15:41Z</time>
      </trkpt>
      <trkpt lat="43.60637" lon="3.34524">
        <ele>397.5</ele>
        <time>2017-10-01T09:15:43Z</time>
      </trkpt>
      <trkpt lat="43.60649" lon="3.3452">
        <ele>397.1</ele>
        <time>2017-10-01T09:15:45Z</time>
      </trkpt>
      <trkpt lat="43.60661" lon="3.34515">
        <ele>396.8</ele>
        <time>2017-10-01T09:15:47Z</time>
      </trkpt>
      <trkpt lat="43.6067" lon="3.3451">
        <ele>396.7</ele>
        <time>2017-10-01T09:15:49Z</time>
      </trkpt>
      <trkpt lat="43.60678" lon="3.34505">
        <ele>396.7</ele>
        <time>2017-10-01T09:15:51Z</time>
      </trkpt>
      <trkpt lat="43.60685" lon="3.34501">
        <ele>397</ele>
        <time>2017-10-01T09:15:53Z</time>
      </trkpt>
      <trkpt lat="43.60692" lon="3.34497">
        <ele>397</ele>
        <time>2017-10-01T09:15:55Z</time>
      </trkpt>
      <trkpt lat="43.60699" lon="3.34492">
        <ele>397.1</ele>
        <time>2017-10-01T09:15:57Z</time>
      </trkpt>
      <trkpt lat="43.60705" lon="3.34486">
        <ele>397.4</ele>
        <time>2017-10-01T09:15:59Z</time>
      </trkpt>
      <trkpt lat="43.60711" lon="3.34481">
        <ele>397.7</ele>
        <time>2017-10-01T09:16:01Z</time>
      </trkpt>
      <trkpt lat="43.60718" lon="3.34475">
        <ele>398.3</ele>
        <time>2017-10-01T09:16:03Z</time>
      </trkpt>
      <trkpt lat="43.60724" lon="3.34469">
        <ele>398.6</ele>
        <time>2017-10-01T09:16:05Z</time>
      </trkpt>
      <trkpt lat="43.6073" lon="3.34463">
        <ele>398.7</ele>
        <time>2017-10-01T09:16:07Z</time>
      </trkpt>
      <trkpt lat="43.60737" lon="3.34457">
        <ele>398.9</ele>
        <time>2017-10-01T09:16:09Z</time>
      </trkpt>
      <trkpt lat="43.60743" lon="3.34449">
        <ele>399</ele>
        <time>2017-10-01T09:16:11Z</time>
      </trkpt>
      <trkpt lat="43.6075" lon="3.34443">
        <ele>399</ele>
        <time>2017-10-01T09:16:13Z</time>
      </trkpt>
      <trkpt lat="43.60756" lon="3.34436">
        <ele>399.1</ele>
        <time>2017-10-01T09:16:15Z</time>
      </trkpt>
      <trkpt lat="43.60761" lon="3.3443">
        <ele>399.1</ele>
        <time>2017-10-01T09:16:17Z</time>
      </trkpt>
      <trkpt lat="43.60767" lon="3.34422">
        <ele>399.1</ele>
        <time>2017-10-01T09:16:19Z</time>
      </trkpt>
      <trkpt lat="43.60772" lon="3.34414">
        <ele>399.1</ele>
        <time>2017-10-01T09:16:21Z</time>
      </trkpt>
      <trkpt lat="43.60776" lon="3.34403">
        <ele>399.1</ele>
        <time>2017-10-01T09:16:24Z</time>
      </trkpt>
      <trkpt lat="43.60777" lon="3.34393">
        <ele>399.2</ele>
        <time>2017-10-01T09:16:27Z</time>
      </trkpt>
      <trkpt lat="43.6078" lon="3.34383">
        <ele>399.2</ele>
        <time>2017-10-01T09:16:30Z</time>
      </trkpt>
      <trkpt lat="43.60783" lon="3.34372">
        <ele>399.3</ele>
        <time>2017-10-01T09:16:34Z</time>
      </trkpt>
      <trkpt lat="43.60784" lon="3.34362">
        <ele>399.5</ele>
        <time>2017-10-01T09:16:37Z</time>
      </trkpt>
      <trkpt lat="43.60787" lon="3.34351">
        <ele>399.6</ele>
        <time>2017-10-01T09:16:40Z</time>
      </trkpt>
      <trkpt lat="43.60789" lon="3.3434">
        <ele>399.9</ele>
        <time>2017-10-01T09:16:44Z</time>
      </trkpt>
      <trkpt lat="43.6079" lon="3.3433">
        <ele>400.2</ele>
        <time>2017-10-01T09:16:48Z</time>
      </trkpt>
      <trkpt lat="43.60791" lon="3.34319">
        <ele>400.3</ele>
        <time>2017-10-01T09:16:52Z</time>
      </trkpt>
      <trkpt lat="43.60794" lon="3.3431">
        <ele>400.9</ele>
        <time>2017-10-01T09:19:16Z</time>
      </trkpt>
      <trkpt lat="43.60794" lon="3.34297">
        <ele>401</ele>
        <time>2017-10-01T09:19:18Z</time>
      </trkpt>
      <trkpt lat="43.60791" lon="3.34282">
        <ele>400.6</ele>
        <time>2017-10-01T09:19:20Z</time>
      </trkpt>
      <trkpt lat="43.60787" lon="3.34267">
        <ele>399.6</ele>
        <time>2017-10-01T09:19:22Z</time>
      </trkpt>
      <trkpt lat="43.60782" lon="3.34251">
        <ele>398.1</ele>
        <time>2017-10-01T09:19:24Z</time>
      </trkpt>
      <trkpt lat="43.60776" lon="3.34237">
        <ele>396</ele>
        <time>2017-10-01T09:19:26Z</time>
      </trkpt>
      <trkpt lat="43.60769" lon="3.34221">
        <ele>393.3</ele>
        <time>2017-10-01T09:19:28Z</time>
      </trkpt>
      <trkpt lat="43.60765" lon="3.34212">
        <ele>391.9</ele>
        <time>2017-10-01T09:19:29Z</time>
      </trkpt>
      <trkpt lat="43.6076" lon="3.34204">
        <ele>390.3</ele>
        <time>2017-10-01T09:19:30Z</time>
      </trkpt>
      <trkpt lat="43.60756" lon="3.34195">
        <ele>388.8</ele>
        <time>2017-10-01T09:19:31Z</time>
      </trkpt>
      <trkpt lat="43.60752" lon="3.34184">
        <ele>387.4</ele>
        <time>2017-10-01T09:19:32Z</time>
      </trkpt>
      <trkpt lat="43.60749" lon="3.34172">
        <ele>386.1</ele>
        <time>2017-10-01T09:19:33Z</time>
      </trkpt>
      <trkpt lat="43.60746" lon="3.3416">
        <ele>384.9</ele>
        <time>2017-10-01T09:19:34Z</time>
      </trkpt>
      <trkpt lat="43.60743" lon="3.34148">
        <ele>383.7</ele>
        <time>2017-10-01T09:19:35Z</time>
      </trkpt>
      <trkpt lat="43.60741" lon="3.34135">
        <ele>382.6</ele>
        <time>2017-10-01T09:19:36Z</time>
      </trkpt>
      <trkpt lat="43.60739" lon="3.34124">
        <ele>381.7</ele>
        <time>2017-10-01T09:19:37Z</time>
      </trkpt>
      <trkpt lat="43.60736" lon="3.34114">
        <ele>381</ele>
        <time>2017-10-01T09:19:38Z</time>
      </trkpt>
      <trkpt lat="43.60732" lon="3.34104">
        <ele>380.3</ele>
        <time>2017-10-01T09:19:39Z</time>
      </trkpt>
      <trkpt lat="43.6073" lon="3.34086">
        <ele>379</ele>
        <time>2017-10-01T09:19:41Z</time>
      </trkpt>
      <trkpt lat="43.60727" lon="3.34071">
        <ele>377.8</ele>
        <time>2017-10-01T09:19:44Z</time>
      </trkpt>
      <trkpt lat="43.60727" lon="3.34057">
        <ele>376.1</ele>
        <time>2017-10-01T09:19:46Z</time>
      </trkpt>
      <trkpt lat="43.60728" lon="3.34039">
        <ele>373.8</ele>
        <time>2017-10-01T09:19:48Z</time>
      </trkpt>
      <trkpt lat="43.6073" lon="3.34021">
        <ele>371.5</ele>
        <time>2017-10-01T09:19:50Z</time>
      </trkpt>
      <trkpt lat="43.60734" lon="3.3401">
        <ele>370.3</ele>
        <time>2017-10-01T09:19:52Z</time>
      </trkpt>
      <trkpt lat="43.60735" lon="3.34007">
        <ele>369.7</ele>
        <time>2017-10-01T09:19:59Z</time>
      </trkpt>
      <trkpt lat="43.60729" lon="3.33997">
        <ele>368.1</ele>
        <time>2017-10-01T09:20:07Z</time>
      </trkpt>
      <trkpt lat="43.60722" lon="3.33992">
        <ele>366</ele>
        <time>2017-10-01T09:20:09Z</time>
      </trkpt>
      <trkpt lat="43.60712" lon="3.33993">
        <ele>362.6</ele>
        <time>2017-10-01T09:20:11Z</time>
      </trkpt>
      <trkpt lat="43.60704" lon="3.33997">
        <ele>359.7</ele>
        <time>2017-10-01T09:20:13Z</time>
      </trkpt>
      <trkpt lat="43.60696" lon="3.33999">
        <ele>357.6</ele>
        <time>2017-10-01T09:20:15Z</time>
      </trkpt>
      <trkpt lat="43.60685" lon="3.34">
        <ele>355.6</ele>
        <time>2017-10-01T09:20:17Z</time>
      </trkpt>
      <trkpt lat="43.60676" lon="3.34003">
        <ele>354</ele>
        <time>2017-10-01T09:20:19Z</time>
      </trkpt>
      <trkpt lat="43.60667" lon="3.34009">
        <ele>352.7</ele>
        <time>2017-10-01T09:20:21Z</time>
      </trkpt>
      <trkpt lat="43.60658" lon="3.34011">
        <ele>351.6</ele>
        <time>2017-10-01T09:20:23Z</time>
      </trkpt>
      <trkpt lat="43.60651" lon="3.34008">
        <ele>351.5</ele>
        <time>2017-10-01T09:20:25Z</time>
      </trkpt>
      <trkpt lat="43.60646" lon="3.34">
        <ele>351.4</ele>
        <time>2017-10-01T09:20:27Z</time>
      </trkpt>
      <trkpt lat="43.6064" lon="3.33993">
        <ele>351.3</ele>
        <time>2017-10-01T09:20:29Z</time>
      </trkpt>
      <trkpt lat="43.60632" lon="3.33987">
        <ele>351.2</ele>
        <time>2017-10-01T09:20:32Z</time>
      </trkpt>
      <trkpt lat="43.60624" lon="3.33984">
        <ele>351.2</ele>
        <time>2017-10-01T09:20:35Z</time>
      </trkpt>
      <trkpt lat="43.60616" lon="3.33981">
        <ele>351.2</ele>
        <time>2017-10-01T09:20:38Z</time>
      </trkpt>
      <trkpt lat="43.60609" lon="3.33975">
        <ele>351.2</ele>
        <time>2017-10-01T09:20:40Z</time>
      </trkpt>
      <trkpt lat="43.606" lon="3.33966">
        <ele>351</ele>
        <time>2017-10-01T09:20:42Z</time>
      </trkpt>
      <trkpt lat="43.60592" lon="3.33957">
        <ele>350.5</ele>
        <time>2017-10-01T09:20:44Z</time>
      </trkpt>
      <trkpt lat="43.60584" lon="3.33948">
        <ele>350.3</ele>
        <time>2017-10-01T09:20:46Z</time>
      </trkpt>
      <trkpt lat="43.60577" lon="3.33941">
        <ele>350.3</ele>
        <time>2017-10-01T09:20:49Z</time>
      </trkpt>
      <trkpt lat="43.60568" lon="3.33937">
        <ele>350.5</ele>
        <time>2017-10-01T09:20:52Z</time>
      </trkpt>
      <trkpt lat="43.60561" lon="3.33932">
        <ele>350.9</ele>
        <time>2017-10-01T09:20:57Z</time>
      </trkpt>
      <trkpt lat="43.60557" lon="3.3393">
        <ele>350.9</ele>
        <time>2017-10-01T09:21:18Z</time>
      </trkpt>
      <trkpt lat="43.60548" lon="3.33932">
        <ele>350</ele>
        <time>2017-10-01T09:21:34Z</time>
      </trkpt>
      <trkpt lat="43.60541" lon="3.33934">
        <ele>349.9</ele>
        <time>2017-10-01T09:21:38Z</time>
      </trkpt>
      <trkpt lat="43.60533" lon="3.33937">
        <ele>349.8</ele>
        <time>2017-10-01T09:21:42Z</time>
      </trkpt>
      <trkpt lat="43.60524" lon="3.33939">
        <ele>349.7</ele>
        <time>2017-10-01T09:21:45Z</time>
      </trkpt>
      <trkpt lat="43.60515" lon="3.33941">
        <ele>349.6</ele>
        <time>2017-10-01T09:21:49Z</time>
      </trkpt>
      <trkpt lat="43.60511" lon="3.33932">
        <ele>349.3</ele>
        <time>2017-10-01T09:21:57Z</time>
      </trkpt>
      <trkpt lat="43.60511" lon="3.3392">
        <ele>349.3</ele>
        <time>2017-10-01T09:22:03Z</time>
      </trkpt>
      <trkpt lat="43.6051" lon="3.33909">
        <ele>349.5</ele>
        <time>2017-10-01T09:22:09Z</time>
      </trkpt>
      <trkpt lat="43.60508" lon="3.33898">
        <ele>349.9</ele>
        <time>2017-10-01T09:22:14Z</time>
      </trkpt>
      <trkpt lat="43.60505" lon="3.33887">
        <ele>350.5</ele>
        <time>2017-10-01T09:22:19Z</time>
      </trkpt>
      <trkpt lat="43.60501" lon="3.33878">
        <ele>351.1</ele>
        <time>2017-10-01T09:22:24Z</time>
      </trkpt>
      <trkpt lat="43.60495" lon="3.33872">
        <ele>351.6</ele>
        <time>2017-10-01T09:22:29Z</time>
      </trkpt>
      <trkpt lat="43.60488" lon="3.33868">
        <ele>352</ele>
        <time>2017-10-01T09:22:33Z</time>
      </trkpt>
      <trkpt lat="43.60479" lon="3.33869">
        <ele>352.3</ele>
        <time>2017-10-01T09:22:38Z</time>
      </trkpt>
      <trkpt lat="43.60471" lon="3.33872">
        <ele>352.6</ele>
        <time>2017-10-01T09:22:42Z</time>
      </trkpt>
      <trkpt lat="43.60463" lon="3.33874">
        <ele>352.8</ele>
        <time>2017-10-01T09:22:46Z</time>
      </trkpt>
      <trkpt lat="43.60454" lon="3.33874">
        <ele>353.1</ele>
        <time>2017-10-01T09:22:49Z</time>
      </trkpt>
      <trkpt lat="43.60445" lon="3.33874">
        <ele>353.2</ele>
        <time>2017-10-01T09:22:52Z</time>
      </trkpt>
      <trkpt lat="43.60439" lon="3.33874">
        <ele>353.3</ele>
        <time>2017-10-01T09:22:59Z</time>
      </trkpt>
      <trkpt lat="43.60435" lon="3.33874">
        <ele>353.3</ele>
        <time>2017-10-01T09:23:06Z</time>
      </trkpt>
      <trkpt lat="43.60428" lon="3.33872">
        <ele>353</ele>
        <time>2017-10-01T09:23:15Z</time>
      </trkpt>
      <trkpt lat="43.6042" lon="3.3387">
        <ele>352.9</ele>
        <time>2017-10-01T09:23:20Z</time>
      </trkpt>
      <trkpt lat="43.60413" lon="3.33868">
        <ele>353</ele>
        <time>2017-10-01T09:23:24Z</time>
      </trkpt>
      <trkpt lat="43.60405" lon="3.33868">
        <ele>353.6</ele>
        <time>2017-10-01T09:23:29Z</time>
      </trkpt>
      <trkpt lat="43.60396" lon="3.33869">
        <ele>354.3</ele>
        <time>2017-10-01T09:23:33Z</time>
      </trkpt>
      <trkpt lat="43.60388" lon="3.33869">
        <ele>354.7</ele>
        <time>2017-10-01T09:23:36Z</time>
      </trkpt>
      <trkpt lat="43.60378" lon="3.3387">
        <ele>355.2</ele>
        <time>2017-10-01T09:23:40Z</time>
      </trkpt>
      <trkpt lat="43.60369" lon="3.33872">
        <ele>355.5</ele>
        <time>2017-10-01T09:23:43Z</time>
      </trkpt>
      <trkpt lat="43.6036" lon="3.33872">
        <ele>355.8</ele>
        <time>2017-10-01T09:23:46Z</time>
      </trkpt>
      <trkpt lat="43.60353" lon="3.33872">
        <ele>356</ele>
        <time>2017-10-01T09:23:49Z</time>
      </trkpt>
      <trkpt lat="43.60345" lon="3.33872">
        <ele>356.2</ele>
        <time>2017-10-01T09:23:53Z</time>
      </trkpt>
      <trkpt lat="43.60338" lon="3.33869">
        <ele>356.1</ele>
        <time>2017-10-01T09:24:21Z</time>
      </trkpt>
      <trkpt lat="43.60329" lon="3.33866">
        <ele>356</ele>
        <time>2017-10-01T09:24:26Z</time>
      </trkpt>
      <trkpt lat="43.60322" lon="3.33864">
        <ele>356.1</ele>
        <time>2017-10-01T09:24:30Z</time>
      </trkpt>
      <trkpt lat="43.60314" lon="3.33861">
        <ele>356.3</ele>
        <time>2017-10-01T09:24:33Z</time>
      </trkpt>
      <trkpt lat="43.60307" lon="3.33858">
        <ele>356.6</ele>
        <time>2017-10-01T09:24:36Z</time>
      </trkpt>
      <trkpt lat="43.60298" lon="3.33857">
        <ele>356.9</ele>
        <time>2017-10-01T09:24:39Z</time>
      </trkpt>
      <trkpt lat="43.60289" lon="3.33858">
        <ele>357.2</ele>
        <time>2017-10-01T09:24:42Z</time>
      </trkpt>
      <trkpt lat="43.60282" lon="3.33861">
        <ele>357.3</ele>
        <time>2017-10-01T09:24:45Z</time>
      </trkpt>
      <trkpt lat="43.60275" lon="3.33864">
        <ele>357.5</ele>
        <time>2017-10-01T09:24:48Z</time>
      </trkpt>
      <trkpt lat="43.60266" lon="3.33867">
        <ele>357.6</ele>
        <time>2017-10-01T09:24:51Z</time>
      </trkpt>
      <trkpt lat="43.60257" lon="3.33866">
        <ele>357.7</ele>
        <time>2017-10-01T09:24:54Z</time>
      </trkpt>
      <trkpt lat="43.60246" lon="3.33866">
        <ele>357.8</ele>
        <time>2017-10-01T09:24:57Z</time>
      </trkpt>
      <trkpt lat="43.60239" lon="3.33866">
        <ele>357.8</ele>
        <time>2017-10-01T09:24:59Z</time>
      </trkpt>
      <trkpt lat="43.6023" lon="3.33866">
        <ele>357.8</ele>
        <time>2017-10-01T09:25:02Z</time>
      </trkpt>
      <trkpt lat="43.60223" lon="3.33866">
        <ele>357.9</ele>
        <time>2017-10-01T09:25:05Z</time>
      </trkpt>
      <trkpt lat="43.60214" lon="3.33868">
        <ele>357.9</ele>
        <time>2017-10-01T09:25:07Z</time>
      </trkpt>
      <trkpt lat="43.60204" lon="3.33866">
        <ele>358</ele>
        <time>2017-10-01T09:25:09Z</time>
      </trkpt>
      <trkpt lat="43.60193" lon="3.33866">
        <ele>358.1</ele>
        <time>2017-10-01T09:25:11Z</time>
      </trkpt>
      <trkpt lat="43.6018" lon="3.33863">
        <ele>358.1</ele>
        <time>2017-10-01T09:25:13Z</time>
      </trkpt>
      <trkpt lat="43.60169" lon="3.3386">
        <ele>357</ele>
        <time>2017-10-01T09:25:15Z</time>
      </trkpt>
      <trkpt lat="43.60155" lon="3.33858">
        <ele>356.4</ele>
        <time>2017-10-01T09:25:17Z</time>
      </trkpt>
      <trkpt lat="43.60146" lon="3.33856">
        <ele>356.1</ele>
        <time>2017-10-01T09:25:19Z</time>
      </trkpt>
      <trkpt lat="43.60138" lon="3.33854">
        <ele>354.4</ele>
        <time>2017-10-01T09:25:21Z</time>
      </trkpt>
      <trkpt lat="43.6013" lon="3.33849">
        <ele>354.1</ele>
        <time>2017-10-01T09:25:24Z</time>
      </trkpt>
      <trkpt lat="43.60122" lon="3.33841">
        <ele>353.9</ele>
        <time>2017-10-01T09:25:27Z</time>
      </trkpt>
      <trkpt lat="43.60114" lon="3.33835">
        <ele>353.8</ele>
        <time>2017-10-01T09:25:30Z</time>
      </trkpt>
      <trkpt lat="43.60107" lon="3.33828">
        <ele>353.7</ele>
        <time>2017-10-01T09:25:33Z</time>
      </trkpt>
      <trkpt lat="43.60101" lon="3.33823">
        <ele>353.5</ele>
        <time>2017-10-01T09:25:37Z</time>
      </trkpt>
      <trkpt lat="43.60098" lon="3.3382">
        <ele>353.1</ele>
        <time>2017-10-01T09:25:44Z</time>
      </trkpt>
      <trkpt lat="43.60094" lon="3.33811">
        <ele>352.4</ele>
        <time>2017-10-01T09:25:52Z</time>
      </trkpt>
      <trkpt lat="43.60087" lon="3.33801">
        <ele>352</ele>
        <time>2017-10-01T09:25:55Z</time>
      </trkpt>
      <trkpt lat="43.60083" lon="3.33792">
        <ele>351.9</ele>
        <time>2017-10-01T09:25:57Z</time>
      </trkpt>
      <trkpt lat="43.60079" lon="3.33782">
        <ele>351.7</ele>
        <time>2017-10-01T09:25:59Z</time>
      </trkpt>
      <trkpt lat="43.60076" lon="3.33773">
        <ele>351.5</ele>
        <time>2017-10-01T09:26:01Z</time>
      </trkpt>
      <trkpt lat="43.60073" lon="3.33764">
        <ele>351.2</ele>
        <time>2017-10-01T09:26:05Z</time>
      </trkpt>
      <trkpt lat="43.60068" lon="3.33755">
        <ele>350.9</ele>
        <time>2017-10-01T09:26:10Z</time>
      </trkpt>
      <trkpt lat="43.60061" lon="3.33748">
        <ele>350.8</ele>
        <time>2017-10-01T09:26:13Z</time>
      </trkpt>
      <trkpt lat="43.60054" lon="3.33739">
        <ele>350.6</ele>
        <time>2017-10-01T09:26:16Z</time>
      </trkpt>
      <trkpt lat="43.60047" lon="3.33731">
        <ele>350.6</ele>
        <time>2017-10-01T09:26:18Z</time>
      </trkpt>
      <trkpt lat="43.60038" lon="3.33722">
        <ele>349.7</ele>
        <time>2017-10-01T09:26:20Z</time>
      </trkpt>
      <trkpt lat="43.6003" lon="3.33713">
        <ele>349.5</ele>
        <time>2017-10-01T09:26:22Z</time>
      </trkpt>
      <trkpt lat="43.60023" lon="3.33703">
        <ele>349.2</ele>
        <time>2017-10-01T09:26:25Z</time>
      </trkpt>
      <trkpt lat="43.60018" lon="3.33695">
        <ele>349</ele>
        <time>2017-10-01T09:26:28Z</time>
      </trkpt>
      <trkpt lat="43.60011" lon="3.33688">
        <ele>348.8</ele>
        <time>2017-10-01T09:26:30Z</time>
      </trkpt>
      <trkpt lat="43.60003" lon="3.33677">
        <ele>348.5</ele>
        <time>2017-10-01T09:26:33Z</time>
      </trkpt>
      <trkpt lat="43.59998" lon="3.33668">
        <ele>348.3</ele>
        <time>2017-10-01T09:26:35Z</time>
      </trkpt>
      <trkpt lat="43.59993" lon="3.33661">
        <ele>348</ele>
        <time>2017-10-01T09:26:37Z</time>
      </trkpt>
      <trkpt lat="43.59986" lon="3.33653">
        <ele>347.8</ele>
        <time>2017-10-01T09:26:39Z</time>
      </trkpt>
      <trkpt lat="43.59981" lon="3.33646">
        <ele>347.7</ele>
        <time>2017-10-01T09:26:42Z</time>
      </trkpt>
      <trkpt lat="43.59973" lon="3.33638">
        <ele>347.6</ele>
        <time>2017-10-01T09:26:45Z</time>
      </trkpt>
      <trkpt lat="43.59968" lon="3.33629">
        <ele>347.5</ele>
        <time>2017-10-01T09:26:48Z</time>
      </trkpt>
      <trkpt lat="43.59961" lon="3.33622">
        <ele>347.6</ele>
        <time>2017-10-01T09:26:51Z</time>
      </trkpt>
      <trkpt lat="43.59955" lon="3.33614">
        <ele>347.7</ele>
        <time>2017-10-01T09:26:54Z</time>
      </trkpt>
      <trkpt lat="43.59949" lon="3.33607">
        <ele>347.7</ele>
        <time>2017-10-01T09:26:56Z</time>
      </trkpt>
      <trkpt lat="43.59943" lon="3.336">
        <ele>347.7</ele>
        <time>2017-10-01T09:26:58Z</time>
      </trkpt>
      <trkpt lat="43.59937" lon="3.33593">
        <ele>347.6</ele>
        <time>2017-10-01T09:27:00Z</time>
      </trkpt>
      <trkpt lat="43.59931" lon="3.33584">
        <ele>347.3</ele>
        <time>2017-10-01T09:27:03Z</time>
      </trkpt>
      <trkpt lat="43.59922" lon="3.33575">
        <ele>347.1</ele>
        <time>2017-10-01T09:27:06Z</time>
      </trkpt>
      <trkpt lat="43.59916" lon="3.33568">
        <ele>345.3</ele>
        <time>2017-10-01T09:27:20Z</time>
      </trkpt>
      <trkpt lat="43.59919" lon="3.33566">
        <ele>344.9</ele>
        <time>2017-10-01T09:27:36Z</time>
      </trkpt>
      <trkpt lat="43.59915" lon="3.33569">
        <ele>343.1</ele>
        <time>2017-10-01T09:27:49Z</time>
      </trkpt>
      <trkpt lat="43.59913" lon="3.33569">
        <ele>341.6</ele>
        <time>2017-10-01T09:27:56Z</time>
      </trkpt>
      <trkpt lat="43.59907" lon="3.33571">
        <ele>340.4</ele>
        <time>2017-10-01T09:28:03Z</time>
      </trkpt>
      <trkpt lat="43.59901" lon="3.33578">
        <ele>339.6</ele>
        <time>2017-10-01T09:28:08Z</time>
      </trkpt>
      <trkpt lat="43.59893" lon="3.33582">
        <ele>338.9</ele>
        <time>2017-10-01T09:28:12Z</time>
      </trkpt>
      <trkpt lat="43.59889" lon="3.3359">
        <ele>338.2</ele>
        <time>2017-10-01T09:28:15Z</time>
      </trkpt>
      <trkpt lat="43.5988" lon="3.3359">
        <ele>337.1</ele>
        <time>2017-10-01T09:28:19Z</time>
      </trkpt>
      <trkpt lat="43.59872" lon="3.33594">
        <ele>336</ele>
        <time>2017-10-01T09:28:23Z</time>
      </trkpt>
      <trkpt lat="43.59864" lon="3.33591">
        <ele>334.7</ele>
        <time>2017-10-01T09:28:27Z</time>
      </trkpt>
      <trkpt lat="43.59856" lon="3.3359">
        <ele>330.7</ele>
        <time>2017-10-01T09:28:29Z</time>
      </trkpt>
      <trkpt lat="43.59847" lon="3.33595">
        <ele>329.7</ele>
        <time>2017-10-01T09:28:32Z</time>
      </trkpt>
      <trkpt lat="43.59839" lon="3.33592">
        <ele>328.6</ele>
        <time>2017-10-01T09:28:35Z</time>
      </trkpt>
      <trkpt lat="43.59832" lon="3.33591">
        <ele>327.5</ele>
        <time>2017-10-01T09:28:38Z</time>
      </trkpt>
      <trkpt lat="43.59825" lon="3.33592">
        <ele>326.2</ele>
        <time>2017-10-01T09:28:42Z</time>
      </trkpt>
      <trkpt lat="43.59822" lon="3.33591">
        <ele>325</ele>
        <time>2017-10-01T09:28:49Z</time>
      </trkpt>
      <trkpt lat="43.59821" lon="3.33589">
        <ele>323.7</ele>
        <time>2017-10-01T09:29:01Z</time>
      </trkpt>
      <trkpt lat="43.59814" lon="3.33586">
        <ele>319</ele>
        <time>2017-10-01T09:28:52Z</time>
      </trkpt>
      <trkpt lat="43.59806" lon="3.33585">
        <ele>318.2</ele>
        <time>2017-10-01T09:28:54Z</time>
      </trkpt>
      <trkpt lat="43.59799" lon="3.33586">
        <ele>316.7</ele>
        <time>2017-10-01T09:30:04Z</time>
      </trkpt>
      <trkpt lat="43.59792" lon="3.3359">
        <ele>315.7</ele>
        <time>2017-10-01T09:30:07Z</time>
      </trkpt>
      <trkpt lat="43.59784" lon="3.33596">
        <ele>314.8</ele>
        <time>2017-10-01T09:30:10Z</time>
      </trkpt>
      <trkpt lat="43.59776" lon="3.33603">
        <ele>313.8</ele>
        <time>2017-10-01T09:30:13Z</time>
      </trkpt>
      <trkpt lat="43.59769" lon="3.33612">
        <ele>312.6</ele>
        <time>2017-10-01T09:30:17Z</time>
      </trkpt>
      <trkpt lat="43.59763" lon="3.33619">
        <ele>311.1</ele>
        <time>2017-10-01T09:30:21Z</time>
      </trkpt>
      <trkpt lat="43.59756" lon="3.33623">
        <ele>310</ele>
        <time>2017-10-01T09:30:24Z</time>
      </trkpt>
      <trkpt lat="43.59747" lon="3.33628">
        <ele>308.5</ele>
        <time>2017-10-01T09:30:28Z</time>
      </trkpt>
      <trkpt lat="43.5974" lon="3.33632">
        <ele>306.9</ele>
        <time>2017-10-01T09:30:32Z</time>
      </trkpt>
      <trkpt lat="43.59733" lon="3.33638">
        <ele>305.2</ele>
        <time>2017-10-01T09:30:36Z</time>
      </trkpt>
      <trkpt lat="43.59727" lon="3.33643">
        <ele>303.9</ele>
        <time>2017-10-01T09:30:39Z</time>
      </trkpt>
      <trkpt lat="43.59722" lon="3.33651">
        <ele>302</ele>
        <time>2017-10-01T09:30:43Z</time>
      </trkpt>
      <trkpt lat="43.59716" lon="3.33658">
        <ele>300.1</ele>
        <time>2017-10-01T09:30:47Z</time>
      </trkpt>
      <trkpt lat="43.59709" lon="3.33666">
        <ele>298</ele>
        <time>2017-10-01T09:30:51Z</time>
      </trkpt>
      <trkpt lat="43.59704" lon="3.33677">
        <ele>295.9</ele>
        <time>2017-10-01T09:30:55Z</time>
      </trkpt>
      <trkpt lat="43.59696" lon="3.33685">
        <ele>294.4</ele>
        <time>2017-10-01T09:30:58Z</time>
      </trkpt>
      <trkpt lat="43.59688" lon="3.33688">
        <ele>292.9</ele>
        <time>2017-10-01T09:31:01Z</time>
      </trkpt>
      <trkpt lat="43.59679" lon="3.33695">
        <ele>291.3</ele>
        <time>2017-10-01T09:31:04Z</time>
      </trkpt>
      <trkpt lat="43.59672" lon="3.33701">
        <ele>289.7</ele>
        <time>2017-10-01T09:31:07Z</time>
      </trkpt>
      <trkpt lat="43.59665" lon="3.33706">
        <ele>287.4</ele>
        <time>2017-10-01T09:31:11Z</time>
      </trkpt>
      <trkpt lat="43.59657" lon="3.33711">
        <ele>285.6</ele>
        <time>2017-10-01T09:31:14Z</time>
      </trkpt>
      <trkpt lat="43.5965" lon="3.33715">
        <ele>283.1</ele>
        <time>2017-10-01T09:31:18Z</time>
      </trkpt>
      <trkpt lat="43.59643" lon="3.33721">
        <ele>280.7</ele>
        <time>2017-10-01T09:31:22Z</time>
      </trkpt>
      <trkpt lat="43.59635" lon="3.33722">
        <ele>279.1</ele>
        <time>2017-10-01T09:31:25Z</time>
      </trkpt>
      <trkpt lat="43.5963" lon="3.33719">
        <ele>275.2</ele>
        <time>2017-10-01T09:31:34Z</time>
      </trkpt>
      <trkpt lat="43.5963" lon="3.33715">
        <ele>272.5</ele>
        <time>2017-10-01T09:31:41Z</time>
      </trkpt>
      <trkpt lat="43.59623" lon="3.33711">
        <ele>269.6</ele>
        <time>2017-10-01T09:31:48Z</time>
      </trkpt>
      <trkpt lat="43.59614" lon="3.33708">
        <ele>268.1</ele>
        <time>2017-10-01T09:31:52Z</time>
      </trkpt>
      <trkpt lat="43.59606" lon="3.33702">
        <ele>267.1</ele>
        <time>2017-10-01T09:31:55Z</time>
      </trkpt>
      <trkpt lat="43.59595" lon="3.33702">
        <ele>266.2</ele>
        <time>2017-10-01T09:31:58Z</time>
      </trkpt>
      <trkpt lat="43.59588" lon="3.33696">
        <ele>265</ele>
        <time>2017-10-01T09:32:02Z</time>
      </trkpt>
      <trkpt lat="43.59587" lon="3.33688">
        <ele>263.2</ele>
        <time>2017-10-01T09:32:09Z</time>
      </trkpt>
      <trkpt lat="43.59584" lon="3.33687">
        <ele>261.9</ele>
        <time>2017-10-01T09:32:47Z</time>
      </trkpt>
      <trkpt lat="43.59579" lon="3.33696">
        <ele>259.7</ele>
        <time>2017-10-01T09:32:32Z</time>
      </trkpt>
      <trkpt lat="43.59577" lon="3.337">
        <ele>259.7</ele>
        <time>2017-10-01T09:33:45Z</time>
      </trkpt>
      <trkpt lat="43.59573" lon="3.337">
        <ele>259.7</ele>
        <time>2017-10-01T09:33:52Z</time>
      </trkpt>
      <trkpt lat="43.59571" lon="3.337">
        <ele>259.6</ele>
        <time>2017-10-01T09:33:59Z</time>
      </trkpt>
      <trkpt lat="43.59567" lon="3.33699">
        <ele>259.5</ele>
        <time>2017-10-01T09:34:07Z</time>
      </trkpt>
      <trkpt lat="43.5956" lon="3.33702">
        <ele>260</ele>
        <time>2017-10-01T09:34:26Z</time>
      </trkpt>
      <trkpt lat="43.59553" lon="3.337">
        <ele>261</ele>
        <time>2017-10-01T09:34:40Z</time>
      </trkpt>
      <trkpt lat="43.59548" lon="3.33697">
        <ele>262.2</ele>
        <time>2017-10-01T09:34:54Z</time>
      </trkpt>
      <trkpt lat="43.59544" lon="3.33694">
        <ele>263</ele>
        <time>2017-10-01T09:35:01Z</time>
      </trkpt>
      <trkpt lat="43.59541" lon="3.33692">
        <ele>263.7</ele>
        <time>2017-10-01T09:35:08Z</time>
      </trkpt>
      <trkpt lat="43.59531" lon="3.33687">
        <ele>265</ele>
        <time>2017-10-01T09:35:31Z</time>
      </trkpt>
      <trkpt lat="43.59524" lon="3.33677">
        <ele>265.5</ele>
        <time>2017-10-01T09:35:45Z</time>
      </trkpt>
      <trkpt lat="43.59515" lon="3.33675">
        <ele>265.9</ele>
        <time>2017-10-01T09:35:49Z</time>
      </trkpt>
      <trkpt lat="43.59508" lon="3.3368">
        <ele>266.2</ele>
        <time>2017-10-01T09:35:52Z</time>
      </trkpt>
      <trkpt lat="43.59502" lon="3.33685">
        <ele>266.4</ele>
        <time>2017-10-01T09:35:55Z</time>
      </trkpt>
      <trkpt lat="43.59495" lon="3.33688">
        <ele>266.8</ele>
        <time>2017-10-01T09:35:59Z</time>
      </trkpt>
      <trkpt lat="43.59488" lon="3.33691">
        <ele>267.3</ele>
        <time>2017-10-01T09:36:04Z</time>
      </trkpt>
      <trkpt lat="43.5948" lon="3.33696">
        <ele>267.8</ele>
        <time>2017-10-01T09:36:08Z</time>
      </trkpt>
      <trkpt lat="43.59474" lon="3.33703">
        <ele>268.6</ele>
        <time>2017-10-01T09:36:13Z</time>
      </trkpt>
      <trkpt lat="43.59467" lon="3.33712">
        <ele>269.7</ele>
        <time>2017-10-01T09:36:18Z</time>
      </trkpt>
      <trkpt lat="43.59464" lon="3.33719">
        <ele>270.9</ele>
        <time>2017-10-01T09:36:25Z</time>
      </trkpt>
      <trkpt lat="43.59464" lon="3.3372">
        <ele>271.3</ele>
        <time>2017-10-01T09:36:32Z</time>
      </trkpt>
      <trkpt lat="43.59463" lon="3.33725">
        <ele>271.6</ele>
        <time>2017-10-01T09:36:54Z</time>
      </trkpt>
      <trkpt lat="43.59454" lon="3.33727">
        <ele>272</ele>
        <time>2017-10-01T09:37:09Z</time>
      </trkpt>
      <trkpt lat="43.59447" lon="3.33731">
        <ele>272.3</ele>
        <time>2017-10-01T09:37:14Z</time>
      </trkpt>
      <trkpt lat="43.59442" lon="3.33738">
        <ele>272.5</ele>
        <time>2017-10-01T09:37:17Z</time>
      </trkpt>
      <trkpt lat="43.59434" lon="3.33746">
        <ele>272.8</ele>
        <time>2017-10-01T09:37:21Z</time>
      </trkpt>
      <trkpt lat="43.59427" lon="3.33751">
        <ele>273.1</ele>
        <time>2017-10-01T09:37:24Z</time>
      </trkpt>
      <trkpt lat="43.59418" lon="3.33755">
        <ele>273.5</ele>
        <time>2017-10-01T09:37:27Z</time>
      </trkpt>
      <trkpt lat="43.5941" lon="3.33762">
        <ele>274.3</ele>
        <time>2017-10-01T09:37:32Z</time>
      </trkpt>
      <trkpt lat="43.59404" lon="3.33768">
        <ele>274.6</ele>
        <time>2017-10-01T09:37:34Z</time>
      </trkpt>
      <trkpt lat="43.59397" lon="3.33777">
        <ele>275.2</ele>
        <time>2017-10-01T09:37:38Z</time>
      </trkpt>
      <trkpt lat="43.59393" lon="3.33795">
        <ele>275.6</ele>
        <time>2017-10-01T09:37:40Z</time>
      </trkpt>
      <trkpt lat="43.59391" lon="3.33809">
        <ele>275.7</ele>
        <time>2017-10-01T09:37:42Z</time>
      </trkpt>
      <trkpt lat="43.59389" lon="3.3382">
        <ele>275.7</ele>
        <time>2017-10-01T09:37:45Z</time>
      </trkpt>
      <trkpt lat="43.59384" lon="3.33828">
        <ele>275.7</ele>
        <time>2017-10-01T09:37:47Z</time>
      </trkpt>
      <trkpt lat="43.59377" lon="3.33839">
        <ele>275.7</ele>
        <time>2017-10-01T09:37:49Z</time>
      </trkpt>
      <trkpt lat="43.5937" lon="3.33849">
        <ele>275.6</ele>
        <time>2017-10-01T09:37:51Z</time>
      </trkpt>
      <trkpt lat="43.59363" lon="3.33856">
        <ele>275.5</ele>
        <time>2017-10-01T09:37:53Z</time>
      </trkpt>
      <trkpt lat="43.59356" lon="3.33864">
        <ele>274.2</ele>
        <time>2017-10-01T09:37:55Z</time>
      </trkpt>
      <trkpt lat="43.59347" lon="3.33872">
        <ele>273.9</ele>
        <time>2017-10-01T09:37:57Z</time>
      </trkpt>
      <trkpt lat="43.59337" lon="3.3388">
        <ele>273.4</ele>
        <time>2017-10-01T09:38:00Z</time>
      </trkpt>
      <trkpt lat="43.59327" lon="3.33884">
        <ele>272.8</ele>
        <time>2017-10-01T09:38:03Z</time>
      </trkpt>
      <trkpt lat="43.59317" lon="3.33888">
        <ele>272.5</ele>
        <time>2017-10-01T09:38:05Z</time>
      </trkpt>
      <trkpt lat="43.59308" lon="3.33889">
        <ele>272.1</ele>
        <time>2017-10-01T09:38:07Z</time>
      </trkpt>
      <trkpt lat="43.59299" lon="3.33892">
        <ele>270.8</ele>
        <time>2017-10-01T09:38:09Z</time>
      </trkpt>
      <trkpt lat="43.59291" lon="3.33892">
        <ele>270.4</ele>
        <time>2017-10-01T09:38:12Z</time>
      </trkpt>
      <trkpt lat="43.59283" lon="3.33891">
        <ele>269.7</ele>
        <time>2017-10-01T09:38:16Z</time>
      </trkpt>
      <trkpt lat="43.59275" lon="3.33883">
        <ele>266.6</ele>
        <time>2017-10-01T09:40:25Z</time>
      </trkpt>
      <trkpt lat="43.59268" lon="3.33876">
        <ele>266.1</ele>
        <time>2017-10-01T09:40:27Z</time>
      </trkpt>
      <trkpt lat="43.5926" lon="3.33871">
        <ele>265.2</ele>
        <time>2017-10-01T09:40:30Z</time>
      </trkpt>
      <trkpt lat="43.59252" lon="3.33871">
        <ele>263.5</ele>
        <time>2017-10-01T09:40:35Z</time>
      </trkpt>
      <trkpt lat="43.59245" lon="3.33865">
        <ele>261</ele>
        <time>2017-10-01T09:40:42Z</time>
      </trkpt>
      <trkpt lat="43.59244" lon="3.33852">
        <ele>259.9</ele>
        <time>2017-10-01T09:40:45Z</time>
      </trkpt>
      <trkpt lat="43.59239" lon="3.33841">
        <ele>258.7</ele>
        <time>2017-10-01T09:40:48Z</time>
      </trkpt>
      <trkpt lat="43.59232" lon="3.33834">
        <ele>257.4</ele>
        <time>2017-10-01T09:40:51Z</time>
      </trkpt>
      <trkpt lat="43.59226" lon="3.33828">
        <ele>256.1</ele>
        <time>2017-10-01T09:40:54Z</time>
      </trkpt>
      <trkpt lat="43.59217" lon="3.33827">
        <ele>254.4</ele>
        <time>2017-10-01T09:40:58Z</time>
      </trkpt>
      <trkpt lat="43.5921" lon="3.3382">
        <ele>253</ele>
        <time>2017-10-01T09:41:01Z</time>
      </trkpt>
      <trkpt lat="43.59202" lon="3.33811">
        <ele>251.7</ele>
        <time>2017-10-01T09:41:04Z</time>
      </trkpt>
      <trkpt lat="43.59194" lon="3.33807">
        <ele>250.5</ele>
        <time>2017-10-01T09:41:07Z</time>
      </trkpt>
      <trkpt lat="43.59185" lon="3.33803">
        <ele>249.4</ele>
        <time>2017-10-01T09:41:10Z</time>
      </trkpt>
      <trkpt lat="43.59178" lon="3.33807">
        <ele>248.4</ele>
        <time>2017-10-01T09:41:13Z</time>
      </trkpt>
      <trkpt lat="43.59174" lon="3.33811">
        <ele>246.5</ele>
        <time>2017-10-01T09:41:20Z</time>
      </trkpt>
      <trkpt lat="43.59172" lon="3.33815">
        <ele>244.8</ele>
        <time>2017-10-01T09:41:27Z</time>
      </trkpt>
      <trkpt lat="43.59177" lon="3.33824">
        <ele>242.8</ele>
        <time>2017-10-01T09:41:33Z</time>
      </trkpt>
      <trkpt lat="43.59176" lon="3.3383">
        <ele>240.8</ele>
        <time>2017-10-01T09:41:40Z</time>
      </trkpt>
      <trkpt lat="43.59177" lon="3.33841">
        <ele>239.2</ele>
        <time>2017-10-01T09:41:45Z</time>
      </trkpt>
      <trkpt lat="43.59182" lon="3.3385">
        <ele>238.1</ele>
        <time>2017-10-01T09:41:49Z</time>
      </trkpt>
      <trkpt lat="43.59184" lon="3.33859">
        <ele>236.6</ele>
        <time>2017-10-01T09:41:56Z</time>
      </trkpt>
      <trkpt lat="43.59184" lon="3.33873">
        <ele>236.1</ele>
        <time>2017-10-01T09:42:01Z</time>
      </trkpt>
      <trkpt lat="43.59182" lon="3.33886">
        <ele>235.8</ele>
        <time>2017-10-01T09:42:04Z</time>
      </trkpt>
      <trkpt lat="43.59179" lon="3.33899">
        <ele>235.4</ele>
        <time>2017-10-01T09:42:07Z</time>
      </trkpt>
      <trkpt lat="43.59174" lon="3.33909">
        <ele>235.1</ele>
        <time>2017-10-01T09:42:10Z</time>
      </trkpt>
      <trkpt lat="43.59172" lon="3.33919">
        <ele>234.8</ele>
        <time>2017-10-01T09:42:14Z</time>
      </trkpt>
      <trkpt lat="43.59168" lon="3.33929">
        <ele>234.7</ele>
        <time>2017-10-01T09:42:18Z</time>
      </trkpt>
      <trkpt lat="43.59163" lon="3.33939">
        <ele>234.6</ele>
        <time>2017-10-01T09:42:24Z</time>
      </trkpt>
      <trkpt lat="43.59161" lon="3.3395">
        <ele>234.5</ele>
        <time>2017-10-01T09:42:27Z</time>
      </trkpt>
      <trkpt lat="43.59159" lon="3.33962">
        <ele>234.3</ele>
        <time>2017-10-01T09:42:30Z</time>
      </trkpt>
      <trkpt lat="43.59156" lon="3.33972">
        <ele>234.2</ele>
        <time>2017-10-01T09:42:33Z</time>
      </trkpt>
      <trkpt lat="43.59153" lon="3.33983">
        <ele>233.9</ele>
        <time>2017-10-01T09:42:36Z</time>
      </trkpt>
      <trkpt lat="43.59149" lon="3.33993">
        <ele>233.8</ele>
        <time>2017-10-01T09:42:39Z</time>
      </trkpt>
      <trkpt lat="43.59146" lon="3.34002">
        <ele>233.9</ele>
        <time>2017-10-01T09:42:42Z</time>
      </trkpt>
      <trkpt lat="43.5914" lon="3.34013">
        <ele>233.9</ele>
        <time>2017-10-01T09:42:45Z</time>
      </trkpt>
      <trkpt lat="43.59139" lon="3.34025">
        <ele>233.7</ele>
        <time>2017-10-01T09:42:49Z</time>
      </trkpt>
      <trkpt lat="43.59137" lon="3.34035">
        <ele>233.4</ele>
        <time>2017-10-01T09:42:52Z</time>
      </trkpt>
      <trkpt lat="43.59137" lon="3.34046">
        <ele>233.1</ele>
        <time>2017-10-01T09:42:56Z</time>
      </trkpt>
      <trkpt lat="43.59137" lon="3.34057">
        <ele>232.8</ele>
        <time>2017-10-01T09:43:00Z</time>
      </trkpt>
      <trkpt lat="43.59135" lon="3.34067">
        <ele>232.8</ele>
        <time>2017-10-01T09:43:05Z</time>
      </trkpt>
      <trkpt lat="43.59135" lon="3.34078">
        <ele>232.9</ele>
        <time>2017-10-01T09:43:09Z</time>
      </trkpt>
      <trkpt lat="43.59134" lon="3.34088">
        <ele>233</ele>
        <time>2017-10-01T09:43:13Z</time>
      </trkpt>
      <trkpt lat="43.59132" lon="3.34098">
        <ele>233.1</ele>
        <time>2017-10-01T09:43:17Z</time>
      </trkpt>
      <trkpt lat="43.5913" lon="3.34108">
        <ele>233.2</ele>
        <time>2017-10-01T09:43:20Z</time>
      </trkpt>
      <trkpt lat="43.5913" lon="3.34119">
        <ele>233.3</ele>
        <time>2017-10-01T09:43:24Z</time>
      </trkpt>
      <trkpt lat="43.59129" lon="3.34131">
        <ele>233.5</ele>
        <time>2017-10-01T09:43:29Z</time>
      </trkpt>
      <trkpt lat="43.59129" lon="3.3415">
        <ele>234.2</ele>
        <time>2017-10-01T09:43:43Z</time>
      </trkpt>
      <trkpt lat="43.59128" lon="3.34156">
        <ele>234.8</ele>
        <time>2017-10-01T09:43:50Z</time>
      </trkpt>
      <trkpt lat="43.59129" lon="3.34167">
        <ele>235.1</ele>
        <time>2017-10-01T09:43:54Z</time>
      </trkpt>
      <trkpt lat="43.5913" lon="3.34179">
        <ele>235.7</ele>
        <time>2017-10-01T09:44:00Z</time>
      </trkpt>
      <trkpt lat="43.59131" lon="3.34186">
        <ele>236.4</ele>
        <time>2017-10-01T09:44:07Z</time>
      </trkpt>
      <trkpt lat="43.59131" lon="3.34188">
        <ele>236.7</ele>
        <time>2017-10-01T09:44:14Z</time>
      </trkpt>
      <trkpt lat="43.59129" lon="3.34189">
        <ele>237.7</ele>
        <time>2017-10-01T09:44:31Z</time>
      </trkpt>
      <trkpt lat="43.5913" lon="3.34194">
        <ele>238.2</ele>
        <time>2017-10-01T09:45:40Z</time>
      </trkpt>
      <trkpt lat="43.5913" lon="3.34194">
        <ele>238.6</ele>
        <time>2017-10-01T09:45:50Z</time>
      </trkpt>
      <trkpt lat="43.59131" lon="3.34205">
        <ele>240.3</ele>
        <time>2017-10-01T09:46:02Z</time>
      </trkpt>
      <trkpt lat="43.59131" lon="3.34208">
        <ele>240.7</ele>
        <time>2017-10-01T09:46:09Z</time>
      </trkpt>
      <trkpt lat="43.59131" lon="3.34221">
        <ele>241.5</ele>
        <time>2017-10-01T09:46:22Z</time>
      </trkpt>
      <trkpt lat="43.59129" lon="3.34233">
        <ele>242</ele>
        <time>2017-10-01T09:46:26Z</time>
      </trkpt>
      <trkpt lat="43.59127" lon="3.34243">
        <ele>242.8</ele>
        <time>2017-10-01T09:46:31Z</time>
      </trkpt>
      <trkpt lat="43.59125" lon="3.34254">
        <ele>243.3</ele>
        <time>2017-10-01T09:46:35Z</time>
      </trkpt>
      <trkpt lat="43.59124" lon="3.34265">
        <ele>244</ele>
        <time>2017-10-01T09:46:40Z</time>
      </trkpt>
      <trkpt lat="43.59125" lon="3.34278">
        <ele>244.5</ele>
        <time>2017-10-01T09:46:44Z</time>
      </trkpt>
      <trkpt lat="43.59127" lon="3.34287">
        <ele>244.7</ele>
        <time>2017-10-01T09:46:46Z</time>
      </trkpt>
      <trkpt lat="43.59128" lon="3.343">
        <ele>245</ele>
        <time>2017-10-01T09:46:48Z</time>
      </trkpt>
      <trkpt lat="43.59127" lon="3.34312">
        <ele>245.3</ele>
        <time>2017-10-01T09:46:51Z</time>
      </trkpt>
      <trkpt lat="43.59125" lon="3.34325">
        <ele>246</ele>
        <time>2017-10-01T09:46:56Z</time>
      </trkpt>
      <trkpt lat="43.59124" lon="3.34337">
        <ele>246.4</ele>
        <time>2017-10-01T09:47:00Z</time>
      </trkpt>
      <trkpt lat="43.59121" lon="3.34347">
        <ele>246.9</ele>
        <time>2017-10-01T09:47:05Z</time>
      </trkpt>
      <trkpt lat="43.59119" lon="3.34358">
        <ele>247.2</ele>
        <time>2017-10-01T09:47:10Z</time>
      </trkpt>
      <trkpt lat="43.59119" lon="3.34368">
        <ele>247.6</ele>
        <time>2017-10-01T09:47:14Z</time>
      </trkpt>
      <trkpt lat="43.59121" lon="3.34379">
        <ele>248.1</ele>
        <time>2017-10-01T09:47:19Z</time>
      </trkpt>
      <trkpt lat="43.59125" lon="3.34389">
        <ele>248.4</ele>
        <time>2017-10-01T09:47:24Z</time>
      </trkpt>
      <trkpt lat="43.5913" lon="3.34399">
        <ele>248.6</ele>
        <time>2017-10-01T09:47:28Z</time>
      </trkpt>
      <trkpt lat="43.59134" lon="3.34407">
        <ele>248.7</ele>
        <time>2017-10-01T09:47:31Z</time>
      </trkpt>
      <trkpt lat="43.59139" lon="3.34415">
        <ele>248.8</ele>
        <time>2017-10-01T09:47:34Z</time>
      </trkpt>
      <trkpt lat="43.59144" lon="3.34426">
        <ele>249</ele>
        <time>2017-10-01T09:47:37Z</time>
      </trkpt>
      <trkpt lat="43.59149" lon="3.34435">
        <ele>249.2</ele>
        <time>2017-10-01T09:47:40Z</time>
      </trkpt>
      <trkpt lat="43.59154" lon="3.34441">
        <ele>249.5</ele>
        <time>2017-10-01T09:47:43Z</time>
      </trkpt>
      <trkpt lat="43.59159" lon="3.34451">
        <ele>249.8</ele>
        <time>2017-10-01T09:47:47Z</time>
      </trkpt>
      <trkpt lat="43.59162" lon="3.34462">
        <ele>250</ele>
        <time>2017-10-01T09:47:50Z</time>
      </trkpt>
      <trkpt lat="43.59163" lon="3.34475">
        <ele>250.7</ele>
        <time>2017-10-01T09:47:52Z</time>
      </trkpt>
      <trkpt lat="43.59165" lon="3.3449">
        <ele>251.3</ele>
        <time>2017-10-01T09:47:54Z</time>
      </trkpt>
      <trkpt lat="43.59166" lon="3.34503">
        <ele>251.4</ele>
        <time>2017-10-01T09:47:56Z</time>
      </trkpt>
      <trkpt lat="43.59168" lon="3.34515">
        <ele>251.5</ele>
        <time>2017-10-01T09:47:58Z</time>
      </trkpt>
      <trkpt lat="43.59172" lon="3.3453">
        <ele>251.5</ele>
        <time>2017-10-01T09:48:00Z</time>
      </trkpt>
      <trkpt lat="43.59174" lon="3.34549">
        <ele>251.8</ele>
        <time>2017-10-01T09:48:02Z</time>
      </trkpt>
      <trkpt lat="43.59177" lon="3.34565">
        <ele>252</ele>
        <time>2017-10-01T09:48:04Z</time>
      </trkpt>
      <trkpt lat="43.59179" lon="3.34577">
        <ele>252.3</ele>
        <time>2017-10-01T09:48:06Z</time>
      </trkpt>
      <trkpt lat="43.59181" lon="3.34591">
        <ele>252.9</ele>
        <time>2017-10-01T09:48:08Z</time>
      </trkpt>
      <trkpt lat="43.59181" lon="3.34603">
        <ele>253</ele>
        <time>2017-10-01T09:48:10Z</time>
      </trkpt>
      <trkpt lat="43.59185" lon="3.34615">
        <ele>253.2</ele>
        <time>2017-10-01T09:48:13Z</time>
      </trkpt>
      <trkpt lat="43.59194" lon="3.34623">
        <ele>253.4</ele>
        <time>2017-10-01T09:48:16Z</time>
      </trkpt>
      <trkpt lat="43.59198" lon="3.34634">
        <ele>253.5</ele>
        <time>2017-10-01T09:48:18Z</time>
      </trkpt>
      <trkpt lat="43.59201" lon="3.34645">
        <ele>253.6</ele>
        <time>2017-10-01T09:48:20Z</time>
      </trkpt>
      <trkpt lat="43.59206" lon="3.34656">
        <ele>253.5</ele>
        <time>2017-10-01T09:48:22Z</time>
      </trkpt>
      <trkpt lat="43.59208" lon="3.34667">
        <ele>253.2</ele>
        <time>2017-10-01T09:48:24Z</time>
      </trkpt>
      <trkpt lat="43.59211" lon="3.34679">
        <ele>252.3</ele>
        <time>2017-10-01T09:48:26Z</time>
      </trkpt>
      <trkpt lat="43.59213" lon="3.3469">
        <ele>251.9</ele>
        <time>2017-10-01T09:48:28Z</time>
      </trkpt>
      <trkpt lat="43.59216" lon="3.34702">
        <ele>251.7</ele>
        <time>2017-10-01T09:48:30Z</time>
      </trkpt>
      <trkpt lat="43.5922" lon="3.34712">
        <ele>251.7</ele>
        <time>2017-10-01T09:48:32Z</time>
      </trkpt>
      <trkpt lat="43.59224" lon="3.34723">
        <ele>251.5</ele>
        <time>2017-10-01T09:48:34Z</time>
      </trkpt>
      <trkpt lat="43.59226" lon="3.34737">
        <ele>251.1</ele>
        <time>2017-10-01T09:48:36Z</time>
      </trkpt>
      <trkpt lat="43.59226" lon="3.34753">
        <ele>250.5</ele>
        <time>2017-10-01T09:48:38Z</time>
      </trkpt>
      <trkpt lat="43.59226" lon="3.34767">
        <ele>249.9</ele>
        <time>2017-10-01T09:48:40Z</time>
      </trkpt>
      <trkpt lat="43.59225" lon="3.34778">
        <ele>249.9</ele>
        <time>2017-10-01T09:48:42Z</time>
      </trkpt>
      <trkpt lat="43.59228" lon="3.3479">
        <ele>249.8</ele>
        <time>2017-10-01T09:48:45Z</time>
      </trkpt>
      <trkpt lat="43.59228" lon="3.34802">
        <ele>249.7</ele>
        <time>2017-10-01T09:48:47Z</time>
      </trkpt>
      <trkpt lat="43.59223" lon="3.34812">
        <ele>248.3</ele>
        <time>2017-10-01T09:48:49Z</time>
      </trkpt>
      <trkpt lat="43.59217" lon="3.34822">
        <ele>247.6</ele>
        <time>2017-10-01T09:48:51Z</time>
      </trkpt>
      <trkpt lat="43.59211" lon="3.34835">
        <ele>247</ele>
        <time>2017-10-01T09:48:53Z</time>
      </trkpt>
      <trkpt lat="43.59207" lon="3.3485">
        <ele>245.8</ele>
        <time>2017-10-01T09:48:55Z</time>
      </trkpt>
      <trkpt lat="43.59211" lon="3.3486">
        <ele>245.7</ele>
        <time>2017-10-01T09:48:57Z</time>
      </trkpt>
      <trkpt lat="43.59217" lon="3.34869">
        <ele>243.8</ele>
        <time>2017-10-01T09:48:59Z</time>
      </trkpt>
      <trkpt lat="43.5922" lon="3.34881">
        <ele>242.1</ele>
        <time>2017-10-01T09:49:01Z</time>
      </trkpt>
      <trkpt lat="43.59225" lon="3.34894">
        <ele>240.7</ele>
        <time>2017-10-01T09:49:03Z</time>
      </trkpt>
      <trkpt lat="43.59233" lon="3.34907">
        <ele>239.2</ele>
        <time>2017-10-01T09:49:05Z</time>
      </trkpt>
      <trkpt lat="43.59235" lon="3.34923">
        <ele>237.7</ele>
        <time>2017-10-01T09:49:07Z</time>
      </trkpt>
      <trkpt lat="43.59237" lon="3.34938">
        <ele>236.5</ele>
        <time>2017-10-01T09:49:09Z</time>
      </trkpt>
      <trkpt lat="43.59238" lon="3.34956">
        <ele>235.4</ele>
        <time>2017-10-01T09:49:11Z</time>
      </trkpt>
      <trkpt lat="43.59239" lon="3.34975">
        <ele>234.6</ele>
        <time>2017-10-01T09:49:13Z</time>
      </trkpt>
      <trkpt lat="43.59244" lon="3.34991">
        <ele>233.7</ele>
        <time>2017-10-01T09:49:15Z</time>
      </trkpt>
      <trkpt lat="43.59248" lon="3.35006">
        <ele>232.5</ele>
        <time>2017-10-01T09:49:17Z</time>
      </trkpt>
      <trkpt lat="43.59251" lon="3.35019">
        <ele>231.3</ele>
        <time>2017-10-01T09:49:19Z</time>
      </trkpt>
      <trkpt lat="43.59256" lon="3.35033">
        <ele>229.9</ele>
        <time>2017-10-01T09:49:21Z</time>
      </trkpt>
      <trkpt lat="43.59262" lon="3.35048">
        <ele>228.5</ele>
        <time>2017-10-01T09:49:23Z</time>
      </trkpt>
      <trkpt lat="43.59268" lon="3.35063">
        <ele>227.1</ele>
        <time>2017-10-01T09:49:25Z</time>
      </trkpt>
      <trkpt lat="43.59263" lon="3.35073">
        <ele>226.8</ele>
        <time>2017-10-01T09:49:28Z</time>
      </trkpt>
      <trkpt lat="43.59251" lon="3.35069">
        <ele>225.2</ele>
        <time>2017-10-01T09:49:30Z</time>
      </trkpt>
      <trkpt lat="43.59238" lon="3.35069">
        <ele>223.9</ele>
        <time>2017-10-01T09:49:32Z</time>
      </trkpt>
      <trkpt lat="43.59225" lon="3.3507">
        <ele>222.9</ele>
        <time>2017-10-01T09:49:34Z</time>
      </trkpt>
      <trkpt lat="43.59213" lon="3.35065">
        <ele>221.9</ele>
        <time>2017-10-01T09:49:36Z</time>
      </trkpt>
      <trkpt lat="43.59201" lon="3.35059">
        <ele>220.7</ele>
        <time>2017-10-01T09:49:38Z</time>
      </trkpt>
      <trkpt lat="43.59193" lon="3.35064">
        <ele>219.6</ele>
        <time>2017-10-01T09:49:40Z</time>
      </trkpt>
      <trkpt lat="43.59194" lon="3.3508">
        <ele>218.4</ele>
        <time>2017-10-01T09:49:42Z</time>
      </trkpt>
      <trkpt lat="43.59199" lon="3.35096">
        <ele>217</ele>
        <time>2017-10-01T09:49:44Z</time>
      </trkpt>
      <trkpt lat="43.59206" lon="3.35111">
        <ele>215.8</ele>
        <time>2017-10-01T09:49:46Z</time>
      </trkpt>
      <trkpt lat="43.5921" lon="3.35121">
        <ele>214.9</ele>
        <time>2017-10-01T09:49:47Z</time>
      </trkpt>
      <trkpt lat="43.59212" lon="3.35132">
        <ele>214.1</ele>
        <time>2017-10-01T09:49:48Z</time>
      </trkpt>
      <trkpt lat="43.59214" lon="3.35143">
        <ele>213.2</ele>
        <time>2017-10-01T09:49:49Z</time>
      </trkpt>
      <trkpt lat="43.59214" lon="3.35153">
        <ele>212.3</ele>
        <time>2017-10-01T09:49:50Z</time>
      </trkpt>
      <trkpt lat="43.59212" lon="3.35163">
        <ele>211.4</ele>
        <time>2017-10-01T09:49:51Z</time>
      </trkpt>
      <trkpt lat="43.5921" lon="3.35182">
        <ele>209.7</ele>
        <time>2017-10-01T09:49:53Z</time>
      </trkpt>
      <trkpt lat="43.59215" lon="3.35199">
        <ele>207.9</ele>
        <time>2017-10-01T09:49:55Z</time>
      </trkpt>
      <trkpt lat="43.59221" lon="3.3521">
        <ele>205.9</ele>
        <time>2017-10-01T09:49:57Z</time>
      </trkpt>
      <trkpt lat="43.59223" lon="3.3522">
        <ele>204.7</ele>
        <time>2017-10-01T09:49:59Z</time>
      </trkpt>
      <trkpt lat="43.59221" lon="3.35234">
        <ele>202.8</ele>
        <time>2017-10-01T09:50:01Z</time>
      </trkpt>
      <trkpt lat="43.59214" lon="3.35246">
        <ele>201.5</ele>
        <time>2017-10-01T09:50:03Z</time>
      </trkpt>
      <trkpt lat="43.59207" lon="3.35259">
        <ele>200.7</ele>
        <time>2017-10-01T09:50:05Z</time>
      </trkpt>
      <trkpt lat="43.59204" lon="3.35274">
        <ele>200.2</ele>
        <time>2017-10-01T09:50:07Z</time>
      </trkpt>
      <trkpt lat="43.592" lon="3.35292">
        <ele>199.9</ele>
        <time>2017-10-01T09:50:09Z</time>
      </trkpt>
      <trkpt lat="43.59192" lon="3.35308">
        <ele>199.3</ele>
        <time>2017-10-01T09:50:11Z</time>
      </trkpt>
      <trkpt lat="43.59184" lon="3.35323">
        <ele>198.6</ele>
        <time>2017-10-01T09:50:13Z</time>
      </trkpt>
      <trkpt lat="43.59183" lon="3.35343">
        <ele>197.9</ele>
        <time>2017-10-01T09:50:15Z</time>
      </trkpt>
      <trkpt lat="43.59182" lon="3.35359">
        <ele>197.7</ele>
        <time>2017-10-01T09:50:17Z</time>
      </trkpt>
      <trkpt lat="43.59174" lon="3.35357">
        <ele>197.6</ele>
        <time>2017-10-01T09:50:23Z</time>
      </trkpt>
      <trkpt lat="43.59167" lon="3.35352">
        <ele>197.1</ele>
        <time>2017-10-01T09:50:25Z</time>
      </trkpt>
      <trkpt lat="43.59156" lon="3.3535">
        <ele>196.2</ele>
        <time>2017-10-01T09:50:27Z</time>
      </trkpt>
      <trkpt lat="43.59144" lon="3.35358">
        <ele>195.4</ele>
        <time>2017-10-01T09:50:29Z</time>
      </trkpt>
      <trkpt lat="43.59134" lon="3.35369">
        <ele>194.6</ele>
        <time>2017-10-01T09:50:31Z</time>
      </trkpt>
      <trkpt lat="43.59122" lon="3.35381">
        <ele>193.6</ele>
        <time>2017-10-01T09:50:33Z</time>
      </trkpt>
      <trkpt lat="43.59111" lon="3.35393">
        <ele>192.7</ele>
        <time>2017-10-01T09:50:35Z</time>
      </trkpt>
      <trkpt lat="43.59099" lon="3.35401">
        <ele>191.7</ele>
        <time>2017-10-01T09:50:37Z</time>
      </trkpt>
      <trkpt lat="43.59085" lon="3.35404">
        <ele>190.8</ele>
        <time>2017-10-01T09:50:39Z</time>
      </trkpt>
      <trkpt lat="43.59073" lon="3.35415">
        <ele>190</ele>
        <time>2017-10-01T09:50:41Z</time>
      </trkpt>
      <trkpt lat="43.59066" lon="3.3542">
        <ele>189.6</ele>
        <time>2017-10-01T09:50:42Z</time>
      </trkpt>
      <trkpt lat="43.59059" lon="3.35426">
        <ele>189.4</ele>
        <time>2017-10-01T09:50:43Z</time>
      </trkpt>
      <trkpt lat="43.59052" lon="3.35432">
        <ele>189</ele>
        <time>2017-10-01T09:50:44Z</time>
      </trkpt>
      <trkpt lat="43.59044" lon="3.35434">
        <ele>188.9</ele>
        <time>2017-10-01T09:50:45Z</time>
      </trkpt>
      <trkpt lat="43.59035" lon="3.35435">
        <ele>188.6</ele>
        <time>2017-10-01T09:50:46Z</time>
      </trkpt>
      <trkpt lat="43.59029" lon="3.35437">
        <ele>188.2</ele>
        <time>2017-10-01T09:50:47Z</time>
      </trkpt>
      <trkpt lat="43.59016" lon="3.35444">
        <ele>187.5</ele>
        <time>2017-10-01T09:50:49Z</time>
      </trkpt>
      <trkpt lat="43.59006" lon="3.35457">
        <ele>186.8</ele>
        <time>2017-10-01T09:50:51Z</time>
      </trkpt>
      <trkpt lat="43.58995" lon="3.3547">
        <ele>186.1</ele>
        <time>2017-10-01T09:50:53Z</time>
      </trkpt>
      <trkpt lat="43.58986" lon="3.35483">
        <ele>185.3</ele>
        <time>2017-10-01T09:50:55Z</time>
      </trkpt>
      <trkpt lat="43.58978" lon="3.35498">
        <ele>184.6</ele>
        <time>2017-10-01T09:50:57Z</time>
      </trkpt>
      <trkpt lat="43.58972" lon="3.35512">
        <ele>184</ele>
        <time>2017-10-01T09:50:59Z</time>
      </trkpt>
      <trkpt lat="43.58965" lon="3.35526">
        <ele>183.5</ele>
        <time>2017-10-01T09:51:01Z</time>
      </trkpt>
      <trkpt lat="43.58959" lon="3.35541">
        <ele>182.8</ele>
        <time>2017-10-01T09:51:03Z</time>
      </trkpt>
      <trkpt lat="43.58956" lon="3.35553">
        <ele>182.2</ele>
        <time>2017-10-01T09:51:05Z</time>
      </trkpt>
      <trkpt lat="43.58954" lon="3.35566">
        <ele>181.3</ele>
        <time>2017-10-01T09:51:07Z</time>
      </trkpt>
      <trkpt lat="43.5895" lon="3.35578">
        <ele>180.2</ele>
        <time>2017-10-01T09:51:09Z</time>
      </trkpt>
      <trkpt lat="43.58944" lon="3.35589">
        <ele>179.2</ele>
        <time>2017-10-01T09:51:11Z</time>
      </trkpt>
      <trkpt lat="43.5894" lon="3.35599">
        <ele>178.3</ele>
        <time>2017-10-01T09:51:13Z</time>
      </trkpt>
      <trkpt lat="43.58934" lon="3.3561">
        <ele>177.7</ele>
        <time>2017-10-01T09:51:15Z</time>
      </trkpt>
      <trkpt lat="43.58928" lon="3.35623">
        <ele>177.2</ele>
        <time>2017-10-01T09:51:17Z</time>
      </trkpt>
      <trkpt lat="43.58921" lon="3.35637">
        <ele>177.1</ele>
        <time>2017-10-01T09:51:19Z</time>
      </trkpt>
      <trkpt lat="43.58916" lon="3.35651">
        <ele>177.2</ele>
        <time>2017-10-01T09:51:21Z</time>
      </trkpt>
      <trkpt lat="43.58911" lon="3.35663">
        <ele>177.1</ele>
        <time>2017-10-01T09:51:23Z</time>
      </trkpt>
      <trkpt lat="43.589" lon="3.35669">
        <ele>176.7</ele>
        <time>2017-10-01T09:51:25Z</time>
      </trkpt>
      <trkpt lat="43.5889" lon="3.3568">
        <ele>176.2</ele>
        <time>2017-10-01T09:51:27Z</time>
      </trkpt>
      <trkpt lat="43.58879" lon="3.35684">
        <ele>175.8</ele>
        <time>2017-10-01T09:51:29Z</time>
      </trkpt>
      <trkpt lat="43.58871" lon="3.35691">
        <ele>175.6</ele>
        <time>2017-10-01T09:51:31Z</time>
      </trkpt>
      <trkpt lat="43.58865" lon="3.35702">
        <ele>175.6</ele>
        <time>2017-10-01T09:51:34Z</time>
      </trkpt>
      <trkpt lat="43.58859" lon="3.3571">
        <ele>175.4</ele>
        <time>2017-10-01T09:51:36Z</time>
      </trkpt>
      <trkpt lat="43.58853" lon="3.35718">
        <ele>175.4</ele>
        <time>2017-10-01T09:51:38Z</time>
      </trkpt>
      <trkpt lat="43.58848" lon="3.35726">
        <ele>175.5</ele>
        <time>2017-10-01T09:51:40Z</time>
      </trkpt>
      <trkpt lat="43.58843" lon="3.35733">
        <ele>175.5</ele>
        <time>2017-10-01T09:51:42Z</time>
      </trkpt>
      <trkpt lat="43.58836" lon="3.35744">
        <ele>175.6</ele>
        <time>2017-10-01T09:51:45Z</time>
      </trkpt>
      <trkpt lat="43.58831" lon="3.35753">
        <ele>175.8</ele>
        <time>2017-10-01T09:51:47Z</time>
      </trkpt>
      <trkpt lat="43.58825" lon="3.35761">
        <ele>176</ele>
        <time>2017-10-01T09:51:49Z</time>
      </trkpt>
      <trkpt lat="43.58819" lon="3.35769">
        <ele>176.2</ele>
        <time>2017-10-01T09:51:51Z</time>
      </trkpt>
      <trkpt lat="43.58813" lon="3.35775">
        <ele>176.5</ele>
        <time>2017-10-01T09:51:53Z</time>
      </trkpt>
      <trkpt lat="43.58806" lon="3.35782">
        <ele>176.9</ele>
        <time>2017-10-01T09:51:55Z</time>
      </trkpt>
      <trkpt lat="43.588" lon="3.35788">
        <ele>177</ele>
        <time>2017-10-01T09:51:57Z</time>
      </trkpt>
      <trkpt lat="43.58793" lon="3.35795">
        <ele>177.2</ele>
        <time>2017-10-01T09:51:59Z</time>
      </trkpt>
      <trkpt lat="43.58788" lon="3.35802">
        <ele>177.2</ele>
        <time>2017-10-01T09:52:01Z</time>
      </trkpt>
      <trkpt lat="43.5878" lon="3.35811">
        <ele>177.2</ele>
        <time>2017-10-01T09:52:04Z</time>
      </trkpt>
      <trkpt lat="43.58773" lon="3.35818">
        <ele>177.3</ele>
        <time>2017-10-01T09:52:07Z</time>
      </trkpt>
      <trkpt lat="43.58766" lon="3.35827">
        <ele>177.4</ele>
        <time>2017-10-01T09:52:10Z</time>
      </trkpt>
      <trkpt lat="43.58758" lon="3.35836">
        <ele>177.5</ele>
        <time>2017-10-01T09:52:13Z</time>
      </trkpt>
      <trkpt lat="43.58752" lon="3.35843">
        <ele>177.6</ele>
        <time>2017-10-01T09:52:15Z</time>
      </trkpt>
      <trkpt lat="43.58746" lon="3.3585">
        <ele>177.7</ele>
        <time>2017-10-01T09:52:17Z</time>
      </trkpt>
      <trkpt lat="43.5874" lon="3.35857">
        <ele>178.6</ele>
        <time>2017-10-01T09:52:19Z</time>
      </trkpt>
      <trkpt lat="43.58734" lon="3.35864">
        <ele>178.9</ele>
        <time>2017-10-01T09:52:21Z</time>
      </trkpt>
      <trkpt lat="43.58727" lon="3.3587">
        <ele>179</ele>
        <time>2017-10-01T09:52:23Z</time>
      </trkpt>
      <trkpt lat="43.58718" lon="3.35877">
        <ele>179.3</ele>
        <time>2017-10-01T09:52:26Z</time>
      </trkpt>
      <trkpt lat="43.58712" lon="3.35882">
        <ele>179.6</ele>
        <time>2017-10-01T09:52:28Z</time>
      </trkpt>
      <trkpt lat="43.58705" lon="3.35889">
        <ele>179.6</ele>
        <time>2017-10-01T09:52:30Z</time>
      </trkpt>
      <trkpt lat="43.58697" lon="3.35895">
        <ele>179.6</ele>
        <time>2017-10-01T09:52:32Z</time>
      </trkpt>
      <trkpt lat="43.5869" lon="3.35901">
        <ele>179.3</ele>
        <time>2017-10-01T09:52:34Z</time>
      </trkpt>
      <trkpt lat="43.58682" lon="3.35906">
        <ele>179.2</ele>
        <time>2017-10-01T09:52:36Z</time>
      </trkpt>
      <trkpt lat="43.58674" lon="3.35912">
        <ele>179.2</ele>
        <time>2017-10-01T09:52:38Z</time>
      </trkpt>
      <trkpt lat="43.58666" lon="3.35919">
        <ele>179.4</ele>
        <time>2017-10-01T09:52:40Z</time>
      </trkpt>
      <trkpt lat="43.58657" lon="3.35925">
        <ele>179.6</ele>
        <time>2017-10-01T09:52:42Z</time>
      </trkpt>
      <trkpt lat="43.58648" lon="3.35931">
        <ele>179.7</ele>
        <time>2017-10-01T09:52:44Z</time>
      </trkpt>
      <trkpt lat="43.58634" lon="3.35941">
        <ele>179.6</ele>
        <time>2017-10-01T09:52:47Z</time>
      </trkpt>
      <trkpt lat="43.58626" lon="3.35946">
        <ele>179.4</ele>
        <time>2017-10-01T09:52:49Z</time>
      </trkpt>
      <trkpt lat="43.58617" lon="3.3595">
        <ele>179</ele>
        <time>2017-10-01T09:52:51Z</time>
      </trkpt>
      <trkpt lat="43.58609" lon="3.35953">
        <ele>178.8</ele>
        <time>2017-10-01T09:52:53Z</time>
      </trkpt>
      <trkpt lat="43.586" lon="3.35954">
        <ele>178.5</ele>
        <time>2017-10-01T09:52:55Z</time>
      </trkpt>
      <trkpt lat="43.58591" lon="3.35956">
        <ele>178.4</ele>
        <time>2017-10-01T09:52:57Z</time>
      </trkpt>
      <trkpt lat="43.58581" lon="3.35962">
        <ele>178.2</ele>
        <time>2017-10-01T09:52:59Z</time>
      </trkpt>
      <trkpt lat="43.58571" lon="3.35968">
        <ele>178.2</ele>
        <time>2017-10-01T09:53:01Z</time>
      </trkpt>
      <trkpt lat="43.58563" lon="3.35976">
        <ele>177.9</ele>
        <time>2017-10-01T09:53:03Z</time>
      </trkpt>
      <trkpt lat="43.58555" lon="3.35982">
        <ele>177.7</ele>
        <time>2017-10-01T09:53:05Z</time>
      </trkpt>
      <trkpt lat="43.58548" lon="3.35989">
        <ele>177.3</ele>
        <time>2017-10-01T09:53:07Z</time>
      </trkpt>
      <trkpt lat="43.5854" lon="3.35994">
        <ele>177</ele>
        <time>2017-10-01T09:53:09Z</time>
      </trkpt>
      <trkpt lat="43.5853" lon="3.36001">
        <ele>176.6</ele>
        <time>2017-10-01T09:53:11Z</time>
      </trkpt>
      <trkpt lat="43.5852" lon="3.36009">
        <ele>175.9</ele>
        <time>2017-10-01T09:53:13Z</time>
      </trkpt>
      <trkpt lat="43.5851" lon="3.36018">
        <ele>175.4</ele>
        <time>2017-10-01T09:53:15Z</time>
      </trkpt>
      <trkpt lat="43.585" lon="3.36026">
        <ele>175.1</ele>
        <time>2017-10-01T09:53:17Z</time>
      </trkpt>
      <trkpt lat="43.58491" lon="3.36034">
        <ele>175</ele>
        <time>2017-10-01T09:53:19Z</time>
      </trkpt>
      <trkpt lat="43.58482" lon="3.36042">
        <ele>174.9</ele>
        <time>2017-10-01T09:53:21Z</time>
      </trkpt>
      <trkpt lat="43.58474" lon="3.3605">
        <ele>174.7</ele>
        <time>2017-10-01T09:53:23Z</time>
      </trkpt>
      <trkpt lat="43.58465" lon="3.36058">
        <ele>174.6</ele>
        <time>2017-10-01T09:53:25Z</time>
      </trkpt>
      <trkpt lat="43.58457" lon="3.36065">
        <ele>174.4</ele>
        <time>2017-10-01T09:53:27Z</time>
      </trkpt>
      <trkpt lat="43.58448" lon="3.36073">
        <ele>174.3</ele>
        <time>2017-10-01T09:53:29Z</time>
      </trkpt>
      <trkpt lat="43.5844" lon="3.36082">
        <ele>174.2</ele>
        <time>2017-10-01T09:53:31Z</time>
      </trkpt>
      <trkpt lat="43.58433" lon="3.3609">
        <ele>174.3</ele>
        <time>2017-10-01T09:53:33Z</time>
      </trkpt>
      <trkpt lat="43.58425" lon="3.36101">
        <ele>174.2</ele>
        <time>2017-10-01T09:53:35Z</time>
      </trkpt>
      <trkpt lat="43.58417" lon="3.36112">
        <ele>173.8</ele>
        <time>2017-10-01T09:53:37Z</time>
      </trkpt>
      <trkpt lat="43.58409" lon="3.36123">
        <ele>173.5</ele>
        <time>2017-10-01T09:53:39Z</time>
      </trkpt>
      <trkpt lat="43.58401" lon="3.36133">
        <ele>173.3</ele>
        <time>2017-10-01T09:53:41Z</time>
      </trkpt>
      <trkpt lat="43.58393" lon="3.36143">
        <ele>173.3</ele>
        <time>2017-10-01T09:53:43Z</time>
      </trkpt>
      <trkpt lat="43.58386" lon="3.36154">
        <ele>173.5</ele>
        <time>2017-10-01T09:53:45Z</time>
      </trkpt>
      <trkpt lat="43.58378" lon="3.36163">
        <ele>173.9</ele>
        <time>2017-10-01T09:53:47Z</time>
      </trkpt>
      <trkpt lat="43.58371" lon="3.3617">
        <ele>174.1</ele>
        <time>2017-10-01T09:53:49Z</time>
      </trkpt>
      <trkpt lat="43.58364" lon="3.36176">
        <ele>174.2</ele>
        <time>2017-10-01T09:53:51Z</time>
      </trkpt>
      <trkpt lat="43.58356" lon="3.36181">
        <ele>174.1</ele>
        <time>2017-10-01T09:53:53Z</time>
      </trkpt>
      <trkpt lat="43.58348" lon="3.36184">
        <ele>173.8</ele>
        <time>2017-10-01T09:53:55Z</time>
      </trkpt>
      <trkpt lat="43.58341" lon="3.36188">
        <ele>173.7</ele>
        <time>2017-10-01T09:53:57Z</time>
      </trkpt>
      <trkpt lat="43.58333" lon="3.3619">
        <ele>173.7</ele>
        <time>2017-10-01T09:53:59Z</time>
      </trkpt>
      <trkpt lat="43.58326" lon="3.36193">
        <ele>173.8</ele>
        <time>2017-10-01T09:54:01Z</time>
      </trkpt>
      <trkpt lat="43.58318" lon="3.36195">
        <ele>173.8</ele>
        <time>2017-10-01T09:54:03Z</time>
      </trkpt>
      <trkpt lat="43.5831" lon="3.36197">
        <ele>173.9</ele>
        <time>2017-10-01T09:54:05Z</time>
      </trkpt>
      <trkpt lat="43.58302" lon="3.362">
        <ele>174</ele>
        <time>2017-10-01T09:54:07Z</time>
      </trkpt>
      <trkpt lat="43.58292" lon="3.36202">
        <ele>174</ele>
        <time>2017-10-01T09:54:10Z</time>
      </trkpt>
      <trkpt lat="43.58283" lon="3.36203">
        <ele>174</ele>
        <time>2017-10-01T09:54:13Z</time>
      </trkpt>
      <trkpt lat="43.58275" lon="3.36208">
        <ele>174</ele>
        <time>2017-10-01T09:54:16Z</time>
      </trkpt>
      <trkpt lat="43.58266" lon="3.36213">
        <ele>174.1</ele>
        <time>2017-10-01T09:54:19Z</time>
      </trkpt>
      <trkpt lat="43.58258" lon="3.36215">
        <ele>174</ele>
        <time>2017-10-01T09:54:21Z</time>
      </trkpt>
      <trkpt lat="43.5825" lon="3.36219">
        <ele>173.9</ele>
        <time>2017-10-01T09:54:23Z</time>
      </trkpt>
      <trkpt lat="43.58242" lon="3.36224">
        <ele>173.7</ele>
        <time>2017-10-01T09:54:25Z</time>
      </trkpt>
      <trkpt lat="43.58235" lon="3.36229">
        <ele>173.5</ele>
        <time>2017-10-01T09:54:27Z</time>
      </trkpt>
      <trkpt lat="43.58228" lon="3.36233">
        <ele>173.3</ele>
        <time>2017-10-01T09:54:29Z</time>
      </trkpt>
      <trkpt lat="43.5822" lon="3.36237">
        <ele>173.1</ele>
        <time>2017-10-01T09:54:31Z</time>
      </trkpt>
      <trkpt lat="43.58212" lon="3.36241">
        <ele>172.9</ele>
        <time>2017-10-01T09:54:33Z</time>
      </trkpt>
      <trkpt lat="43.58205" lon="3.36245">
        <ele>172.7</ele>
        <time>2017-10-01T09:54:35Z</time>
      </trkpt>
      <trkpt lat="43.58198" lon="3.3625">
        <ele>172.5</ele>
        <time>2017-10-01T09:54:37Z</time>
      </trkpt>
      <trkpt lat="43.5819" lon="3.36255">
        <ele>172.3</ele>
        <time>2017-10-01T09:54:39Z</time>
      </trkpt>
      <trkpt lat="43.58182" lon="3.36259">
        <ele>172.1</ele>
        <time>2017-10-01T09:54:41Z</time>
      </trkpt>
      <trkpt lat="43.58173" lon="3.36264">
        <ele>171.9</ele>
        <time>2017-10-01T09:54:43Z</time>
      </trkpt>
      <trkpt lat="43.58164" lon="3.36269">
        <ele>171.6</ele>
        <time>2017-10-01T09:54:45Z</time>
      </trkpt>
      <trkpt lat="43.58154" lon="3.36274">
        <ele>171.4</ele>
        <time>2017-10-01T09:54:47Z</time>
      </trkpt>
      <trkpt lat="43.58145" lon="3.36279">
        <ele>171.2</ele>
        <time>2017-10-01T09:54:49Z</time>
      </trkpt>
      <trkpt lat="43.58136" lon="3.36285">
        <ele>171</ele>
        <time>2017-10-01T09:54:51Z</time>
      </trkpt>
      <trkpt lat="43.58126" lon="3.3629">
        <ele>170.8</ele>
        <time>2017-10-01T09:54:53Z</time>
      </trkpt>
      <trkpt lat="43.58116" lon="3.36296">
        <ele>170.7</ele>
        <time>2017-10-01T09:54:55Z</time>
      </trkpt>
      <trkpt lat="43.58106" lon="3.36301">
        <ele>170.5</ele>
        <time>2017-10-01T09:54:57Z</time>
      </trkpt>
      <trkpt lat="43.58095" lon="3.36306">
        <ele>170.3</ele>
        <time>2017-10-01T09:54:59Z</time>
      </trkpt>
      <trkpt lat="43.58086" lon="3.36313">
        <ele>170.2</ele>
        <time>2017-10-01T09:55:01Z</time>
      </trkpt>
      <trkpt lat="43.58075" lon="3.36319">
        <ele>170.1</ele>
        <time>2017-10-01T09:55:03Z</time>
      </trkpt>
      <trkpt lat="43.58064" lon="3.36325">
        <ele>170</ele>
        <time>2017-10-01T09:55:05Z</time>
      </trkpt>
      <trkpt lat="43.58054" lon="3.3633">
        <ele>169.9</ele>
        <time>2017-10-01T09:55:07Z</time>
      </trkpt>
      <trkpt lat="43.58043" lon="3.36336">
        <ele>169.7</ele>
        <time>2017-10-01T09:55:09Z</time>
      </trkpt>
      <trkpt lat="43.58032" lon="3.3634">
        <ele>169.6</ele>
        <time>2017-10-01T09:55:11Z</time>
      </trkpt>
      <trkpt lat="43.58021" lon="3.36343">
        <ele>169.4</ele>
        <time>2017-10-01T09:55:13Z</time>
      </trkpt>
      <trkpt lat="43.5801" lon="3.36346">
        <ele>169.3</ele>
        <time>2017-10-01T09:55:15Z</time>
      </trkpt>
      <trkpt lat="43.57999" lon="3.36348">
        <ele>169.1</ele>
        <time>2017-10-01T09:55:17Z</time>
      </trkpt>
      <trkpt lat="43.57986" lon="3.36349">
        <ele>168.9</ele>
        <time>2017-10-01T09:55:19Z</time>
      </trkpt>
      <trkpt lat="43.57976" lon="3.36352">
        <ele>169</ele>
        <time>2017-10-01T09:55:21Z</time>
      </trkpt>
      <trkpt lat="43.57965" lon="3.36354">
        <ele>169.1</ele>
        <time>2017-10-01T09:55:23Z</time>
      </trkpt>
      <trkpt lat="43.57955" lon="3.36356">
        <ele>169.3</ele>
        <time>2017-10-01T09:55:25Z</time>
      </trkpt>
      <trkpt lat="43.57945" lon="3.36358">
        <ele>169.4</ele>
        <time>2017-10-01T09:55:27Z</time>
      </trkpt>
      <trkpt lat="43.57934" lon="3.3636">
        <ele>169.3</ele>
        <time>2017-10-01T09:55:29Z</time>
      </trkpt>
      <trkpt lat="43.57924" lon="3.36363">
        <ele>169.1</ele>
        <time>2017-10-01T09:55:31Z</time>
      </trkpt>
      <trkpt lat="43.57913" lon="3.36365">
        <ele>169</ele>
        <time>2017-10-01T09:55:33Z</time>
      </trkpt>
      <trkpt lat="43.57903" lon="3.36367">
        <ele>168.8</ele>
        <time>2017-10-01T09:55:35Z</time>
      </trkpt>
      <trkpt lat="43.57893" lon="3.3637">
        <ele>168.7</ele>
        <time>2017-10-01T09:55:37Z</time>
      </trkpt>
      <trkpt lat="43.57884" lon="3.36372">
        <ele>168.6</ele>
        <time>2017-10-01T09:55:39Z</time>
      </trkpt>
      <trkpt lat="43.57874" lon="3.36374">
        <ele>168.4</ele>
        <time>2017-10-01T09:55:41Z</time>
      </trkpt>
      <trkpt lat="43.57866" lon="3.36372">
        <ele>168.6</ele>
        <time>2017-10-01T09:55:43Z</time>
      </trkpt>
      <trkpt lat="43.57857" lon="3.36363">
        <ele>168.8</ele>
        <time>2017-10-01T09:55:45Z</time>
      </trkpt>
      <trkpt lat="43.57851" lon="3.36356">
        <ele>168.9</ele>
        <time>2017-10-01T09:55:47Z</time>
      </trkpt>
      <trkpt lat="43.57844" lon="3.36347">
        <ele>169.1</ele>
        <time>2017-10-01T09:55:50Z</time>
      </trkpt>
      <trkpt lat="43.57837" lon="3.36338">
        <ele>169.8</ele>
        <time>2017-10-01T09:55:53Z</time>
      </trkpt>
      <trkpt lat="43.57828" lon="3.36331">
        <ele>170.8</ele>
        <time>2017-10-01T09:55:56Z</time>
      </trkpt>
      <trkpt lat="43.57821" lon="3.36325">
        <ele>171.2</ele>
        <time>2017-10-01T09:55:58Z</time>
      </trkpt>
      <trkpt lat="43.57814" lon="3.36322">
        <ele>171.2</ele>
        <time>2017-10-01T09:56:00Z</time>
      </trkpt>
      <trkpt lat="43.57805" lon="3.36317">
        <ele>171.3</ele>
        <time>2017-10-01T09:56:03Z</time>
      </trkpt>
      <trkpt lat="43.57796" lon="3.36313">
        <ele>171.4</ele>
        <time>2017-10-01T09:56:06Z</time>
      </trkpt>
      <trkpt lat="43.57788" lon="3.3631">
        <ele>171.5</ele>
        <time>2017-10-01T09:56:09Z</time>
      </trkpt>
      <trkpt lat="43.5778" lon="3.36309">
        <ele>171.6</ele>
        <time>2017-10-01T09:56:13Z</time>
      </trkpt>
      <trkpt lat="43.5777" lon="3.36306">
        <ele>171.7</ele>
        <time>2017-10-01T09:56:16Z</time>
      </trkpt>
      <trkpt lat="43.57762" lon="3.36305">
        <ele>172.1</ele>
        <time>2017-10-01T09:56:18Z</time>
      </trkpt>
      <trkpt lat="43.57753" lon="3.36305">
        <ele>172.6</ele>
        <time>2017-10-01T09:56:20Z</time>
      </trkpt>
      <trkpt lat="43.57746" lon="3.36304">
        <ele>173.1</ele>
        <time>2017-10-01T09:56:22Z</time>
      </trkpt>
      <trkpt lat="43.57738" lon="3.36301">
        <ele>174.2</ele>
        <time>2017-10-01T09:56:24Z</time>
      </trkpt>
      <trkpt lat="43.57732" lon="3.36292">
        <ele>174.6</ele>
        <time>2017-10-01T09:56:27Z</time>
      </trkpt>
      <trkpt lat="43.57732" lon="3.36281">
        <ele>175</ele>
        <time>2017-10-01T09:56:29Z</time>
      </trkpt>
      <trkpt lat="43.5773" lon="3.36271">
        <ele>175.4</ele>
        <time>2017-10-01T09:56:33Z</time>
      </trkpt>
      <trkpt lat="43.5773" lon="3.3626">
        <ele>175.6</ele>
        <time>2017-10-01T09:56:37Z</time>
      </trkpt>
      <trkpt lat="43.5773" lon="3.36259">
        <ele>175.6</ele>
        <time>2017-10-01T09:56:44Z</time>
      </trkpt>
      <trkpt lat="43.57734" lon="3.36255">
        <ele>175.4</ele>
        <time>2017-10-01T09:56:56Z</time>
      </trkpt>
      <trkpt lat="43.57732" lon="3.36255">
        <ele>174.9</ele>
        <time>2017-10-01T09:57:12Z</time>
      </trkpt>
      <trkpt lat="43.5773" lon="3.36252">
        <ele>173.7</ele>
        <time>2017-10-01T09:57:45Z</time>
      </trkpt>
    </trkseg>
  </trk>
</gpx>